GFSGBSN_prec_cloud_003.txt.gz
Cloud_Cover
19 100 14 4 2 0 0 4 5 24 4 1 86 62 100 94 100 100 16 12 6 2 50 100 11 5 24 91 37 0 0 6 2 72 87 12 42 2 0 0 0 0 0 5 5 3 0
25 100 43 12 3 0 1 27 6 5 5 5 16 100 96 100 100 100 91 60 35 5 60 70 83 5 12 97 3 4 33 4 0 22 66 9 40 0 7 5 3 0 0 2 4 0 0
19 100 88 28 5 0 4 63 11 90 5 32 66 98 89 100 100 100 100 90 5 100 7 42 100 4 60 5 3 86 99 2 0 0 5 0 10 23 2 8 4 3 0 0 0 5 0
36 99 95 34 5 1 14 87 100 100 96 96 100 97 100 100 100 100 100 100 23 36 70 62 98 68 100 0 5 30 80 13 0 0 13 5 77 56 100 22 8 3 38 4 3 5 0
85 100 74 100 5 9 69 90 100 100 97 98 83 75 100 100 100 100 100 100 66 82 5 94 77 96 74 0 0 5 59 35 6 0 16 9 91 88 80 82 50 61 83 2 3 5 0
100 100 97 100 32 31 92 90 9 82 98 100 100 100 100 100 100 100 100 100 98 99 98 100 98 94 48 0 0 5 78 56 4 0 89 94 88 65 100 46 88 33 73 2 5 3 0
100 100 100 100 62 46 98 86 18 100 100 100 100 100 100 100 100 100 100 100 100 100 100 46 27 98 2 0 0 68 100 73 22 53 100 100 100 85 0 94 3 95 10 5 5 4 0
100 100 100 100 100 39 100 88 23 100 100 100 100 100 100 100 100 100 100 100 100 100 100 100 100 85 86 1 0 30 99 46 35 86 100 89 93 2 14 5 98 100 5 5 5 4 0
100 100 100 100 100 77 100 100 98 100 100 100 100 100 100 100 100 100 100 100 100 100 100 100 97 21 100 2 0 4 48 52 8 87 100 75 57 100 9 66 56 37 16 5 5 0 0
100 100 100 100 100 88 100 100 100 100 100 100 100 100 100 100 100 100 100 100 100 100 100 100 30 64 100 26 0 69 100 68 3 95 5 100 64 52 100 88 99 96 55 95 6 0 0
100 100 100 100 100 100 92 100 100 100 100 100 100 100 100 100 100 100 100 100 100 100 92 7 7 47 95 34 4 96 100 100 2 4 100 100 97 31 100 88 12 61 95 87 33 3 3
100 100 100 100 100 100 90 100 100 38 80 100 100 100 100 100 100 100 100 100 100 100 100 47 59 66 100 28 60 100 100 100 87 64 100 47 5 7 8 84 54 96 92 87 5 4 3
100 100 100 100 100 100 100 100 100 83 26 93 100 100 100 100 100 100 100 100 100 100 98 100 53 67 99 100 99 100 100 100 86 43 99 95 98 100 79 100 94 79 90 74 4 2 0
100 100 100 100 100 100 100 100 100 92 6 30 100 100 100 100 100 100 100 100 100 100 100 100 92 100 99 100 96 100 100 100 55 32 35 82 100 41 100 93 19 5 5 5 0 0 0
100 100 100 100 100 100 100 100 100 85 5 15 100 100 100 100 100 100 100 100 100 100 98 100 100 100 100 100 100 100 100 100 85 12 52 100 9 26 5 5 5 5 5 0 0 5 8
100 100 100 100 100 100 100 100 100 86 1 51 100 98 90 100 100 100 100 100 100 100 100 100 100 100 100 100 96 100 100 99 74 22 75 48 47 33 5 5 16 5 4 0 4 5 5
100 100 100 100 100 100 100 100 100 87 8 37 56 100 100 100 100 100 100 100 100 100 100 41 100 100 82 72 100 100 100 100 93 96 86 6 4 12 34 5 5 5 0 0 0 1 1
100 100 100 100 100 100 100 100 100 100 28 8 57 97 100 100 100 100 100 100 100 100 100 85 46 100 100 100 100 100 100 89 73 78 96 41 78 4 6 5 5 0 0 0 0 0 0
100 100 100 100 100 100 100 100 100 100 10 7 27 100 100 100 100 100 100 100 100 100 100 100 54 47 56 28 58 98 94 10 75 51 78 57 61 94 89 33 2 0 0 0 0 0 0
100 100 100 100 100 100 100 100 100 100 8 20 51 100 100 100 100 100 96 100 100 100 100 100 100 100 78 87 97 5 38 75 52 89 100 88 98 34 28 44 2 0 5 14 2 0 71
100 100 100 100 100 100 100 100 100 100 26 3 14 97 100 100 100 100 78 100 100 100 100 100 100 100 100 100 100 96 62 34 87 89 88 70 88 97 64 5 0 0 5 9 0 50 23
100 100 100 100 100 100 100 100 100 100 77 5 5 80 100 100 100 100 94 78 65 100 100 100 96 100 100 100 100 100 100 100 100 100 100 99 77 47 65 100 2 0 0 3 53 16 5
100 100 100 100 100 100 100 100 100 100 71 5 5 22 100 28 100 99 100 100 93 84 99 100 100 100 100 100 100 100 100 100 100 100 100 100 64 57 48 5 5 0 4 5 5 40 100
100 100 100 100 100 100 100 100 100 100 58 1 48 5 74 52 61 52 83 100 100 89 99 100 100 100 100 99 100 100 100 100 100 99 100 100 100 100 98 46 30 100 83 46 87 100 100
100 100 100 100 100 100 100 100 100 100 90 0 20 5 5 74 96 92 13 52 100 100 100 92 86 100 100 100 100 100 100 100 100 100 100 100 100 100 95 99 100 100 100 100 100 100 100
100 100 100 100 100 100 100 100 100 100 100 59 2 3 5 5 69 100 85 100 80 100 100 100 97 100 99 100 100 100 100 100 92 100 100 100 100 100 100 100 100 100 100 100 100 100 100
100 100 100 100 100 100 100 100 100 100 74 99 9 0 5 5 3 93 100 98 100 97 74 100 95 100 92 96 100 100 100 100 100 100 100 100 100 100 100 100 100 100 100 99 97 100 100
100 100 100 100 100 100 100 100 100 100 100 17 78 0 1 4 0 2 63 99 82 96 100 85 95 98 94 100 100 100 100 100 100 100 100 100 100 100 100 100 100 100 100 100 100 100 100
100 100 100 100 100 100 100 100 100 100 100 92 93 96 0 3 3 0 0 38 97 58 83 97 100 100 100 100 100 100 100 100 100 100 100 100 100 100 100 100 100 100 100 100 100 36 21

GFSGBSN_prec_cloud_006.txt.gz
Cloud_Cover
33 51 8 3 9 6 5 3 5 1 8 5 0 0 67 100 3 38 100 100 100 100 45 13 3 4 66 96 36 0 4 7 0 4 100 100 16 0 0 0 0 0 0 0 0 3 3
100 18 83 1 7 72 5 5 5 5 66 6 5 38 34 18 16 98 100 100 100 100 98 34 22 5 60 81 1 3 54 7 28 0 68 100 27 0 13 0 0 0 0 0 0 1 0
100 43 9 0 5 100 12 5 49 6 80 8 85 98 13 5 86 100 100 100 100 100 47 6 100 14 68 2 12 0 5 79 7 36 43 90 13 50 63 69 1 5 3 2 0 0 5
100 97 7 0 5 100 77 28 71 47 86 80 100 100 66 5 5 100 100 100 100 100 24 5 97 99 37 12 58 0 5 100 9 4 100 97 46 12 100 99 55 16 24 4 0 0 4
100 100 47 5 6 100 100 17 72 66 88 100 100 100 96 94 83 100 100 100 100 100 65 30 99 100 24 100 44 0 18 96 42 5 100 99 48 100 100 100 92 100 62 35 0 0 1
100 100 99 11 10 100 100 16 27 65 100 100 100 100 100 85 100 100 100 100 100 100 90 96 64 100 13 100 100 0 66 100 98 5 100 100 93 56 100 98 100 41 100 31 0 4 4
85 100 100 100 67 100 100 87 27 60 100 100 100 100 100 100 100 100 100 100 100 100 80 100 49 100 58 5 85 0 88 100 100 34 100 95 95 100 6 0 2 7 12 5 4 5 0
100 100 100 100 66 100 100 93 9 37 79 100 100 100 100 100 100 100 100 100 100 100 100 100 85 100 100 100 82 3 98 100 99 9 66 100 96 43 99 35 87 6 99 50 5 5 0
100 100 100 100 100 100 100 80 12 84 40 100 100 100 100 100 100 100 100 100 100 100 100 100 99 100 100 100 44 26 100 99 90 100 50 100 60 18 43 6 34 93 84 64 3 5 0
100 100 100 100 100 100 100 82 44 100 5 94 100 100 100 100 100 100 100 100 100 100 100 100 96 91 82 98 55 69 100 97 100 38 56 99 96 99 71 60 15 97 36 100 24 23 1
100 100 100 100 100 100 100 82 69 100 5 6 81 100 100 100 100 100 100 100 100 100 100 100 66 99 74 92 4 76 100 100 100 12 65 70 92 100 100 59 5 3 88 98 100 100 5
100 100 100 100 100 100 100 100 83 100 27 5 8 100 100 100 100 100 100 100 100 100 100 100 29 12 97 26 81 99 99 70 100 100 72 100 100 97 23 100 29 73 76 100 100 100 34
100 100 100 100 100 100 100 100 100 100 77 5 35 99 100 100 100 100 100 100 100 100 100 98 30 15 74 10 90 56 64 73 87 57 66 66 16 22 100 95 61 100 98 100 76 48 2
100 100 100 79 100 100 100 100 100 100 72 5 39 88 85 100 100 100 100 100 100 100 100 88 4 47 94 8 96 100 100 100 99 7 19 78 100 100 100 36 26 100 100 59 5 4 0
100 100 100 100 100 100 100 100 100 100 98 6 36 100 100 100 100 100 100 100 100 100 100 100 24 73 81 92 96 100 100 100 100 32 32 100 66 32 53 46 53 100 84 63 5 5 3
100 100 100 100 100 100 100 100 100 100 95 5 100 86 90 100 100 100 100 100 100 100 97 92 100 22 99 100 100 100 100 100 100 68 4 5 6 22 96 61 100 91 70 45 5 5 0
100 100 100 100 100 100 100 100 100 100 86 6 88 55 100 100 100 100 100 100 100 100 17 48 40 66 60 37 100 100 100 100 100 98 64 7 31 89 100 72 52 99 46 42 41 6 0
100 100 100 100 100 100 100 100 100 100 100 12 4 92 100 100 100 100 100 100 100 100 32 43 39 100 100 60 100 100 100 100 55 29 61 18 16 89 91 11 100 87 63 5 5 0 0
100 100 100 100 100 100 100 100 100 100 100 100 17 100 100 100 100 100 100 100 100 100 84 48 27 77 100 39 100 100 100 90 99 98 31 41 89 29 98 70 5 7 5 6 12 0 0
100 100 100 100 100 100 100 100 100 100 100 100 58 100 100 100 100 100 100 100 100 100 100 100 70 87 100 86 87 100 100 100 90 73 72 97 97 9 5 5 5 4 5 5 0 0 0
100 100 100 100 100 100 100 100 100 100 100 100 9 98 100 100 100 100 100 100 100 100 100 100 85 8 94 98 46 99 59 98 97 100 97 97 94 98 64 12 37 46 67 43 2 0 0
100 100 100 100 100 100 100 100 100 100 100 100 60 69 100 100 100 100 100 100 100 100 100 100 100 100 54 5 35 24 99 95 5 36 81 100 97 100 100 97 100 13 5 0 0 0 0
100 100 100 100 100 100 100 100 100 100 100 100 64 100 100 100 100 100 100 100 100 100 100 100 100 100 95 100 58 76 90 91 100 100 100 100 100 100 73 75 66 3 4 0 0 5 0
100 100 100 100 100 100 100 100 100 100 100 100 67 95 80 100 100 100 100 100 100 100 100 100 100 100 100 100 100 100 100 100 100 100 95 99 99 99 100 46 5 57 4 0 1 5 6
100 100 100 100 100 100 100 100 100 100 100 100 6 41 94 79 38 100 100 100 100 91 100 100 100 100 100 100 100 100 100 99 100 100 100 100 100 100 100 100 100 100 100 91 20 95 97
100 100 100 100 100 100 100 100 100 100 95 100 0 18 86 84 43 46 99 97 100 84 99 100 100 100 100 100 100 99 100 100 100 100 100 100 100 100 100 100 100 100 100 100 100 100 100
100 100 100 100 100 100 100 100 100 100 94 100 4 12 54 26 41 54 82 75 78 17 89 99 100 99 100 100 98 100 100 100 100 100 100 100 100 100 100 98 92 100 100 100 100 100 100
100 100 100 100 100 100 100 100 100 100 100 100 24 2 10 5 6 92 86 98 85 43 35 88 90 100 100 100 100 100 100 100 100 100 100 100 100 100 100 100 100 97 100 94 96 100 100
100 100 100 100 100 100 100 100 100 100 100 100 95 4 5 7 4 8 91 100 94 97 99 68 56 100 68 86 85 96 100 100 100 100 100 100 100 100 100 100 100 100 100 100 100 100 100

GFSGBSN_prec_cloud_009.txt.gz
Cloud_Cover
100 100 43 64 5 21 21 1 1 3 5 5 6 5 5 0 0 26 32 2 5 73 99 100 100 89 9 86 28 0 5 0 2 83 0 50 83 96 84 0 0 0 0 0 3 5 5
100 100 54 12 5 12 12 2 0 5 39 32 5 5 7 5 20 9 1 37 100 81 97 100 100 93 39 86 4 5 57 25 0 100 12 15 8 100 17 9 0 0 0 0 1 5 5
100 100 100 5 5 28 56 5 2 5 99 99 5 12 6 95 5 5 7 19 93 100 100 100 100 67 52 34 2 5 10 93 73 84 10 4 56 100 97 25 0 0 3 0 0 0 0
100 100 100 64 4 99 100 31 5 5 100 100 12 16 100 100 100 84 7 93 88 100 100 100 98 76 100 74 100 100 100 98 100 8 5 8 93 100 100 70 7 15 56 3 0 0 0
100 100 100 100 79 98 100 73 37 5 100 100 11 56 100 100 100 100 98 60 100 100 100 100 49 30 100 100 100 100 100 100 100 89 66 100 100 100 100 97 86 99 6 1 0 0 1
100 100 100 100 100 90 100 100 21 15 100 100 65 81 89 100 100 99 100 100 100 100 100 100 73 63 22 94 100 100 94 100 89 93 100 100 100 100 100 8 93 96 99 68 1 3 0
100 100 100 100 100 100 100 100 5 39 100 99 50 93 82 100 100 100 98 100 100 100 100 100 100 100 31 80 54 83 97 100 91 100 100 76 100 100 86 5 37 100 16 5 0 5 5
100 100 100 100 100 100 100 100 5 85 100 73 31 100 98 100 100 100 100 100 100 100 100 100 100 100 100 16 46 72 39 100 96 100 100 100 100 89 100 77 100 8 100 5 4 8 10
100 100 100 100 100 100 100 100 66 94 100 58 62 100 100 100 100 100 100 100 100 100 100 100 100 100 100 54 100 91 30 100 100 100 99 10 100 100 100 93 26 5 5 3 5 54 20
100 100 100 100 100 100 100 100 99 100 100 64 91 52 83 100 100 100 100 100 100 100 100 100 100 100 96 96 100 77 100 89 100 100 100 76 100 100 100 90 12 5 32 5 6 39 5
100 100 100 100 100 100 100 100 100 100 100 72 76 49 9 98 100 100 100 100 100 100 100 100 100 100 74 79 100 99 100 85 100 100 90 99 100 100 98 68 25 20 54 23 73 80 32
100 100 100 100 100 100 100 100 100 90 100 94 99 67 21 49 100 100 100 100 100 100 100 100 100 100 99 94 100 100 46 100 100 100 100 100 90 100 99 100 99 8 100 59 37 88 45
100 100 100 100 100 100 100 100 100 100 100 100 88 46 12 79 100 100 100 100 100 100 100 100 100 100 100 100 100 54 20 100 100 100 100 100 100 100 100 100 100 100 70 92 93 99 8
100 100 100 100 100 100 100 100 100 100 100 100 71 37 86 100 100 100 100 100 100 100 100 100 85 65 100 98 100 50 100 100 100 62 94 100 100 86 96 100 100 100 55 53 100 5 5
100 100 100 100 100 100 100 100 100 100 100 100 100 100 100 100 100 100 100 100 100 100 100 100 10 80 99 100 92 70 67 86 100 51 88 95 61 100 58 100 64 100 95 55 46 5 2
100 100 100 100 100 100 100 100 100 100 100 100 100 100 100 100 100 100 100 100 100 100 100 99 7 5 8 37 100 13 75 62 100 80 34 47 98 93 28 100 99 25 26 100 92 6 5
100 100 100 100 100 100 100 100 100 100 100 90 97 99 100 100 100 100 100 100 100 100 100 91 4 5 52 91 100 98 35 87 100 100 27 5 5 46 98 98 88 41 84 69 98 6 5
100 100 100 100 100 100 100 100 100 100 100 65 78 100 100 100 100 100 100 100 100 100 76 15 36 100 89 40 100 100 99 100 86 99 31 31 3 5 34 58 15 5 8 52 10 5 4
100 100 100 100 100 100 100 100 100 100 100 100 100 100 100 100 100 100 100 100 100 42 92 12 5 78 32 100 100 84 93 47 100 73 19 25 5 15 90 20 6 5 78 83 12 5 5
100 100 100 100 100 100 100 100 100 100 100 100 100 100 100 100 100 100 100 100 100 91 100 96 60 5 7 14 92 94 99 100 100 100 100 96 67 6 17 53 86 44 8 18 21 27 5
100 100 100 100 100 100 100 100 100 100 100 100 100 61 36 100 100 100 100 100 100 100 100 100 92 90 26 33 100 90 100 50 100 96 100 94 99 62 31 100 13 6 1 39 15 19 44
100 100 100 100 100 100 100 100 100 100 100 100 100 96 8 100 100 100 100 100 100 100 100 100 100 99 100 19 100 100 100 100 98 89 99 82 83 85 100 31 8 5 5 5 46 60 5
100 100 100 100 100 100 100 100 100 100 100 100 100 100 9 100 100 100 100 100 100 100 100 98 89 100 100 100 40 97 97 100 100 100 48 94 24 63 98 58 89 10 5 9 59 6 4
100 100 100 100 100 100 100 100 100 100 100 100 100 100 54 100 100 100 100 100 100 100 100 100 100 100 100 14 5 12 61 79 100 100 100 90 99 100 93 80 42 14 78 34 7 5 5
100 100 100 100 100 100 100 100 100 100 100 100 100 100 78 100 100 100 100 100 100 100 100 100 100 100 100 100 100 96 100 100 100 100 100 100 100 100 75 61 36 61 96 83 36 33 5
100 100 100 100 100 100 100 100 100 100 100 100 100 100 89 100 100 100 100 100 100 100 100 100 100 100 100 100 100 100 100 96 94 100 100 100 100 100 100 68 57 100 100 49 45 71 100
100 100 100 100 100 100 100 100 100 100 100 100 94 100 87 96 100 99 99 100 100 100 100 100 100 100 100 100 100 100 100 100 100 100 94 100 100 100 100 100 100 100 99 76 94 100 100
100 100 100 100 100 100 100 100 100 100 100 100 78 100 11 44 100 96 87 100 100 100 100 100 100 100 100 100 100 100 100 100 100 100 100 100 100 98 100 100 100 100 84 54 99 100 100
100 100 100 100 100 100 100 100 100 100 100 100 95 93 5 6 100 100 69 80 100 98 97 99 93 86 100 97 98 100 100 100 95 100 100 100 100 100 100 100 100 100 100 100 100 100 100

GFSGBSN_prec_cloud_012.txt.gz
Cloud_Cover
100 100 53 100 100 59 50 17 5 5 5 5 1 0 1 0 0 0 0 0 0 5 4 11 78 100 94 99 50 23 19 3 0 18 47 4 48 58 86 76 87 0 0 0 0 45 100
100 100 100 100 51 24 6 15 5 5 5 5 0 0 5 5 3 5 5 5 5 3 75 62 40 95 100 98 5 2 2 3 0 0 94 0 62 39 33 23 82 0 0 0 0 5 100
100 100 100 100 76 49 77 12 5 5 5 5 2 2 5 5 5 5 6 18 5 5 75 100 100 100 99 100 97 5 5 4 1 4 2 9 15 94 5 60 90 69 38 2 0 2 63
100 100 100 100 100 99 86 13 21 5 5 19 5 4 5 5 5 29 92 61 5 30 100 100 98 74 100 100 26 5 0 0 0 21 33 9 64 100 98 41 70 69 98 65 0 0 2
100 100 100 100 100 100 100 85 63 57 92 10 5 44 39 5 6 72 100 100 47 52 87 56 51 56 67 84 62 7 6 4 0 1 3 5 98 100 100 95 60 80 54 23 21 3 0
100 100 100 100 100 100 100 99 87 100 100 9 7 28 36 22 9 97 83 95 100 97 99 100 82 28 89 100 96 81 100 38 50 77 100 54 69 100 100 61 82 97 39 69 56 4 0
100 100 100 100 100 100 100 100 100 100 94 7 26 25 99 31 100 100 99 85 100 100 100 100 58 100 100 98 83 100 100 100 100 89 100 34 95 100 87 100 39 90 5 49 22 4 4
100 100 100 100 100 100 100 100 100 100 72 13 86 82 100 71 99 100 100 100 100 100 100 94 100 100 94 99 96 100 77 100 100 100 100 100 100 92 100 99 75 100 58 27 85 1 5
100 100 100 100 100 100 100 100 100 100 45 55 100 80 100 99 100 100 100 100 100 100 100 100 100 100 100 100 99 100 68 100 100 100 100 92 34 98 100 100 95 43 92 92 27 5 22
93 100 100 100 100 100 100 100 100 100 59 93 100 88 100 84 100 100 100 100 100 100 100 100 100 100 100 98 100 13 94 100 100 100 100 96 97 100 100 100 100 93 83 15 5 74 98
96 100 100 100 100 100 100 100 100 100 100 100 100 98 100 76 92 100 100 100 100 100 100 100 100 100 100 100 90 10 80 100 100 100 100 93 100 100 100 100 100 100 63 5 37 100 97
100 100 100 100 95 100 100 100 100 100 100 100 100 100 100 100 73 94 100 100 100 100 100 100 100 100 100 100 58 100 99 100 100 100 100 100 100 100 100 100 100 100 24 42 85 96 70
90 100 100 100 96 100 100 100 100 100 100 100 100 100 100 100 47 100 100 100 100 100 100 100 100 100 100 100 98 100 100 100 100 100 100 100 100 100 100 100 100 100 99 100 100 99 43
96 100 100 100 100 100 100 100 100 100 100 100 100 100 100 92 99 100 100 100 100 100 100 100 100 100 100 100 100 100 100 100 100 100 100 100 100 100 100 100 85 100 29 80 91 10 27
100 100 100 100 100 100 100 100 100 100 100 100 100 100 100 100 100 100 100 100 100 100 100 100 100 93 100 100 100 100 100 100 100 100 100 100 100 100 89 94 88 100 57 59 5 5 5
100 100 100 100 100 100 100 100 100 100 100 100 100 100 94 99 100 100 100 100 100 100 100 100 70 27 62 94 100 100 78 97 100 100 100 100 100 100 100 96 98 88 67 50 6 42 51
100 100 100 100 100 100 100 100 100 100 100 100 100 100 98 100 100 100 100 100 100 100 100 99 44 30 62 69 100 99 55 83 100 100 100 100 100 100 100 100 100 95 86 47 5 5 64
100 100 100 100 100 100 100 100 100 100 100 100 100 100 100 100 100 100 100 100 100 100 100 31 6 5 7 47 79 100 31 90 88 98 72 98 100 100 90 100 100 100 100 98 71 71 5
100 100 100 100 100 100 100 100 100 100 100 100 100 100 100 100 100 100 100 100 100 100 100 95 6 5 75 97 49 94 68 100 94 30 5 5 11 66 100 100 100 100 100 97 14 5 5
100 100 100 100 100 100 100 100 100 100 100 100 100 100 100 100 100 100 100 100 100 100 66 90 71 59 53 42 12 5 61 98 90 48 55 66 13 22 5 5 5 45 100 100 69 52 58
100 100 100 100 100 100 100 100 100 100 100 100 100 100 100 100 100 100 100 100 100 100 100 99 11 54 97 86 100 82 88 84 100 96 100 99 68 21 1 1 0 1 4 4 2 28 5
100 100 100 100 100 100 100 100 100 100 100 100 100 100 100 69 100 100 100 100 100 100 100 92 78 34 100 100 98 98 71 88 100 100 100 87 93 61 5 5 1 0 0 0 0 5 5
100 100 100 100 100 100 100 100 100 100 100 100 100 100 100 38 100 100 100 100 100 100 100 100 100 68 91 61 96 100 90 100 100 100 100 96 56 55 45 5 5 5 6 4 4 0 0
100 100 100 100 100 100 100 100 100 100 100 100 100 100 100 81 100 100 100 100 100 100 100 100 97 100 88 82 53 100 100 100 100 97 100 98 91 67 31 89 36 3 4 5 1 0 0
100 100 100 100 100 100 100 100 100 100 100 100 100 100 100 100 100 100 100 100 100 100 100 100 57 97 90 100 99 99 100 100 100 100 100 88 63 71 96 54 65 99 10 4 0 4 5
100 100 100 100 100 100 100 100 100 100 100 100 100 100 100 100 88 100 100 100 100 100 100 100 100 99 39 100 70 100 100 100 99 100 100 100 100 100 88 84 5 84 40 5 5 6 6
100 100 100 100 100 100 100 100 100 100 100 100 100 100 100 100 94 100 100 100 100 100 100 100 100 100 100 100 100 100 100 68 85 95 100 100 100 100 90 75 70 80 29 75 11 50 7
100 100 100 100 100 100 100 100 100 100 100 100 100 100 100 100 100 100 100 100 100 100 100 100 100 100 100 100 100 100 100 100 100 100 100 100 90 100 99 95 58 100 100 81 98 27 16
100 100 100 100 100 100 100 100 100 100 100 100 100 100 100 100 100 100 99 100 100 100 100 100 100 100 100 100 85 100 100 100 100 100 100 99 91 100 99 91 94 88 65 32 8 20 92

GFSGBSN_prec_cloud_015.txt.gz
Cloud_Cover
100 100 100 100 100 100 100 100 100 60 9 7 5 5 6 5 14 5 3 0 0 0 0 0 1 1 20 70 44 98 5 0 0 4 8 5 0 0 24 35 100 100 12 6 1 5 1
6 100 100 100 100 100 100 77 88 87 32 94 10 5 5 5 14 5 6 5 4 0 0 4 4 5 15 95 51 51 70 59 42 80 3 48 2 0 12 4 89 91 34 27 31 2 0
14 4 99 100 100 100 100 100 100 27 73 99 88 7 5 5 39 11 38 5 5 2 1 0 4 13 96 100 100 100 100 94 22 28 43 2 83 40 36 20 26 100 100 97 8 31 3
100 6 5 75 100 100 100 100 100 100 99 91 100 45 30 5 5 5 28 8 5 5 5 5 5 42 100 100 97 68 6 2 5 2 0 71 77 48 100 46 77 100 100 100 89 20 1
5 53 21 3 56 100 100 100 100 100 100 40 100 100 53 5 11 25 80 10 8 5 13 5 2 67 72 100 95 74 5 5 4 17 6 11 100 99 57 100 65 100 100 98 82 31 4
87 30 58 62 5 94 100 100 100 100 100 91 63 99 5 83 60 71 100 99 80 96 28 62 71 88 59 100 30 5 5 5 8 88 23 34 65 100 89 100 88 100 100 96 8 45 4
79 40 20 3 99 100 100 100 100 100 100 69 100 10 40 100 90 78 100 100 97 100 100 21 23 64 100 69 18 66 5 62 100 59 90 24 86 100 10 27 56 86 100 100 51 82 67
90 66 24 16 14 100 100 100 100 100 100 100 100 44 95 100 100 100 100 100 100 100 100 100 100 100 86 100 78 37 86 100 75 64 96 100 90 5 9 12 100 39 100 74 98 99 9
17 5 5 3 69 100 100 100 100 100 100 100 100 100 99 100 100 76 100 100 100 100 100 100 100 100 100 99 81 100 100 100 97 94 58 92 35 37 81 62 100 100 22 96 100 95 0
100 33 5 27 2 96 100 100 100 100 100 100 100 100 88 100 100 95 100 100 100 100 100 92 100 100 100 100 100 100 100 100 100 72 100 100 90 100 100 89 94 99 64 100 100 89 38
100 100 27 78 6 58 92 100 100 100 100 100 100 99 100 100 100 100 100 100 100 100 100 53 100 100 100 100 100 100 100 100 95 98 100 74 100 100 100 100 96 98 100 97 96 90 35
100 100 100 28 59 96 81 100 100 100 100 100 100 100 100 100 100 100 100 100 100 100 100 100 100 100 100 100 100 100 100 38 94 97 100 100 100 100 97 100 100 100 100 100 100 100 18
100 100 100 98 85 88 50 100 100 100 100 100 100 100 100 100 100 100 100 100 100 100 100 100 100 100 100 100 100 100 100 100 100 100 100 100 100 100 100 100 100 100 100 100 100 67 28
100 100 100 100 89 100 98 100 100 100 100 100 100 100 100 100 100 100 100 100 100 100 100 100 100 100 100 100 100 100 100 100 100 100 100 100 100 100 100 100 100 100 99 100 80 47 17
100 100 100 100 100 74 100 100 100 100 100 100 100 100 100 100 100 96 100 100 100 100 100 100 100 100 100 99 100 74 98 99 100 100 100 100 100 100 100 100 100 100 99 100 35 5 92
100 100 100 100 100 100 100 100 100 100 100 100 100 100 100 100 100 100 100 100 100 100 100 100 100 99 98 100 99 100 100 100 100 100 100 100 95 100 100 100 100 99 57 58 20 28 87
100 100 100 100 100 97 100 100 100 100 100 100 100 100 100 100 100 100 100 100 100 100 100 100 98 99 100 100 100 100 100 100 100 100 100 100 100 100 100 100 100 100 100 64 43 7 100
100 100 100 100 100 100 100 100 100 100 100 100 100 100 100 100 100 100 100 100 100 100 100 100 92 100 100 100 100 100 99 100 100 100 100 100 100 100 100 100 100 100 98 91 8 32 1
100 100 100 100 100 100 100 100 100 100 100 100 100 100 100 100 100 100 100 100 100 100 100 100 62 49 38 100 90 100 100 100 100 100 100 100 100 100 100 77 100 100 100 100 56 79 5
100 100 100 100 100 100 100 100 100 100 100 100 100 100 100 100 100 100 100 100 100 100 100 63 26 74 88 75 14 90 100 100 100 100 100 100 100 100 100 95 62 58 96 100 95 31 5
100 100 100 100 100 100 100 100 100 100 100 100 100 100 100 100 100 100 100 100 100 100 100 100 100 78 33 42 24 100 100 96 100 96 29 100 98 100 100 99 100 100 100 100 6 100 21
100 100 100 100 100 100 100 100 100 100 100 100 100 100 100 100 100 100 100 100 100 100 100 100 100 99 100 99 90 100 78 100 75 83 11 72 72 96 100 62 100 94 94 5 2 3 5
100 100 100 100 100 100 100 100 100 100 100 100 100 100 100 100 100 100 100 100 100 100 100 100 100 91 97 98 49 98 83 100 100 100 100 100 61 78 99 8 5 5 5 5 4 0 2
100 100 100 100 100 100 100 100 100 100 100 100 100 100 100 100 98 98 100 100 100 100 100 100 100 100 98 95 16 86 100 100 100 100 100 100 100 58 94 6 54 3 0 0 0 0 0
100 100 100 100 100 100 100 100 100 100 100 100 100 100 100 100 100 100 100 100 100 100 100 100 100 100 99 100 98 100 100 100 100 100 100 83 100 96 91 18 35 1 2 0 0 2 4
100 100 100 100 100 100 100 100 100 100 100 100 100 100 100 100 100 99 100 100 100 100 100 100 100 100 100 100 100 100 100 100 100 100 100 100 100 99 76 82 99 90 8 4 2 5 5
98 100 100 100 100 100 100 100 100 100 100 100 100 100 100 100 100 99 100 100 100 100 100 100 100 100 95 100 100 100 99 100 100 100 100 100 100 99 84 99 91 68 55 19 5 38 6
100 100 100 100 100 100 100 100 100 100 100 100 100 100 100 100 100 100 100 100 100 100 100 100 100 100 100 93 100 85 85 100 100 100 100 100 100 98 100 70 100 68 26 56 84 42 23
100 100 100 100 100 100 100 100 100 100 100 100 100 100 100 100 100 100 100 100 100 100 100 100 100 100 100 100 98 100 100 95 77 100 72 100 43 55 30 84 100 94 100 69 96 99 92

GFSGBSN_prec_cloud_018.txt.gz
Cloud_Cover
5 42 0 1 49 100 100 100 100 100 100 66 86 100 100 80 73 45 7 0 0 0 11 0 0 0 0 40 0 7 1 0 2 1 3 10 22 4 14 5 90 97 48 20 3 0 15
22 6 67 0 0 20 100 100 100 100 100 99 100 98 73 17 84 65 5 4 3 5 4 0 0 0 15 44 0 6 40 4 1 76 3 6 87 8 33 60 30 10 99 38 100 24 16
67 5 5 33 0 49 52 100 100 100 100 100 95 83 86 96 100 82 16 5 5 5 5 1 4 8 80 5 0 0 68 0 0 4 33 44 99 99 99 48 99 39 85 58 5 61 61
88 71 11 48 5 4 45 100 100 100 100 100 100 97 29 33 100 24 97 6 99 53 5 5 5 40 100 5 4 2 0 0 4 1 19 55 100 96 22 100 92 76 90 90 0 30 46
76 62 100 100 26 15 74 15 100 100 100 100 100 100 100 100 49 28 100 27 45 29 77 5 8 17 34 85 5 5 5 2 5 27 86 76 58 76 96 56 68 36 8 3 3 12 96
100 68 99 100 98 63 100 19 81 86 85 100 100 100 100 100 100 71 73 6 9 60 100 78 35 80 6 76 11 40 11 36 18 73 98 36 39 28 18 100 72 17 52 3 5 0 5
80 100 100 100 100 100 45 48 84 48 53 100 100 100 100 100 100 100 14 28 41 77 100 72 100 72 23 5 39 82 87 31 86 69 100 100 100 100 100 26 3 4 5 6 0 5 42
100 100 100 100 100 100 100 84 43 82 98 100 100 100 100 54 60 76 28 100 69 88 100 100 100 100 76 51 100 100 97 67 100 100 100 100 62 95 77 30 11 63 86 21 6 77 67
100 100 100 100 100 100 100 81 38 5 96 100 100 100 100 76 96 94 98 48 100 72 100 100 100 98 99 98 91 100 100 100 100 100 94 79 78 40 8 7 82 100 92 45 100 50 96
94 79 100 86 100 93 14 5 86 54 98 100 100 100 100 100 100 72 100 92 100 97 100 96 100 100 100 100 100 100 100 100 97 69 100 70 31 45 33 10 19 84 10 41 98 100 88
16 100 94 100 100 100 78 15 66 99 100 100 100 100 100 100 100 100 100 84 100 100 100 84 100 76 99 100 100 100 100 100 100 100 97 62 100 40 17 12 5 20 11 22 39 100 99
62 100 86 98 100 100 100 100 100 100 99 100 100 100 100 100 100 100 100 99 100 100 74 61 93 96 98 100 100 100 100 100 100 100 96 100 66 28 11 99 10 81 100 100 100 100 90
33 100 97 62 100 100 100 85 95 100 100 100 100 100 100 100 100 100 97 100 100 100 100 94 98 98 94 100 100 100 100 100 100 100 73 99 80 96 100 50 71 100 100 100 100 100 80
6 65 88 58 100 100 100 86 96 100 96 100 100 100 100 100 100 100 100 100 100 100 100 100 100 100 100 100 100 100 100 100 86 32 90 89 99 100 100 64 99 100 100 100 100 76 65
82 68 100 51 100 100 100 100 89 98 99 100 100 100 100 100 100 100 100 100 85 100 100 100 100 100 100 95 97 56 100 96 100 100 100 100 100 100 78 98 100 100 100 100 100 98 4
92 100 100 93 100 100 100 100 100 100 100 100 100 100 100 100 100 100 100 100 100 100 100 100 100 100 63 79 93 85 92 89 100 100 100 100 100 90 100 100 100 100 100 100 100 36 24
100 100 100 99 100 100 100 100 100 100 100 100 100 100 100 100 100 100 100 100 100 100 100 100 100 100 99 99 75 100 88 100 100 100 100 100 100 100 100 100 100 100 100 100 100 84 70
100 100 100 100 100 100 100 100 100 100 100 100 100 100 100 100 100 100 100 100 100 100 100 100 100 99 90 100 88 100 89 100 100 100 100 100 100 100 100 100 100 100 100 98 100 100 99
100 100 100 100 100 100 100 100 100 100 100 100 100 100 100 100 100 100 100 100 100 100 100 100 100 48 5 100 99 99 87 100 100 100 100 100 100 100 100 100 100 100 100 89 28 21 99
100 100 100 100 100 100 100 100 100 100 100 100 100 100 100 100 100 100 100 100 100 100 100 100 100 50 72 100 100 100 100 100 100 100 100 100 100 100 100 100 100 100 100 100 100 26 5
100 100 100 100 100 100 100 100 100 100 100 100 100 100 100 100 100 100 100 100 100 100 100 100 100 44 5 97 97 100 100 100 100 100 100 100 100 100 100 100 100 100 100 100 100 100 72
34 100 100 100 100 100 100 100 100 100 100 100 100 100 100 100 100 100 100 100 100 100 100 100 96 100 32 67 95 98 100 100 100 100 100 100 100 100 100 100 100 100 100 100 100 95 99
37 100 100 100 100 100 100 100 100 100 100 100 100 100 100 100 100 100 100 100 100 100 100 100 100 90 96 96 100 100 100 99 100 100 100 100 100 98 99 90 93 100 100 100 100 100 96
5 86 100 100 100 100 100 100 100 100 100 100 100 100 100 100 100 100 100 100 100 100 100 100 100 100 99 100 100 87 100 100 100 100 96 76 77 65 84 34 6 4 11 77 90 21 15
5 100 100 100 100 100 100 100 100 100 100 100 100 100 100 100 100 100 100 100 100 100 100 100 100 100 53 100 100 100 100 100 68 97 100 100 98 88 5 5 31 5 5 32 88 42 0
92 99 100 100 100 100 100 100 100 100 100 100 100 100 100 100 100 100 100 100 100 100 100 100 100 100 100 100 99 100 100 100 100 100 100 100 74 87 56 52 5 20 5 0 1 4 0
97 100 100 100 100 100 100 100 100 100 100 100 100 100 100 100 100 100 100 100 100 100 100 100 100 100 100 100 99 97 82 99 94 100 89 100 94 53 100 79 93 99 74 6 22 2 2
100 100 100 100 100 100 100 100 100 100 100 100 100 100 100 100 100 100 100 100 100 100 100 100 100 100 100 100 100 100 100 100 100 100 93 100 100 100 100 100 100 67 33 84 84 59 12
100 100 100 100 100 100 100 100 100 100 100 100 100 100 100 100 100 100 100 100 100 100 100 100 100 100 100 100 100 100 100 100 100 99 64 100 100 100 100 100 100 100 68 95 89 67 83

GFSGBSN_prec_cloud_021.txt.gz
Cloud_Cover
99 11 66 5 5 5 0 99 100 100 100 100 100 100 100 100 98 100 51 100 100 100 5 5 5 5 0 26 24 0 0 0 0 0 0 1 5 3 0 0 0 0 0 1 0 0 0
100 57 39 27 5 5 6 30 100 100 100 100 100 100 100 100 100 100 100 98 96 100 5 5 5 6 4 56 0 0 0 0 0 0 0 0 4 4 4 2 14 4 4 5 0 0 0
100 100 39 60 26 5 5 54 15 100 100 100 100 100 100 100 100 100 100 100 100 96 90 24 8 11 5 2 0 0 0 0 0 0 2 70 6 46 39 9 4 8 54 31 3 3 5
100 100 100 60 12 59 71 6 34 100 100 100 100 100 100 100 100 100 100 100 93 97 14 5 5 58 19 2 0 0 0 0 0 0 0 2 91 22 96 29 5 5 11 5 3 3 5
100 100 99 100 95 44 19 5 17 100 100 100 100 100 100 100 100 100 100 100 100 100 94 19 19 100 38 5 0 0 0 0 0 0 0 0 1 4 8 93 15 62 26 20 4 0 5
100 100 100 97 100 100 61 100 9 22 88 55 100 37 100 100 100 100 100 100 100 100 81 100 86 73 5 24 5 0 5 5 5 5 13 4 2 4 5 42 100 87 100 12 4 0 7
100 100 100 97 94 100 77 54 49 32 77 100 100 100 16 6 27 100 100 100 100 100 100 87 100 60 36 5 5 5 5 2 0 6 46 9 9 95 5 5 5 5 5 13 5 4 0
100 100 100 92 97 89 100 100 10 87 29 5 86 94 97 34 84 39 96 79 100 100 100 100 84 89 82 100 96 51 26 8 63 100 9 45 82 7 5 5 26 16 28 18 36 5 28
100 100 100 100 100 100 100 100 99 6 32 44 100 98 100 100 94 99 100 100 70 100 100 100 99 100 100 86 100 100 99 90 55 88 36 9 33 100 89 93 83 54 37 86 86 7 23
100 100 100 100 82 45 100 100 100 62 5 57 100 100 100 100 92 98 100 100 100 100 100 86 100 100 100 100 100 100 100 98 100 100 100 54 100 100 100 59 93 52 96 94 86 69 98
100 100 87 85 74 8 70 100 100 100 32 94 100 100 100 100 69 100 23 100 100 100 98 39 100 100 100 100 100 100 100 100 100 75 100 15 17 100 44 40 100 8 60 5 39 36 100
100 88 5 61 100 100 100 96 100 100 100 30 100 100 100 100 100 93 41 100 97 98 81 68 91 58 88 100 100 100 100 100 100 100 100 61 98 100 100 100 100 40 5 5 12 89 100
100 100 94 6 100 98 92 88 100 100 100 100 99 100 100 96 100 96 78 95 91 100 82 73 94 96 65 100 100 100 100 100 100 100 100 100 100 100 100 87 47 5 34 77 37 100 39
100 86 100 38 90 34 98 77 100 100 100 100 100 96 100 100 100 100 100 93 100 100 53 99 100 100 100 100 99 100 100 100 100 100 100 100 100 99 100 55 32 28 6 38 30 6 9
42 98 97 99 100 96 100 100 100 100 100 100 100 100 100 100 100 100 100 100 100 60 100 100 100 100 100 100 100 100 100 100 87 100 91 71 96 10 12 98 76 97 100 10 93 69 100
88 100 100 100 100 100 100 100 100 100 100 100 100 100 100 100 100 100 100 100 100 100 100 100 100 100 99 100 79 100 31 9 90 41 100 100 97 92 100 100 100 100 37 63 100 100 100
93 10 100 100 100 100 100 100 100 100 100 100 100 100 100 100 100 100 100 100 100 100 100 100 100 100 100 64 22 8 61 25 6 89 100 100 100 100 100 100 100 100 100 100 100 100 100
91 94 100 100 100 100 100 100 100 100 100 100 100 100 100 100 100 100 100 100 100 100 100 100 100 100 100 100 26 22 48 99 100 100 100 100 100 100 100 100 100 100 100 100 100 100 100
75 100 94 100 100 100 100 100 100 100 100 100 100 98 100 100 100 100 100 100 100 100 100 100 100 100 100 92 82 87 92 100 100 100 100 100 100 100 100 100 100 100 100 100 100 100 100
22 100 97 100 100 100 100 100 100 100 100 100 89 100 100 100 100 100 100 100 100 100 100 100 100 100 87 87 92 100 100 100 100 100 100 100 100 100 100 100 100 100 100 100 100 100 99
22 82 83 100 100 100 100 100 100 100 100 100 97 100 100 100 100 100 100 100 100 100 100 100 100 100 17 54 70 100 100 100 100 100 100 100 100 100 100 100 100 100 100 100 100 100 100
54 28 100 100 100 100 100 100 100 100 100 100 100 100 100 100 100 100 100 100 100 100 100 100 100 100 7 42 58 100 100 100 100 100 100 100 100 100 100 100 100 100 100 100 100 92 100
35 6 95 100 100 100 100 100 100 100 100 100 100 100 100 100 100 100 100 100 100 100 100 100 100 100 45 72 90 91 100 100 100 100 100 100 100 100 100 100 100 100 100 100 95 100 100
93 6 80 96 100 100 100 100 100 100 100 100 100 100 100 100 100 100 100 100 100 100 100 100 100 100 100 83 54 100 100 100 100 100 100 100 96 100 100 100 100 100 98 99 98 68 100
22 99 100 100 100 100 100 100 100 100 100 100 100 100 100 100 100 100 100 100 100 100 100 100 100 100 100 100 99 100 100 100 100 100 100 100 100 94 100 100 100 100 69 81 100 41 30
5 96 100 97 100 100 100 100 100 100 100 100 100 100 100 100 100 100 100 100 100 100 100 100 100 100 100 100 100 100 86 96 100 56 76 100 100 68 95 70 97 7 32 30 5 5 5
5 27 79 100 100 100 100 100 100 100 100 100 100 100 100 100 100 100 100 100 100 100 100 100 100 100 100 100 100 100 71 99 92 85 96 100 100 84 78 86 5 5 5 5 5 1 5
5 49 99 83 100 100 100 100 100 100 100 100 100 100 100 100 100 100 100 100 100 100 100 100 100 100 100 100 100 100 100 79 95 77 81 86 100 100 80 84 69 8 95 5 16 5 16
6 80 100 100 100 97 100 100 100 100 100 100 100 100 100 100 100 100 100 100 100 100 100 100 100 100 100 100 100 100 100 77 62 99 9 54 92 100 99 91 90 100 98 95 45 5 5

GFSGBSN_prec_cloud_024.txt.gz
Cloud_Cover
100 100 100 100 100 100 99 6 71 60 100 100 100 100 100 100 100 100 100 100 100 100 100 100 100 100 100 61 38 5 4 0 0 0 20 4 0 0 0 0 0 0 0 0 0 0 0
100 100 100 100 100 100 100 6 92 100 100 98 100 100 100 100 100 100 100 100 100 100 100 100 100 100 100 99 5 5 5 1 0 0 2 0 0 1 4 0 0 0 0 0 0 0 0
100 100 100 100 100 100 100 80 8 85 53 100 89 100 100 100 100 100 100 100 100 100 100 100 100 100 100 12 37 13 5 0 0 0 0 0 0 3 53 4 3 0 0 0 0 0 0
100 100 100 100 100 100 100 100 13 5 43 98 100 100 100 100 100 100 100 100 100 100 100 100 100 100 100 100 100 14 9 0 0 0 0 31 86 74 80 47 5 4 2 1 0 0 0
100 100 100 100 100 100 100 100 99 6 5 45 100 64 100 100 100 100 100 100 100 100 100 99 100 100 100 100 36 7 99 5 0 0 1 52 100 56 18 83 80 12 23 3 1 0 0
100 100 100 100 100 100 100 100 100 94 24 56 52 64 93 86 100 100 100 100 100 100 100 100 100 100 100 100 100 41 82 13 5 0 0 3 16 97 12 53 73 88 5 5 5 0 0
100 100 100 100 100 98 100 100 100 100 100 35 19 57 100 100 100 38 100 100 100 100 100 100 100 100 100 100 100 78 56 5 5 4 3 5 11 38 5 0 4 5 12 5 5 5 4
100 100 100 100 100 100 85 100 100 98 80 100 8 70 99 100 100 100 24 35 8 80 99 100 100 100 100 100 100 100 11 4 1 5 5 52 68 5 2 5 5 6 7 9 5 5 52
93 100 100 100 86 100 45 3 67 63 94 100 68 5 54 100 100 99 100 91 5 21 82 100 48 48 100 100 100 100 30 16 69 63 57 26 8 5 5 5 8 9 65 76 85 5 4
96 15 100 100 95 35 7 18 6 87 100 100 100 7 38 100 100 37 100 68 6 52 72 100 98 83 100 100 100 100 97 100 100 66 100 100 61 24 6 12 55 20 7 6 23 56 43
94 100 100 100 100 57 59 21 1 94 100 100 100 97 100 100 49 16 18 5 8 59 5 100 73 100 100 100 100 100 78 100 100 52 99 76 60 100 38 90 100 17 96 76 6 8 81
74 100 100 100 89 100 82 100 16 14 100 100 100 100 100 100 37 95 100 100 80 53 70 62 100 92 100 100 100 100 100 100 100 100 96 86 99 81 34 100 67 39 68 100 62 80 72
100 100 100 100 100 100 66 76 30 60 85 100 100 100 99 97 31 90 100 100 87 74 63 79 82 57 97 100 100 100 92 100 100 100 100 100 96 79 100 100 100 100 100 100 100 99 28
88 100 78 76 100 100 100 100 100 75 76 41 100 100 100 88 64 100 100 100 93 56 6 44 78 100 100 100 99 98 99 100 100 100 100 100 100 100 100 100 100 100 100 100 98 63 1
15 53 17 91 100 100 100 100 97 58 84 100 100 100 100 100 100 100 98 100 45 22 23 100 100 100 100 100 84 95 100 96 77 95 100 97 78 100 100 100 100 100 100 99 100 74 92
43 4 51 97 97 100 100 100 100 100 100 100 100 100 100 100 100 100 100 85 30 40 58 89 100 100 100 100 100 100 68 12 92 99 92 66 94 66 69 55 93 98 81 100 100 76 5
65 53 60 100 100 100 100 100 100 100 100 100 100 100 100 100 100 100 100 97 85 9 60 100 100 100 100 100 86 100 13 0 0 7 20 100 89 91 88 100 100 100 100 99 40 6 54
7 94 99 100 100 100 100 100 100 100 100 100 100 100 100 100 100 100 100 100 97 92 81 100 100 100 100 100 96 42 5 6 28 96 100 100 100 97 100 100 100 100 100 100 100 68 66
5 71 66 71 72 100 100 100 100 100 100 100 100 100 100 100 100 100 100 100 100 100 100 100 100 100 100 100 98 15 73 91 100 100 100 100 100 100 100 100 100 100 100 100 100 100 100
5 31 5 22 76 100 100 100 100 100 100 100 100 100 100 100 100 100 100 100 100 100 100 100 100 100 100 100 92 29 100 100 100 100 100 100 100 100 100 100 100 100 100 100 100 100 100
12 18 5 31 100 100 100 100 100 100 100 100 100 100 97 100 100 100 100 100 100 100 100 100 100 100 98 100 82 100 100 100 100 100 100 100 100 100 100 100 100 100 100 100 100 100 100
43 5 55 82 100 100 100 100 100 100 100 100 100 100 96 100 100 100 100 100 100 100 100 100 100 100 100 94 55 100 100 100 100 100 100 100 100 100 100 100 100 100 100 100 100 100 100
43 5 94 98 95 100 100 100 100 100 100 100 100 96 100 100 100 100 100 100 100 100 100 100 100 100 100 72 91 99 99 100 100 100 100 100 100 100 100 100 100 100 100 100 100 100 100
14 5 55 77 82 100 99 100 100 100 100 100 100 99 100 100 100 100 100 100 100 100 100 100 100 100 49 100 41 81 97 100 100 100 100 100 100 100 100 100 100 100 100 100 100 100 100
65 5 78 5 100 98 90 100 99 100 100 100 100 100 100 100 100 100 100 100 100 100 100 100 100 100 75 100 93 100 100 100 100 100 100 100 100 100 100 100 100 100 100 100 87 83 100
100 38 39 5 5 98 100 99 100 100 100 100 100 100 100 100 100 100 100 100 100 100 100 100 100 100 41 100 100 100 100 100 100 100 100 100 100 99 100 100 100 100 28 78 5 29 3
100 86 7 5 13 100 100 100 100 100 100 100 100 100 100 100 100 100 100 100 100 100 100 100 100 100 100 100 100 100 100 90 76 100 100 100 96 100 100 96 84 60 21 8 5 1 5
100 96 5 5 52 99 100 100 100 100 100 100 100 100 100 100 100 100 100 100 100 100 100 100 100 100 100 100 100 100 100 84 81 100 58 90 94 40 55 38 61 50 5 5 12 11 5
7 86 5 5 7 100 100 100 100 100 100 100 100 100 100 100 100 100 100 100 100 100 100 100 100 100 100 100 100 99 99 92 31 84 92 90 94 28 55 52 5 5 31 5 5 18 50

GFSGBSN_prec_cloud_027.txt.gz
Cloud_Cover
40 17 100 100 100 100 100 100 100 100 100 100 100 100 98 6 6 98 100 100 100 100 100 100 100 100 88 75 58 100 100 5 5 35 33 95 0 0 0 0 0 0 0 0 0 0 0
100 100 100 100 100 100 100 100 100 100 100 100 100 100 100 18 46 100 100 100 100 100 100 100 100 100 100 69 100 100 100 72 44 5 45 48 2 0 2 1 1 0 0 0 0 0 0
100 100 100 100 100 100 100 100 100 100 100 100 100 100 98 95 70 100 100 100 100 100 100 100 100 100 100 100 100 100 99 100 100 100 6 6 16 5 55 5 4 2 0 0 0 0 0
100 100 100 100 100 100 100 100 100 100 100 100 100 97 97 97 99 100 100 100 100 100 100 100 100 100 100 100 100 100 100 100 100 100 8 12 20 28 100 84 45 48 4 4 0 0 0
57 100 100 100 100 100 96 100 100 100 100 100 100 100 96 97 89 99 100 100 100 100 100 100 100 100 100 100 100 100 100 100 100 100 100 93 99 100 100 100 99 100 29 4 5 0 0
21 10 80 100 100 100 100 96 100 100 100 100 100 100 100 91 100 10 97 100 100 100 100 100 100 100 100 100 100 100 100 100 100 100 100 60 98 100 100 100 88 84 91 16 5 3 0
34 100 98 64 100 100 100 100 53 30 100 100 100 100 100 100 81 99 47 100 100 100 100 100 100 100 100 100 100 100 100 100 100 100 100 13 54 38 9 72 48 9 29 32 24 9 1
65 100 100 100 100 56 100 100 99 21 4 100 100 100 100 75 100 100 100 46 94 100 100 100 100 100 100 100 100 100 100 100 100 100 100 19 60 43 4 1 3 5 60 38 23 5 5
100 100 100 100 100 100 100 95 22 70 5 68 94 100 100 100 92 100 100 91 4 34 99 100 68 99 100 98 100 100 96 99 92 100 100 98 96 100 5 5 5 5 53 97 48 14 3
86 99 100 100 99 57 27 61 54 70 33 2 100 100 100 100 100 100 100 100 5 16 63 36 51 69 98 83 96 100 71 33 44 26 42 93 98 32 5 6 10 96 5 5 5 23 54
36 8 70 100 100 48 5 79 100 100 100 25 88 100 100 100 100 100 98 94 59 31 7 19 57 51 100 96 49 8 48 98 99 100 81 58 8 5 5 39 99 64 89 21 32 10 16
25 26 24 90 47 76 98 100 100 99 100 14 100 100 100 100 100 100 82 59 77 70 69 94 99 98 100 100 99 70 54 99 100 100 100 73 46 18 5 78 72 97 100 100 100 72 95
61 46 73 82 72 83 100 100 95 57 5 2 100 100 100 100 47 100 60 97 97 89 75 73 100 98 100 98 96 100 80 99 100 100 100 100 100 88 28 100 100 100 100 100 100 100 73
6 88 83 17 85 98 100 100 97 100 98 11 89 100 100 100 100 100 100 87 86 16 95 100 69 48 87 16 53 64 97 97 100 100 100 94 98 100 41 60 100 100 100 100 100 49 5
5 34 44 63 96 100 100 100 100 99 59 28 100 100 100 100 100 100 72 100 18 100 100 100 99 98 99 100 99 93 100 100 76 96 100 98 52 5 6 99 54 100 100 100 100 100 100
5 12 47 60 81 100 100 100 100 100 97 80 100 100 100 100 100 100 100 29 78 100 100 71 26 98 100 100 94 99 68 81 51 42 88 85 95 5 18 72 100 100 100 100 100 100 98
5 33 5 38 38 100 100 100 100 100 100 99 100 100 94 100 100 100 100 98 100 100 100 72 98 100 89 73 100 100 100 53 60 4 58 100 98 56 80 98 97 100 100 91 92 86 99
5 55 18 69 35 92 100 100 100 100 100 100 100 100 100 100 100 100 100 85 24 12 13 22 95 100 100 100 100 100 73 26 4 31 100 100 100 100 100 100 100 100 100 100 100 100 29
7 7 29 24 5 20 99 97 100 100 100 100 96 100 100 100 100 100 100 95 100 87 49 100 100 100 100 100 100 93 100 46 100 100 100 100 100 100 100 100 100 100 100 100 100 100 65
38 69 23 24 5 98 89 100 100 100 100 100 100 100 100 100 100 77 100 89 100 100 96 100 100 100 100 100 100 84 100 100 100 100 100 100 100 100 100 100 100 100 100 100 100 100 84
91 7 95 56 11 100 100 100 100 100 100 100 100 100 100 100 100 69 97 100 100 100 96 100 100 100 100 100 100 100 100 96 98 100 100 100 100 100 100 100 100 100 100 100 100 100 100
48 6 94 5 56 93 100 100 100 100 100 100 100 100 100 100 100 96 93 100 100 100 100 100 100 100 100 100 90 100 100 100 100 100 100 100 100 100 100 100 100 100 100 100 100 100 100
60 29 99 14 11 52 100 98 49 100 100 100 100 100 96 100 100 100 100 100 100 100 100 100 100 100 100 100 97 92 72 100 100 100 100 100 100 100 100 100 100 100 100 100 100 100 100
98 100 100 42 5 5 99 100 100 100 100 100 100 100 100 100 100 100 100 100 100 100 100 100 100 100 100 96 81 62 100 99 100 100 100 100 100 100 100 100 100 100 100 100 100 100 100
100 100 100 99 5 5 100 100 100 100 100 100 100 100 100 92 100 100 100 100 100 100 100 100 100 100 94 100 73 96 100 100 100 100 100 100 100 100 100 100 100 100 100 100 100 100 100
88 100 99 97 5 11 100 100 100 100 100 100 100 100 100 100 100 100 100 100 100 100 100 100 100 100 100 100 99 98 100 100 100 100 100 100 100 100 100 100 100 100 100 100 100 100 100
97 77 30 57 5 5 98 52 83 100 100 100 100 100 100 100 100 100 100 100 100 100 100 100 100 100 74 100 100 100 95 92 98 100 97 79 100 100 100 100 100 100 100 100 100 79 60
83 71 5 10 6 63 86 100 66 92 100 100 100 100 100 100 100 100 100 100 100 100 100 100 100 100 100 100 100 100 100 88 92 93 99 86 95 100 86 35 7 13 6 40 24 5 98
47 78 5 5 5 5 12 100 81 100 100 100 100 100 100 100 100 100 100 100 100 100 100 100 100 100 100 98 100 100 89 31 93 88 100 92 88 94 85 80 95 93 96 86 94 44 5

GFSGBSN_prec_cloud_030.txt.gz
Cloud_Cover
100 100 100 100 100 100 100 100 100 100 100 100 100 100 100 100 100 100 100 100 97 44 74 98 43 100 100 100 99 100 53 61 67 53 100 92 34 0 2 0 0 0 0 0 0 0 0
100 100 100 100 100 100 100 100 100 100 100 100 100 100 100 100 100 100 100 76 5 5 8 3 4 66 86 100 100 100 96 24 63 96 89 76 100 23 7 1 1 11 0 0 0 0 0
28 58 13 97 100 100 100 100 100 100 100 100 100 100 92 100 100 100 98 90 5 5 10 30 100 99 100 100 100 100 100 100 18 12 59 100 100 73 59 5 4 11 4 0 0 0 0
0 0 0 94 36 100 100 94 100 99 100 100 100 100 100 100 100 100 100 96 68 74 87 100 100 100 100 100 100 100 100 100 100 78 39 92 100 100 100 76 88 97 87 32 0 0 0
2 0 28 100 100 96 100 100 56 99 84 100 100 100 100 100 100 100 95 100 100 100 100 100 100 100 100 100 100 100 100 100 100 100 53 58 85 79 100 100 55 65 80 48 26 4 1
96 52 100 100 9 76 100 100 100 60 68 58 100 100 100 100 100 100 97 100 100 75 98 100 100 100 100 100 100 100 100 100 100 100 96 66 88 85 96 100 100 100 38 100 100 24 5
98 100 100 14 5 18 100 100 28 96 11 9 6 100 100 100 100 100 100 100 100 98 96 98 100 100 100 100 100 100 100 100 100 100 100 100 100 100 100 100 89 49 80 100 100 24 23
96 94 47 44 96 30 100 96 64 46 84 3 6 13 100 100 100 100 100 100 67 94 100 62 90 100 100 100 100 100 100 100 100 100 100 100 100 100 100 72 31 98 100 100 75 4 1
20 100 18 17 52 92 100 46 95 98 100 61 51 11 100 100 100 100 100 100 31 24 100 100 100 100 100 100 100 100 100 100 100 100 100 100 100 77 5 5 5 5 5 5 6 4 2
100 22 24 9 4 4 42 13 58 66 72 30 60 24 92 100 100 100 100 100 100 100 12 92 99 100 100 100 100 83 92 80 38 7 5 21 27 5 5 5 12 79 5 5 5 42 83
8 13 33 42 6 27 30 100 93 100 100 99 75 8 13 100 100 100 100 100 100 100 63 25 51 88 97 100 100 100 32 95 76 55 6 9 5 10 78 9 58 48 36 47 7 56 84
41 64 5 20 5 21 43 100 72 100 99 100 22 5 62 100 100 100 100 100 100 100 78 76 94 100 100 99 100 87 99 87 97 100 100 64 49 89 20 19 92 81 99 100 100 97 95
15 5 5 22 65 31 58 98 100 100 100 70 77 7 32 100 100 100 100 100 100 99 92 99 100 100 100 100 100 100 95 100 100 100 100 100 94 100 100 73 98 100 100 100 100 100 50
100 5 5 12 93 39 23 100 100 100 100 99 5 1 47 100 100 100 100 100 78 72 100 100 100 100 100 100 100 100 100 100 98 100 100 99 69 93 97 39 10 66 100 100 100 32 8
88 6 21 72 95 100 100 100 100 100 100 100 92 31 100 100 100 100 100 99 44 89 100 100 100 100 92 54 92 100 100 97 93 57 100 90 66 5 25 9 34 97 100 50 100 100 100
52 6 39 80 38 100 30 100 100 100 100 100 91 100 100 100 100 100 100 100 92 100 100 100 100 100 97 100 100 100 100 34 40 72 86 100 91 5 11 62 94 94 50 93 100 100 98
100 9 13 31 5 29 29 72 100 100 100 100 100 100 100 100 100 100 100 80 100 100 100 100 96 39 97 100 100 100 100 22 32 4 60 100 98 99 100 89 88 100 100 100 96 98 88
87 37 99 99 5 5 24 89 100 100 100 100 100 100 100 100 100 100 100 80 100 98 74 70 12 71 99 100 100 100 23 6 15 24 70 91 100 100 100 100 100 100 100 100 100 100 100
41 38 100 100 22 5 20 99 100 100 100 100 100 100 100 100 100 100 100 100 78 31 31 74 93 51 76 97 99 91 20 89 99 77 100 100 100 97 58 100 100 100 100 100 100 100 100
24 52 99 100 8 27 5 96 99 99 95 100 100 100 100 100 100 100 100 82 45 26 100 81 84 100 100 100 100 76 98 100 100 100 100 100 100 98 92 100 100 100 100 100 100 100 100
72 21 83 100 54 23 8 68 100 100 100 100 100 100 100 100 100 98 100 88 100 60 43 85 100 100 100 100 100 100 99 100 100 100 100 100 100 100 100 100 100 100 100 100 100 100 100
59 80 100 100 48 5 80 100 100 100 100 100 100 100 100 100 95 100 94 100 100 99 92 100 100 100 100 100 100 100 100 100 100 100 100 100 100 100 100 100 100 100 100 100 100 100 100
78 82 98 24 5 5 12 100 100 100 100 100 100 100 100 100 100 100 100 100 100 100 100 100 100 100 100 100 100 100 100 100 100 100 100 100 100 100 100 100 100 100 100 100 100 100 100
99 99 100 97 17 5 5 100 98 100 100 100 100 100 100 100 100 100 96 100 97 100 100 100 100 100 100 98 95 100 100 100 90 100 100 100 100 100 100 100 100 100 100 100 100 100 100
80 48 100 83 56 5 27 100 100 100 100 100 100 100 100 100 100 97 100 100 100 100 100 100 100 100 100 94 100 100 100 100 100 85 100 100 100 100 100 100 100 100 100 100 100 96 100
41 58 46 82 8 5 39 96 100 100 100 100 100 100 100 96 98 100 100 100 100 100 100 100 100 100 100 100 100 100 100 100 92 98 100 100 100 100 100 100 100 100 100 100 100 92 100
42 98 5 6 5 5 5 99 100 100 100 100 100 100 94 100 100 100 100 100 100 100 100 100 100 100 100 100 98 100 100 100 80 95 100 100 100 100 100 100 100 100 100 100 100 75 94
51 5 11 3 5 7 92 24 100 100 100 100 100 100 100 100 100 100 100 100 100 100 100 100 100 100 100 99 100 100 99 100 90 86 95 100 93 100 100 100 100 100 100 97 96 100 100
5 5 65 5 4 5 53 100 100 100 100 100 100 100 100 100 100 100 100 100 100 100 100 100 100 100 91 100 100 100 85 98 100 80 86 90 74 86 84 96 98 100 100 100 100 100 100

GFSGBSN_prec_cloud_033.txt.gz
Cloud_Cover
42 26 0 24 48 92 100 100 100 100 100 100 100 100 56 100 100 100 86 100 100 100 100 100 100 100 70 93 81 29 12 27 75 100 92 55 27 42 38 5 3 0 0 0 0 0 0
0 2 1 0 97 100 65 100 100 100 92 100 100 100 100 100 100 100 100 100 100 100 100 100 100 100 100 90 100 27 11 29 30 70 100 100 81 83 96 5 5 4 0 0 0 0 0
0 0 0 29 100 100 100 100 100 100 100 97 100 100 100 100 100 100 100 100 100 100 100 100 100 100 100 100 99 100 56 53 86 100 100 100 98 93 65 29 5 5 5 5 4 0 0
0 3 0 1 71 98 3 100 100 59 100 100 99 100 100 100 100 100 100 100 100 100 100 100 100 100 100 89 95 100 97 100 100 100 100 100 100 93 53 91 34 30 68 63 5 0 0
92 8 62 5 6 4 5 66 100 100 18 50 65 100 100 100 100 100 100 100 79 74 66 49 91 99 56 80 73 100 100 100 100 100 100 100 100 100 36 79 19 75 69 100 29 10 3
100 100 99 97 36 2 4 5 100 90 84 32 41 54 100 100 100 100 100 100 100 100 100 100 100 100 81 39 45 24 66 91 100 100 100 100 100 100 100 62 11 16 78 100 100 100 100
90 100 100 100 100 36 5 2 100 38 13 46 5 34 16 100 100 100 100 100 100 100 100 100 100 28 53 100 100 100 100 100 100 100 100 13 99 100 100 100 100 76 5 30 62 100 100
100 100 100 100 100 42 31 29 69 37 54 100 76 55 75 73 100 100 100 100 100 100 96 63 93 73 100 100 100 100 100 100 100 100 100 96 100 100 100 100 100 84 84 85 85 100 59
98 100 100 37 48 49 15 27 5 14 30 86 100 21 64 4 97 100 100 100 100 100 53 97 100 100 99 100 100 100 100 100 100 100 100 100 100 100 100 86 58 94 64 21 16 5 0
9 53 16 26 5 6 4 11 5 66 68 98 100 97 100 100 81 100 100 100 100 100 100 84 100 83 96 100 100 100 100 90 100 94 70 70 67 21 21 77 100 100 100 22 5 47 89
88 24 8 33 5 82 4 7 51 71 100 93 8 93 81 100 100 100 100 100 100 100 100 52 66 100 100 84 100 70 54 99 100 100 100 100 100 98 100 99 34 44 13 20 5 33 100
54 100 84 19 5 4 3 29 46 99 100 100 100 40 56 100 86 79 100 100 100 98 99 100 81 100 100 100 99 71 100 99 70 98 93 46 66 54 5 5 13 58 46 61 45 86 95
100 100 84 5 5 5 4 32 62 100 100 100 100 19 100 100 14 100 100 100 100 58 100 100 100 100 100 100 100 100 100 100 100 99 96 92 49 44 63 67 43 94 100 83 99 100 42
39 34 83 5 18 17 32 7 39 100 100 100 100 67 23 43 88 100 100 100 100 100 100 100 100 100 100 100 100 100 100 100 100 100 95 81 97 43 92 96 59 52 85 51 42 23 7
100 100 49 43 7 7 5 1 74 100 100 100 98 64 12 12 100 100 100 100 72 100 100 100 100 100 100 100 100 100 100 99 100 100 83 99 99 63 7 5 84 99 99 38 100 17 100
100 100 44 31 56 4 4 5 97 100 100 100 100 100 100 9 100 100 100 100 90 100 100 100 100 100 100 100 100 100 100 100 100 100 100 97 57 5 5 38 30 94 78 90 100 93 100
100 85 50 29 34 29 15 5 100 95 100 100 84 87 94 98 99 100 100 100 96 100 100 100 100 100 100 100 100 100 100 100 100 100 88 100 79 23 72 97 94 100 100 100 99 93 98
98 98 82 39 44 52 5 11 75 92 100 100 100 96 100 100 100 100 100 100 100 100 100 100 100 100 100 100 100 100 100 100 100 100 74 34 97 73 100 91 93 8 77 100 100 100 100
100 87 77 24 14 13 30 5 36 87 100 100 83 100 100 100 100 100 100 100 99 100 97 67 77 100 100 100 100 100 100 100 95 25 5 66 99 100 100 98 93 82 100 100 100 100 100
100 21 64 69 100 59 5 5 66 100 100 100 100 100 100 100 100 100 100 100 99 18 99 100 83 100 100 100 100 100 100 100 7 5 81 100 100 79 31 82 100 100 100 100 100 100 100
42 57 47 93 99 79 5 5 47 100 100 100 100 100 100 100 100 100 100 100 100 91 8 84 80 100 100 100 100 100 100 91 96 100 98 99 100 75 96 98 100 100 100 100 100 100 100
63 5 5 5 99 61 5 8 100 100 100 100 100 100 100 100 100 100 99 68 75 78 24 95 75 100 100 100 99 82 58 98 100 100 99 100 100 100 100 100 100 100 100 100 100 100 100
62 75 38 12 4 5 5 13 98 100 100 100 100 100 100 100 100 100 98 86 100 100 72 64 99 51 100 99 99 90 74 47 100 100 100 100 100 100 100 100 100 100 100 100 100 100 34
17 64 5 36 4 5 5 5 100 100 100 100 100 100 100 100 100 100 99 100 100 100 100 85 100 100 100 100 100 79 96 100 100 100 100 100 100 100 100 100 100 100 100 100 100 100 100
16 40 95 5 5 5 5 5 98 100 100 100 100 100 100 100 100 100 79 97 100 100 100 100 100 100 100 100 100 100 100 100 100 100 99 100 100 100 100 100 100 100 100 100 100 100 100
100 91 5 5 0 5 5 5 98 100 100 100 100 100 100 96 90 100 100 100 100 100 100 100 100 100 100 100 100 100 100 100 100 100 100 100 100 100 100 100 100 100 100 100 100 100 100
6 20 7 5 5 5 5 5 24 90 91 100 100 100 100 100 92 100 99 100 100 100 100 100 100 100 100 100 100 100 100 100 98 96 100 100 100 100 100 100 100 100 100 100 100 100 100
5 5 5 20 4 5 5 76 6 84 100 90 100 100 100 68 88 100 100 100 100 100 100 100 100 100 100 100 100 100 100 99 94 97 100 100 100 100 100 100 97 100 100 100 93 100 100
5 5 2 2 5 5 5 5 6 100 100 100 100 100 100 100 100 100 100 100 100 100 100 100 100 100 100 100 100 100 100 87 94 67 90 96 91 99 94 78 100 100 98 83 100 100 100

GFSGBSN_prec_cloud_036.txt.gz
Cloud_Cover
2 55 4 0 97 100 100 100 100 100 100 100 100 100 77 100 91 100 100 100 100 100 100 98 95 100 98 51 62 28 5 43 91 100 98 100 93 91 81 42 63 100 100 16 5 3 0
5 0 0 0 6 1 6 6 40 100 100 100 100 100 92 100 100 84 100 100 92 63 100 91 59 100 100 100 90 100 64 26 70 93 100 100 100 100 100 84 24 100 71 13 44 5 3
0 3 5 0 15 36 18 91 4 23 100 100 94 79 100 100 100 100 97 100 100 100 98 58 62 49 100 100 100 97 72 63 69 78 82 86 94 100 95 94 54 56 56 9 5 5 5
98 100 53 92 44 5 0 2 4 5 100 96 46 14 66 100 100 100 100 100 100 100 100 100 100 100 96 100 100 100 100 89 50 90 74 100 100 100 100 31 10 5 64 45 11 5 24
88 100 100 93 100 21 67 30 3 1 100 72 36 70 12 11 100 100 100 100 100 100 100 100 100 100 100 100 100 100 100 100 100 100 100 99 64 80 70 55 46 21 5 31 77 11 6
100 100 100 64 78 78 76 97 63 4 21 7 78 5 6 6 46 100 100 100 100 100 100 100 100 100 100 100 100 100 100 100 100 100 100 100 76 88 79 39 26 5 7 5 10 46 5
100 100 95 100 100 43 7 4 75 3 4 5 100 100 99 74 5 100 100 100 100 100 100 100 100 100 98 100 100 100 50 75 77 100 100 100 100 100 100 100 100 100 100 45 62 31 8
100 48 83 16 33 49 34 6 5 4 5 21 100 100 100 91 29 84 100 100 100 100 100 100 100 86 97 72 58 5 6 56 55 93 100 100 100 100 100 100 100 100 100 64 80 73 5
10 12 84 15 24 6 11 6 14 54 29 19 35 76 97 87 100 65 100 100 100 100 100 100 100 65 90 25 46 30 61 96 53 78 100 100 100 100 100 100 100 100 78 97 99 70 11
100 30 100 100 59 5 12 5 60 72 67 92 84 94 86 92 12 78 100 100 100 100 100 100 100 100 100 96 31 68 87 56 99 100 100 100 99 100 100 100 100 46 35 5 24 59 34
100 83 62 49 100 5 28 6 36 33 100 100 100 100 100 100 19 44 100 100 100 100 100 100 99 100 100 52 70 61 99 100 100 100 100 100 100 100 100 67 29 50 59 50 70 76 86
96 100 38 59 65 26 66 93 53 31 67 97 100 94 99 76 11 82 100 100 100 100 61 96 100 100 100 98 57 85 100 100 100 100 100 100 100 94 74 14 6 29 71 100 100 99 88
100 100 100 79 62 92 100 57 25 100 62 93 100 100 100 100 2 99 100 100 100 100 70 100 100 100 100 100 96 63 100 100 100 100 100 83 73 40 36 86 47 95 99 91 89 100 17
12 56 85 99 51 100 100 42 30 100 100 99 99 84 23 100 19 100 100 100 100 99 94 100 100 100 100 96 100 100 100 100 100 100 100 94 74 55 94 76 90 100 94 43 5 7 4
64 99 94 99 87 55 82 10 8 74 100 100 97 72 34 38 9 100 100 100 100 100 100 100 100 100 100 100 100 100 100 100 100 100 94 100 98 56 41 24 59 83 94 14 95 84 93
31 97 97 99 69 29 49 5 11 100 94 100 100 82 24 45 94 100 100 100 100 100 100 100 100 100 100 100 84 100 100 83 93 66 99 92 64 28 32 20 29 50 54 90 100 90 59
96 97 98 100 100 22 10 46 11 58 100 100 100 90 88 99 100 100 100 100 100 100 100 83 100 100 100 100 100 100 99 68 78 87 88 100 92 100 36 78 20 100 100 78 88 97 98
28 37 50 86 100 20 5 5 8 100 100 100 100 100 76 96 99 100 100 100 100 100 75 100 100 100 100 100 100 100 100 100 100 100 100 98 99 79 9 5 4 7 34 100 100 88 100
60 11 46 55 100 5 5 5 17 100 100 100 100 100 100 100 100 100 100 100 100 100 100 100 100 100 100 100 100 100 100 100 100 100 100 79 92 54 6 14 57 89 86 100 100 100 100
21 33 10 33 100 7 5 5 64 100 100 93 100 100 100 100 100 98 100 100 100 82 89 95 100 100 100 100 100 100 100 100 100 100 98 89 90 25 5 58 100 99 100 100 100 100 100
6 15 5 13 96 5 5 5 6 100 65 96 100 100 100 100 100 89 100 95 100 87 28 99 100 100 100 100 100 100 100 100 100 98 98 85 100 22 96 79 98 99 100 99 100 98 100
5 12 5 14 55 5 5 5 29 100 100 100 100 100 100 46 15 66 100 87 100 63 5 50 82 100 100 100 100 100 100 100 96 62 100 99 100 99 100 92 100 100 100 100 100 100 100
23 51 96 6 100 5 5 73 5 100 100 100 100 100 100 100 98 100 100 18 24 35 5 34 100 100 100 100 100 100 100 84 97 79 96 100 100 100 100 99 94 100 100 100 100 100 100
100 100 100 5 90 5 5 5 6 83 100 100 100 100 100 100 99 50 32 86 61 6 15 23 100 100 100 100 100 100 100 100 100 76 100 97 100 100 100 100 100 100 100 100 100 100 100
5 5 5 5 5 4 5 53 5 99 86 100 100 100 100 100 100 100 70 85 23 75 56 72 99 100 100 100 100 100 100 97 100 97 100 95 100 100 100 100 100 100 100 100 100 100 100
5 5 5 5 5 5 5 5 24 19 29 100 100 100 100 100 100 98 67 31 47 100 66 99 100 100 100 100 100 98 89 100 100 100 100 100 100 100 100 100 100 95 100 100 100 100 100
5 5 5 0 5 5 5 5 5 8 97 100 100 100 100 97 100 95 49 62 100 100 100 100 100 100 100 100 91 95 86 100 100 100 100 100 100 100 100 100 100 100 100 100 100 100 100
5 5 5 5 5 5 5 38 5 12 86 100 100 100 100 100 97 100 100 100 100 100 99 100 100 100 100 100 100 100 100 100 100 100 100 98 100 100 100 100 92 96 90 92 88 100 100
5 5 5 5 5 5 5 5 5 5 5 92 100 100 100 100 60 57 83 100 100 100 100 100 100 100 100 100 76 100 100 100 100 100 100 94 100 100 100 81 83 64 88 100 100 100 100

GFSGBSN_prec_cloud_039.txt.gz
Cloud_Cover
3 0 0 12 22 11 24 5 54 11 9 11 98 100 100 88 100 100 69 100 100 100 100 100 100 100 100 100 98 85 4 38 100 100 100 100 100 100 100 100 100 71 25 64 98 93 12
3 41 10 2 3 0 13 2 5 4 5 8 99 94 15 20 100 100 100 50 100 100 100 100 100 100 100 100 94 100 67 5 26 100 100 100 100 100 100 100 100 100 91 84 44 100 100
98 100 15 37 15 2 5 4 2 3 3 4 93 52 10 5 40 100 100 91 100 100 100 100 100 94 100 70 100 100 100 86 51 35 85 100 100 100 100 100 100 100 69 5 5 18 100
90 91 17 100 100 86 8 46 11 0 0 0 6 5 5 63 16 85 100 100 100 100 100 100 100 98 100 100 100 100 100 100 100 80 43 72 60 100 100 100 100 53 61 27 23 7 5
99 100 100 100 70 100 100 42 14 28 14 3 0 5 27 20 72 6 99 100 100 100 100 100 100 100 30 100 98 65 100 100 100 100 100 81 98 100 83 100 76 71 100 100 100 82 5
56 100 100 95 93 5 34 65 53 42 24 6 0 2 11 36 21 5 64 100 100 100 100 100 100 100 100 64 100 87 10 100 100 100 100 100 100 100 98 94 81 33 23 9 19 6 5
93 100 100 100 100 5 73 97 5 70 3 11 5 32 93 100 96 82 77 100 100 100 100 100 100 100 100 100 86 100 79 85 100 100 100 100 100 100 100 76 42 96 32 5 6 5 4
100 100 100 99 98 99 41 95 100 8 82 92 11 33 5 5 56 67 86 100 100 100 100 100 100 100 100 100 100 100 94 74 100 100 100 100 100 100 100 100 100 100 77 5 5 5 4
87 95 100 72 11 22 71 100 68 84 99 32 65 100 100 52 24 32 17 100 100 100 100 98 100 100 100 100 100 100 100 85 100 100 100 100 100 100 100 100 100 100 100 85 26 5 5
97 40 100 100 43 28 98 100 99 84 100 17 72 100 100 100 66 54 39 100 100 100 100 100 100 100 100 100 100 100 100 100 100 100 100 100 100 100 100 100 100 100 100 100 100 97 80
100 98 88 94 21 98 96 97 87 46 7 81 39 100 100 100 100 74 19 100 100 100 100 100 99 100 100 100 100 100 98 59 91 100 90 33 5 26 65 7 85 100 100 100 100 100 97
73 99 90 92 100 50 96 99 33 56 5 22 93 100 100 92 40 30 52 100 100 100 100 100 100 100 100 100 100 95 100 82 54 100 95 72 82 83 100 97 100 100 100 100 100 98 88
100 99 96 82 100 85 100 100 13 9 67 100 100 100 100 90 68 68 100 100 100 100 94 100 100 100 100 100 100 100 100 100 32 94 100 79 100 79 63 41 71 96 90 68 74 100 5
99 98 75 79 100 100 60 52 5 66 89 91 37 94 60 60 82 77 100 100 100 100 96 83 100 100 100 100 100 100 100 100 100 80 100 95 100 100 100 74 57 100 98 9 5 5 4
88 86 31 73 68 43 88 5 5 5 72 56 100 76 68 20 82 100 100 100 100 96 93 100 100 100 100 100 100 100 100 100 86 100 94 96 73 31 98 66 67 80 98 15 97 30 37
94 48 77 7 55 73 4 5 5 8 99 100 100 93 93 24 78 100 100 100 88 72 100 100 100 100 100 100 100 100 100 78 100 92 86 98 61 49 98 96 69 66 58 82 98 86 5
98 36 62 5 12 10 5 90 7 93 100 100 100 100 91 39 100 100 100 100 100 100 100 97 100 100 100 100 100 100 90 65 62 74 100 76 63 100 63 63 52 76 98 55 89 100 86
38 64 55 19 6 5 6 17 5 96 100 100 99 98 99 92 100 100 100 100 100 100 100 100 100 100 98 100 100 100 95 77 33 15 99 99 99 49 36 96 70 70 77 98 100 47 100
93 41 30 7 5 4 27 10 65 100 100 100 100 100 100 100 100 100 100 100 100 100 89 93 100 100 100 93 96 100 74 19 14 68 100 100 100 100 100 94 86 67 36 96 100 100 100
44 9 88 8 10 5 5 5 76 100 100 100 100 100 100 100 100 100 100 100 100 100 100 100 100 100 100 100 98 96 94 100 100 100 100 100 100 100 100 66 68 73 99 100 100 100 95
100 88 76 8 5 5 5 5 19 70 95 94 80 100 100 100 100 100 100 100 99 100 76 40 100 100 100 100 99 67 98 100 100 100 100 100 100 88 71 24 40 97 99 100 100 100 100
100 100 100 16 5 2 5 5 28 95 77 96 100 100 89 99 100 100 100 94 100 89 6 8 95 100 100 100 99 94 100 100 100 98 100 82 96 100 98 40 94 99 100 100 100 100 100
12 5 5 5 8 1 5 5 4 97 93 100 100 100 100 100 100 100 97 94 92 61 99 100 100 100 100 100 100 100 100 98 100 82 78 100 100 100 96 99 80 89 100 100 100 100 100
6 5 5 5 5 1 5 5 4 5 90 100 100 100 99 100 100 100 99 100 58 94 99 100 100 100 100 100 100 100 100 100 90 85 100 100 100 100 100 94 95 100 100 100 100 100 100
7 5 5 5 0 0 5 5 1 6 97 100 100 100 100 100 92 100 97 99 63 16 41 100 100 100 100 100 100 100 100 100 82 70 100 94 100 100 100 100 44 93 99 55 66 100 100
5 5 5 5 5 5 5 5 0 2 30 84 100 100 100 100 63 78 96 100 100 100 95 90 87 100 100 100 100 100 100 98 100 100 99 100 100 100 99 100 78 67 48 36 46 100 100
5 5 5 5 5 5 18 5 5 5 24 94 100 100 100 100 100 100 99 94 97 84 74 100 96 94 100 100 100 100 100 67 93 100 96 100 100 100 100 98 100 100 100 98 100 100 100
5 5 5 5 5 5 5 5 5 5 5 79 100 100 100 100 100 56 62 52 64 91 100 100 100 100 100 100 100 100 98 95 95 100 98 99 100 100 100 100 87 90 99 49 77 99 100
10 5 5 5 5 5 5 5 5 5 5 8 100 100 100 100 97 100 99 100 100 100 100 100 100 100 99 100 100 100 74 45 71 100 100 100 99 100 100 100 93 98 97 97 59 41 100

GFSGBSN_prec_cloud_042.txt.gz
Cloud_Cover
37 69 100 100 24 0 5 5 4 3 6 33 7 28 100 100 50 53 85 100 100 93 96 100 100 100 100 100 62 100 14 78 100 100 100 100 100 100 100 100 100 100 100 100 100 90 100
100 96 84 97 100 81 52 4 2 0 0 3 5 30 100 8 34 11 16 100 100 99 100 100 100 100 100 100 100 100 100 55 12 100 100 100 100 100 100 100 100 100 100 100 100 100 100
100 100 98 100 100 86 98 11 37 34 5 30 3 2 48 0 4 5 14 100 100 100 100 52 100 100 80 100 100 100 100 100 100 87 93 100 100 100 100 100 100 100 100 100 100 100 78
43 100 100 99 100 92 100 5 72 88 15 31 5 4 0 0 0 5 45 6 100 100 100 100 100 100 100 100 100 100 100 100 89 98 94 100 100 100 100 100 100 100 100 100 100 100 100
100 100 61 48 64 84 82 12 91 91 99 8 11 5 0 0 28 75 5 4 81 100 100 100 100 96 100 100 100 100 100 100 100 100 100 100 96 100 100 100 100 100 100 100 100 100 100
100 100 97 49 4 65 67 91 82 100 99 7 13 62 50 46 45 100 18 2 92 100 100 100 100 99 100 100 100 100 100 100 100 100 100 100 67 9 77 100 100 100 100 100 100 100 100
100 100 100 100 100 67 70 97 100 100 93 41 35 57 6 14 19 10 49 3 46 100 100 100 100 100 100 100 100 100 100 100 100 80 100 100 100 100 48 29 79 100 100 100 100 100 95
100 100 68 83 47 32 87 88 99 98 100 51 38 76 85 100 100 26 18 100 100 100 100 100 100 84 100 100 100 100 100 100 100 100 100 100 100 100 100 100 88 38 30 16 5 7 4
87 100 100 76 62 95 81 95 100 90 59 30 50 100 100 100 100 55 13 38 100 100 100 100 100 93 100 100 100 100 100 69 100 100 100 96 100 100 100 100 61 27 6 6 8 5 5
100 100 87 100 64 98 100 100 100 100 29 5 5 100 97 88 100 100 11 8 100 100 100 100 100 97 100 100 100 100 100 51 80 100 100 67 100 100 100 100 100 100 97 99 26 5 33
100 86 69 96 42 89 98 66 24 28 5 8 88 20 12 50 99 100 81 34 100 100 100 100 100 97 100 97 100 100 100 100 94 41 100 100 44 98 100 100 100 89 100 100 100 100 100
100 100 77 41 9 80 62 16 15 23 66 32 75 100 60 80 89 38 14 100 100 100 100 100 98 99 96 100 100 100 100 100 100 100 100 98 100 100 100 100 100 100 100 100 98 99 90
99 95 54 56 5 14 40 19 29 5 5 5 6 96 28 66 100 15 51 100 100 100 100 100 100 100 99 100 100 100 100 100 100 100 100 100 100 95 100 100 100 100 100 100 96 91 42
100 93 96 40 31 7 22 5 13 49 14 6 100 83 23 90 100 55 100 100 100 100 100 100 100 100 100 100 100 100 100 100 100 100 100 100 100 100 100 96 85 100 98 5 5 5 9
100 22 96 73 6 12 20 44 63 84 100 100 84 50 100 94 100 38 100 100 100 93 100 100 100 100 100 100 100 100 100 100 100 72 62 99 98 40 98 54 90 84 63 23 84 35 9
100 18 81 71 54 5 5 7 6 94 100 100 100 94 100 66 57 99 100 100 100 100 100 100 98 100 100 100 100 100 100 100 100 100 68 100 91 41 100 100 84 80 50 71 51 60 10
99 66 90 69 5 6 5 9 34 100 100 45 58 94 74 66 94 100 100 100 100 100 100 100 52 74 97 100 100 100 100 99 100 100 100 99 81 67 91 42 14 40 94 92 77 50 5
100 66 63 97 19 90 5 5 94 100 96 98 85 99 92 73 97 100 100 100 100 100 100 75 72 100 100 100 93 100 100 100 65 72 100 100 99 100 7 5 5 91 41 18 87 5 40
100 100 43 5 5 60 5 5 100 100 100 77 100 96 98 100 100 100 100 100 100 99 100 92 100 100 100 100 100 100 96 51 62 45 92 98 92 23 91 82 98 21 5 5 37 93 94
100 100 100 69 27 42 5 5 70 100 97 19 92 100 100 100 100 100 100 100 100 100 100 50 94 92 100 100 100 100 100 67 44 8 100 56 99 44 44 20 25 7 8 84 100 100 52
43 97 42 5 5 5 5 5 5 100 7 50 82 100 95 100 100 100 100 100 100 100 19 46 98 100 100 100 100 99 100 60 39 54 5 6 58 40 8 5 5 5 41 98 100 97 100
69 18 5 6 5 4 5 5 5 12 5 13 100 100 90 50 100 100 100 94 98 83 93 100 100 100 100 100 100 100 100 33 52 66 83 88 94 94 5 16 8 9 55 88 100 100 100
92 10 5 5 5 5 11 7 3 23 96 90 92 100 100 98 100 74 87 40 87 94 100 71 100 100 100 100 100 100 69 42 100 78 100 96 59 14 58 73 8 23 77 78 92 86 100
100 93 6 5 3 5 5 5 4 7 98 100 100 100 100 94 100 87 99 100 100 95 98 100 100 100 100 100 100 100 69 33 71 78 68 60 94 100 100 72 73 98 87 51 83 91 100
34 100 10 5 5 5 5 5 5 5 95 100 100 100 100 99 100 94 100 100 100 86 100 100 100 100 100 100 100 100 100 90 71 63 77 95 97 100 91 81 68 80 78 59 100 100 100
55 100 34 5 5 5 5 5 5 5 24 100 100 100 100 100 98 86 100 100 100 82 88 100 100 100 100 100 100 100 100 100 100 100 96 100 100 100 100 96 100 100 88 94 100 100 96
100 96 43 5 5 5 5 5 5 5 5 93 100 100 100 100 100 74 100 90 97 100 100 100 100 100 100 100 100 100 100 100 100 100 100 100 100 100 100 97 28 100 100 100 90 41 65
100 37 8 27 5 5 5 5 5 7 5 74 100 100 100 100 100 65 47 10 96 81 100 68 97 100 100 100 100 100 100 100 100 86 100 93 99 100 100 100 69 54 89 70 63 5 99
100 100 55 10 5 7 5 22 15 12 5 8 100 100 100 100 100 98 97 99 96 90 92 97 92 87 100 100 100 100 100 100 100 100 90 69 100 100 100 100 71 80 66 51 97 48 5

GFSGBSN_prec_cloud_045.txt.gz
Cloud_Cover
98 100 100 100 100 100 100 71 84 5 46 8 4 5 4 15 100 5 82 82 99 100 55 91 100 100 100 100 100 100 100 100 100 100 100 100 100 100 100 100 98 62 41 97 100 66 5
100 92 100 100 100 100 100 61 49 18 89 94 95 67 5 77 49 0 42 42 8 100 58 100 100 100 100 100 100 100 100 100 100 92 100 100 100 100 100 100 95 99 100 81 99 100 94
81 100 100 100 90 41 84 8 67 86 88 100 100 73 66 5 0 2 6 5 3 93 90 100 100 99 88 100 100 100 100 100 100 100 100 100 100 100 100 100 100 100 100 100 100 100 100
100 100 100 100 100 100 42 4 78 79 100 100 98 100 100 11 5 3 4 1 3 24 100 100 100 71 89 100 100 100 100 100 100 100 100 99 100 100 100 100 100 100 100 100 100 100 100
100 100 100 98 90 91 95 43 46 100 100 95 98 100 12 5 91 11 93 45 0 2 100 100 100 89 79 87 100 100 100 100 100 100 100 100 100 100 100 100 100 100 100 100 100 100 99
98 100 100 85 52 86 70 67 27 98 65 92 75 9 5 5 71 53 5 98 5 6 100 100 100 98 14 96 100 100 100 100 100 100 100 100 100 100 100 100 100 100 100 100 100 100 100
100 100 100 100 97 54 70 100 93 7 56 37 5 5 39 70 93 45 7 25 4 5 99 100 100 99 100 100 100 100 100 100 100 100 100 100 74 100 99 100 100 100 100 100 100 100 100
100 93 100 98 40 77 11 24 5 5 28 17 5 9 100 57 97 100 61 23 58 98 100 100 100 100 100 97 100 100 100 97 100 100 100 99 100 100 100 100 87 100 100 100 100 100 100
100 100 100 26 5 46 11 45 5 5 5 2 1 42 54 22 84 100 100 5 24 100 100 100 100 100 100 100 100 100 100 100 100 100 100 100 100 100 74 85 100 79 94 100 100 100 100
100 100 86 100 10 5 5 19 9 12 5 5 48 13 5 5 73 96 54 12 12 100 100 100 100 100 82 99 100 100 100 100 100 100 100 100 100 100 100 100 99 49 78 95 87 100 100
99 100 73 70 78 7 21 46 4 5 21 100 92 12 30 19 42 84 99 4 100 100 100 100 100 100 96 100 100 100 100 100 100 100 100 100 100 100 100 98 31 24 44 86 25 12 5
17 100 100 30 60 6 65 11 8 5 35 100 100 100 52 78 100 91 100 88 100 100 100 100 100 98 95 100 97 100 100 100 100 100 100 100 100 100 81 56 29 100 100 23 13 7 44
100 100 100 61 100 63 5 5 13 5 72 62 94 97 100 81 99 20 83 100 100 100 100 100 100 83 100 100 100 100 100 100 100 100 100 100 97 100 62 12 9 77 100 94 54 93 69
100 100 63 67 100 5 5 18 7 78 98 97 100 72 86 97 95 20 100 88 100 100 100 100 96 100 100 100 100 100 100 100 100 100 100 100 75 95 100 100 99 60 38 93 81 92 100
100 100 100 71 21 9 12 5 7 98 99 100 24 95 60 73 38 96 97 100 100 100 99 100 100 100 100 91 100 100 100 100 100 100 100 100 100 100 14 78 6 11 99 100 100 100 99
100 100 100 75 15 18 12 5 17 100 76 71 60 68 33 91 94 98 100 100 100 100 99 100 90 100 98 96 100 100 100 100 100 100 100 100 100 100 100 100 100 55 86 100 100 87 42
100 100 100 100 5 63 5 5 71 100 100 99 51 100 76 98 100 100 100 100 100 100 100 100 96 100 100 100 100 100 100 100 100 100 100 100 100 100 95 84 100 97 90 58 17 6 34
100 100 100 100 5 5 4 5 73 100 100 93 43 98 100 100 100 100 100 100 100 100 100 95 100 96 51 67 90 97 100 100 100 100 92 99 100 96 6 13 71 91 44 41 47 56 46
100 100 100 100 5 5 3 3 100 98 100 19 100 100 86 100 100 100 100 100 100 100 100 100 100 77 100 99 51 99 93 96 100 100 100 99 93 44 93 94 90 83 5 5 62 67 17
100 100 83 100 19 5 5 0 52 5 71 17 56 100 100 100 100 100 100 100 100 99 96 76 94 100 95 98 80 82 91 100 100 100 100 77 89 45 12 31 41 40 30 13 85 96 18
100 100 28 100 45 5 22 3 6 92 5 96 51 37 89 100 100 100 100 100 96 97 66 83 98 100 100 100 100 100 100 91 52 87 93 86 5 5 13 70 81 5 5 52 69 73 100
100 100 100 100 54 50 5 5 1 5 14 35 86 95 93 92 82 100 98 100 83 59 86 75 95 100 100 100 100 100 100 74 100 99 53 59 36 97 99 25 5 5 18 100 100 65 84
100 100 100 100 8 97 7 21 0 5 88 100 100 82 99 5 6 45 49 5 38 60 87 55 96 100 100 100 100 100 100 99 97 89 73 100 88 40 5 5 8 57 100 97 100 53 71
100 100 100 100 67 97 60 9 5 5 86 100 100 100 100 12 5 18 30 5 25 97 100 100 97 100 100 100 100 100 100 98 68 99 80 100 100 33 53 14 100 100 89 16 84 100 67
100 100 100 100 100 100 5 5 5 5 61 100 100 100 100 96 68 5 74 8 75 83 100 100 100 100 100 100 100 100 100 100 92 100 100 89 40 88 78 93 100 91 95 97 69 100 63
100 100 100 100 100 80 5 5 5 5 11 100 100 100 100 100 26 24 96 100 89 58 100 100 100 100 100 100 100 100 100 96 100 100 100 100 86 66 99 93 100 65 100 57 100 100 7
100 100 100 100 97 97 37 4 5 5 3 99 100 100 100 100 92 96 97 100 100 100 100 100 100 100 100 100 100 100 100 83 89 100 100 100 100 100 100 100 86 5 74 100 95 76 54
100 100 100 100 88 98 29 33 31 7 5 40 100 100 100 100 98 100 100 68 99 100 96 100 100 100 100 100 100 100 100 100 100 97 100 100 98 100 100 100 100 29 71 75 10 15 43
100 100 100 100 94 100 42 83 81 74 43 17 100 100 100 100 77 66 92 99 71 98 96 62 99 58 100 100 100 100 100 100 100 100 100 89 87 100 100 91 100 5 5 5 7 7 31

GFSGBSN_prec_cloud_048.txt.gz
Cloud_Cover
100 93 100 44 56 100 72 76 40 78 40 80 100 100 100 96 5 3 1 13 5 38 83 42 93 100 100 100 100 100 100 100 100 100 100 100 100 100 100 100 100 100 100 100 100 78 5
100 94 100 76 93 100 98 100 26 5 61 99 100 100 100 100 71 3 2 4 5 3 3 71 56 100 100 100 100 100 100 100 100 100 100 100 100 100 100 100 100 100 100 100 100 98 95
100 52 58 99 31 11 100 100 39 28 4 10 40 72 100 100 26 5 61 2 32 13 0 8 58 100 83 100 100 100 100 100 100 100 100 100 100 100 100 100 100 100 100 100 100 100 100
100 100 100 91 82 100 85 59 61 52 5 59 21 22 39 25 77 78 10 10 54 4 0 85 100 100 46 100 100 100 100 100 100 100 100 100 100 100 100 100 100 100 100 100 100 100 93
100 99 98 100 100 83 100 67 95 17 5 5 5 5 68 5 64 53 5 47 99 5 0 35 100 100 100 83 100 100 100 100 100 100 100 100 100 100 100 100 100 100 100 100 100 100 100
100 89 86 46 81 50 91 86 20 31 8 18 5 4 5 75 80 90 70 5 14 38 0 97 100 100 100 94 100 100 100 100 100 100 100 100 100 100 100 100 100 100 100 100 100 100 100
100 100 100 100 44 84 91 25 100 24 74 45 5 5 8 5 78 100 28 23 3 34 16 100 100 100 99 100 67 100 100 100 100 100 98 100 100 100 100 100 100 100 100 100 100 100 99
100 98 95 42 33 100 89 8 57 67 9 11 43 8 2 36 5 85 30 84 5 77 70 100 100 100 100 100 100 100 100 100 100 100 100 100 100 100 100 100 100 100 100 100 100 100 99
100 100 15 5 7 91 48 38 85 5 83 96 72 100 99 6 4 6 10 75 35 31 96 100 100 100 100 100 62 97 100 100 100 100 100 100 100 100 100 100 99 98 100 100 100 100 100
100 100 100 17 7 100 97 39 92 18 91 11 8 34 100 100 74 15 92 97 5 92 100 100 100 100 86 100 53 100 98 100 100 100 100 100 100 100 36 94 100 100 100 100 100 100 100
100 100 100 10 47 63 75 73 34 100 87 98 7 32 90 69 100 82 77 14 67 100 98 100 100 100 99 96 62 100 100 100 100 100 100 100 100 100 100 100 100 100 100 100 97 95 100
100 100 100 78 71 100 29 99 6 10 100 100 98 57 95 96 100 81 59 100 97 100 100 100 100 100 100 78 54 100 100 100 100 100 100 100 100 100 100 79 98 100 100 100 100 78 97
100 100 100 90 100 100 89 100 5 97 99 72 100 77 80 99 92 46 93 100 94 100 100 100 100 100 100 100 100 96 100 100 100 100 100 100 100 100 100 100 100 100 75 84 100 99 97
100 100 100 99 100 39 18 6 39 94 100 37 98 5 86 98 86 89 100 100 100 97 98 100 57 86 100 100 100 100 100 100 100 100 100 100 99 100 100 100 100 100 44 39 79 49 5
100 100 90 100 100 40 27 5 34 100 86 78 20 42 98 96 33 100 100 100 100 100 100 100 100 100 100 97 100 100 100 100 100 100 100 100 100 100 100 100 92 58 38 90 96 21 47
100 100 77 100 100 49 18 5 81 100 63 18 6 43 83 100 100 100 100 100 100 97 100 77 93 94 100 100 100 100 100 100 100 100 100 79 99 100 99 100 100 100 100 56 28 17 5
100 100 94 100 100 88 7 11 99 100 19 3 5 48 100 100 100 100 100 100 100 100 98 100 100 100 100 100 100 100 100 100 100 100 100 100 100 100 100 100 95 96 94 100 18 5 58
100 100 100 97 100 58 62 5 14 95 5 4 92 100 100 100 100 100 100 100 100 100 80 99 89 49 94 100 100 100 100 100 100 100 100 100 100 62 79 91 60 90 46 11 39 84 66
100 100 100 100 100 89 27 4 5 98 28 23 19 82 100 100 92 100 100 100 100 100 86 100 100 100 100 100 90 100 100 100 100 100 100 100 76 92 100 100 100 100 100 99 91 69 60
100 100 100 100 100 100 42 3 5 5 28 3 45 21 12 94 100 96 100 100 96 64 100 100 100 100 100 100 100 100 100 100 100 100 100 100 100 100 100 95 40 17 8 25 14 74 46
100 100 100 100 100 100 39 6 90 4 1 8 41 20 65 100 80 99 43 91 98 55 100 100 100 100 100 100 100 100 100 100 100 100 100 100 100 100 100 53 6 14 17 6 17 30 74
100 100 100 100 100 100 62 6 100 9 0 25 45 86 99 99 100 68 10 24 39 41 76 100 100 100 100 99 98 98 100 100 100 100 100 100 99 100 46 42 7 5 34 14 5 63 79
100 100 100 100 100 100 100 43 100 90 8 99 95 80 99 67 7 14 68 72 77 100 100 100 100 100 100 100 100 100 100 100 100 100 100 100 96 64 18 46 75 65 24 29 73 83 100
100 100 100 100 100 100 100 100 100 90 30 98 100 100 83 23 5 5 5 5 100 100 100 100 100 100 100 100 100 100 100 100 100 100 100 100 100 96 99 84 59 23 66 31 65 98 20
100 100 100 100 100 100 86 100 100 100 61 100 100 100 100 93 5 26 11 7 10 86 91 100 100 100 100 100 100 100 100 100 100 100 100 100 94 86 66 89 11 87 94 78 8 45 34
100 100 100 100 100 100 62 100 100 99 5 99 100 100 100 100 5 19 29 45 5 5 41 93 94 100 100 100 100 100 100 100 100 100 100 100 100 97 100 93 99 100 91 5 5 56 23
100 100 100 100 100 100 85 99 100 88 5 66 100 100 100 100 13 9 99 84 22 14 25 84 100 96 100 100 100 100 100 100 98 100 100 100 100 91 99 78 85 78 58 7 90 94 9
100 100 100 100 100 100 100 100 100 62 6 39 100 100 100 100 94 89 58 9 46 85 100 99 80 95 97 100 99 100 100 100 100 100 100 99 100 98 100 100 100 72 40 65 100 48 38
100 100 100 100 100 100 100 94 100 99 100 74 62 100 100 100 98 93 100 100 80 96 95 100 95 99 97 100 53 98 100 100 100 100 100 100 62 71 98 100 56 62 90 33 13 5 54

GFSGBSN_prec_cloud_051.txt.gz
Cloud_Cover
100 100 100 100 100 78 20 97 76 100 80 52 5 16 49 100 96 100 29 5 8 14 27 2 19 75 100 100 100 100 100 100 100 100 100 100 100 100 100 100 100 100 100 100 100 100 100
100 100 100 45 99 83 100 53 91 86 80 74 5 13 5 5 51 72 51 5 59 13 66 8 93 100 100 100 100 100 100 100 100 100 100 100 100 100 100 100 100 100 100 100 100 100 88
15 100 84 26 100 100 92 98 100 6 27 78 14 58 5 5 70 48 87 97 100 5 11 5 98 100 100 100 100 100 100 100 100 100 100 100 100 100 100 100 100 100 100 100 100 100 100
92 92 86 100 70 70 42 100 69 43 56 16 4 56 5 0 5 19 25 100 92 6 62 0 63 100 100 100 100 100 100 100 100 100 100 100 100 100 100 100 100 100 100 100 100 100 100
84 89 83 100 100 20 51 100 92 100 12 63 18 5 4 1 66 96 100 98 5 5 84 0 83 100 100 100 95 100 100 100 100 100 100 100 100 100 100 100 100 100 100 100 100 100 100
46 47 18 14 41 79 77 100 99 59 94 21 5 5 7 0 3 44 100 75 54 1 10 1 35 100 100 100 100 100 100 100 100 100 100 100 100 100 100 100 100 100 100 100 100 100 100
91 5 50 12 100 78 100 100 100 92 40 98 100 86 50 58 5 5 92 29 27 4 3 4 82 100 83 100 100 100 100 100 100 100 100 100 100 100 100 100 100 100 100 100 100 100 100
19 16 100 100 100 84 100 100 100 99 81 100 43 100 97 100 100 9 48 47 53 49 56 40 100 100 100 92 100 78 100 100 100 100 100 100 100 100 100 100 100 100 100 100 100 100 100
27 26 100 100 100 100 80 100 96 91 85 9 95 100 97 67 100 92 6 92 29 28 83 100 100 99 96 80 100 100 100 100 100 100 100 100 100 100 100 100 100 100 100 100 100 100 100
92 100 91 99 100 100 60 99 100 70 10 87 84 100 97 99 46 89 5 56 5 48 70 100 100 100 100 96 99 100 77 100 100 100 100 100 100 100 100 100 99 100 100 100 100 100 100
100 97 100 100 100 100 26 100 38 4 91 73 100 100 100 100 100 100 42 5 39 97 65 61 100 100 100 85 97 97 100 93 100 100 100 100 100 100 100 100 100 100 100 100 100 99 100
88 24 91 100 77 100 85 100 6 96 92 100 100 83 98 82 96 100 28 68 93 96 100 100 100 100 100 100 77 100 100 100 100 100 100 100 100 100 95 82 80 100 100 100 64 89 100
86 86 63 100 100 100 97 79 56 100 100 83 90 32 68 45 77 72 88 48 93 100 95 100 100 93 100 77 87 100 100 93 100 100 100 100 100 100 100 100 100 50 50 100 100 99 100
12 76 90 100 100 100 69 61 100 100 54 51 6 5 99 67 5 55 50 76 100 100 100 100 99 96 96 100 100 100 96 100 100 100 100 100 100 100 100 100 100 8 52 69 44 68 68
5 87 99 100 100 100 79 100 49 88 5 5 5 14 100 100 19 60 100 100 91 87 100 100 100 100 100 100 100 98 100 100 100 100 100 100 100 100 100 100 100 58 87 100 96 99 100
5 36 100 100 100 100 60 100 22 98 6 5 40 95 100 100 100 76 100 100 100 100 100 25 89 91 99 100 99 100 100 100 100 100 100 100 100 100 100 100 100 99 99 100 95 67 100
5 40 100 96 100 100 79 100 7 99 76 0 2 7 20 19 29 46 62 100 100 88 62 97 100 100 100 100 100 100 100 100 100 100 100 100 100 100 100 100 100 100 100 100 100 100 100
11 100 100 90 100 100 93 96 0 100 100 5 5 49 94 72 31 100 100 100 98 97 99 100 84 85 98 100 100 100 100 100 100 100 100 100 100 100 100 100 100 100 100 100 94 60 43
5 90 100 100 100 100 99 62 3 76 100 38 36 86 70 50 66 98 100 100 91 86 46 100 100 100 96 84 68 100 100 100 100 100 100 100 100 100 100 100 100 100 96 98 94 93 88
5 20 100 100 100 100 89 45 7 28 19 20 12 18 23 100 100 100 100 44 43 98 100 100 100 100 100 100 99 88 100 100 100 100 100 100 100 100 100 99 82 92 58 37 54 80 13
5 95 100 100 100 100 100 10 51 36 2 6 28 93 96 74 93 91 56 36 6 92 91 100 100 100 100 100 100 100 100 100 100 100 100 100 100 100 100 100 100 100 88 100 100 100 22
5 99 100 100 100 100 100 100 93 5 41 34 90 96 35 100 91 25 18 5 5 50 92 100 90 100 100 100 100 100 100 100 100 100 100 100 100 100 100 100 100 100 100 87 24 99 32
57 98 100 100 100 100 100 100 100 5 96 100 100 86 99 5 6 5 17 10 30 100 100 100 100 95 100 100 100 100 100 100 100 100 100 100 100 100 100 80 90 100 97 75 21 14 92
98 80 100 100 100 100 100 100 100 73 51 100 100 100 90 16 5 5 5 63 8 80 99 100 100 100 100 100 100 100 100 100 100 100 100 100 100 100 99 86 71 14 5 15 53 19 37
99 100 100 100 100 100 100 100 100 94 100 100 100 100 100 98 45 5 5 5 5 5 62 72 99 100 93 86 100 100 100 100 100 100 100 99 100 99 91 100 54 53 78 80 83 72 89
81 28 100 100 100 100 100 100 100 100 100 100 100 100 100 100 5 13 17 18 7 5 5 53 89 100 100 100 100 100 100 100 100 83 100 100 100 73 100 98 59 71 78 84 59 80 97
36 82 81 100 100 100 100 100 100 100 100 100 100 100 100 100 11 39 26 20 5 5 5 29 100 95 100 100 100 100 100 100 100 99 100 100 100 100 100 89 33 89 95 36 93 53 59
69 99 91 100 100 100 100 100 100 100 98 100 100 100 100 100 70 71 51 18 5 73 47 17 57 76 99 100 100 100 100 100 100 100 98 100 100 100 87 100 95 95 91 92 90 96 90
100 75 100 100 100 100 100 100 100 100 100 100 83 92 100 100 96 93 100 98 77 60 97 100 67 99 94 85 99 100 100 100 99 94 50 92 95 79 67 65 91 97 83 100 84 90 99

GFSGBSN_prec_cloud_054.txt.gz
Cloud_Cover
100 23 95 71 63 100 100 100 98 93 100 99 100 100 15 5 5 4 1 23 100 100 67 5 34 84 100 100 100 88 100 100 100 100 100 100 100 100 100 100 100 100 100 100 100 100 100
93 100 89 22 100 98 76 40 99 100 68 100 95 80 5 5 0 0 4 7 75 22 70 5 5 100 100 100 96 100 100 100 100 100 100 100 100 100 100 100 100 100 100 100 100 100 100
3 100 95 12 100 90 19 94 97 60 100 98 5 5 17 5 4 4 4 77 97 86 78 29 7 70 100 100 94 100 100 100 100 100 100 100 100 100 100 100 100 100 100 100 100 100 100
100 84 99 39 50 23 30 90 28 90 99 100 99 31 14 7 5 12 5 16 100 100 6 6 20 65 100 92 100 97 100 100 100 100 100 100 100 100 100 100 100 100 100 100 100 100 100
100 100 38 100 84 18 72 77 70 81 88 100 100 98 98 100 10 4 5 100 78 100 84 94 54 74 100 96 100 100 100 100 100 100 100 100 100 100 100 100 100 100 100 100 100 100 100
100 100 100 100 100 33 100 100 100 96 94 32 49 95 76 100 93 18 46 33 63 45 55 62 41 94 51 56 99 100 100 100 100 100 100 100 100 100 100 100 100 100 100 100 100 100 100
94 100 100 100 100 83 33 92 96 42 100 100 59 19 100 100 100 92 88 5 4 38 10 5 10 100 30 8 100 100 100 100 100 100 100 100 100 100 100 100 100 100 100 100 100 100 100
100 95 80 100 100 97 18 85 68 86 61 9 5 68 100 99 72 42 5 61 91 42 57 29 91 100 86 56 100 100 100 100 100 100 100 100 100 100 100 100 100 100 100 100 100 100 100
100 100 62 100 100 52 14 33 98 83 12 33 7 88 100 100 100 48 6 24 33 47 69 99 98 100 100 100 100 100 100 100 100 100 100 100 100 100 100 100 100 100 100 100 100 100 100
100 6 61 100 100 54 28 85 100 71 92 100 94 100 100 100 100 100 57 7 5 5 11 69 100 100 100 100 100 100 100 100 100 100 100 100 100 100 100 100 100 100 100 100 100 100 100
88 3 64 92 100 97 29 100 80 91 92 99 100 8 91 5 96 100 17 5 4 52 61 73 100 100 100 98 100 100 94 100 100 100 100 100 100 100 100 100 100 100 100 100 100 100 100
78 3 100 83 14 97 55 100 100 93 47 9 5 5 5 5 69 44 44 5 23 64 93 100 100 100 100 98 100 100 81 66 100 100 100 100 100 100 100 100 100 100 100 100 100 100 100
8 6 100 89 21 98 100 100 78 100 55 5 6 6 4 5 5 5 4 14 100 93 72 100 100 100 100 100 80 98 100 100 100 100 98 100 100 100 100 100 100 100 89 96 100 100 100
5 62 97 18 91 100 97 100 53 99 17 5 6 17 80 72 5 95 100 100 76 89 95 100 100 98 100 96 98 97 100 100 100 100 100 100 100 100 100 100 100 54 43 87 81 100 100
5 83 100 37 79 71 95 99 53 100 2 5 5 3 100 100 6 23 79 55 100 100 100 99 100 94 100 100 100 100 100 100 96 100 100 100 100 100 100 100 100 100 100 96 71 100 100
5 91 100 50 100 5 86 100 98 100 36 0 4 5 5 37 9 32 59 100 100 97 94 86 91 74 99 100 100 100 100 100 77 64 100 100 100 100 100 100 100 46 55 100 90 23 68
5 51 100 8 100 28 53 36 100 83 100 0 0 4 60 97 5 15 100 100 100 46 27 97 100 100 100 100 100 100 100 100 100 100 100 100 100 100 100 100 100 100 100 100 100 100 92
90 98 100 79 98 97 17 99 100 96 89 5 2 6 8 7 16 100 100 100 100 99 7 15 55 40 93 87 92 79 97 100 100 100 100 100 100 100 100 100 100 100 100 100 100 100 100
100 22 100 81 94 99 68 100 100 100 100 75 0 5 5 6 94 100 91 33 12 5 15 31 71 76 93 94 45 52 100 100 100 100 100 100 100 100 100 100 100 100 100 100 100 100 97
100 10 100 100 77 97 100 100 100 100 36 48 0 40 10 96 100 100 100 26 5 9 82 78 97 100 100 99 84 99 100 100 100 100 100 100 100 100 100 80 94 100 100 100 100 100 100
5 57 49 100 58 100 99 100 71 100 76 18 8 92 93 33 85 94 96 48 5 5 6 92 100 98 81 16 100 100 100 100 100 100 100 100 100 100 100 100 100 100 100 100 100 100 100
5 86 56 92 98 98 98 100 100 86 100 19 43 98 92 98 98 83 83 42 7 28 65 63 83 73 40 89 100 100 95 80 100 100 100 100 100 100 100 100 100 100 100 64 39 59 5
15 16 80 62 75 98 99 99 100 100 100 99 99 99 96 5 5 5 5 30 16 10 28 87 87 15 60 100 96 98 100 100 100 100 100 100 100 100 100 100 100 99 100 76 7 21 60
32 62 98 63 54 100 94 100 100 100 100 98 100 100 100 31 5 5 5 5 5 5 5 38 69 42 93 90 100 100 90 92 100 100 100 100 100 100 100 100 100 100 100 88 82 92 100
98 64 97 8 55 89 100 100 100 100 100 100 100 100 100 100 28 5 5 5 5 7 43 6 18 66 27 12 77 89 97 75 93 100 87 100 100 100 100 88 90 100 75 69 92 94 84
100 100 46 31 25 99 100 100 100 100 100 100 100 100 100 100 97 5 26 8 5 5 20 82 40 30 40 94 58 40 68 11 81 99 100 100 93 85 99 90 80 24 26 92 82 84 71
100 97 13 8 82 80 94 100 100 100 100 100 100 100 100 100 100 69 55 97 35 5 5 65 77 86 64 99 100 100 100 75 85 67 98 98 98 99 91 98 7 26 90 78 77 28 67
100 69 40 5 24 77 100 100 100 100 100 100 100 100 100 100 100 90 77 97 39 5 5 5 70 76 99 100 100 100 100 98 92 98 80 86 92 92 94 94 54 44 79 97 76 78 95
52 52 5 18 61 90 100 99 100 100 100 100 100 100 100 100 100 85 79 33 72 8 5 10 28 95 92 96 100 100 95 100 98 98 93 78 49 99 25 37 83 94 98 99 88 100 42

GFSGBSN_prec_cloud_057.txt.gz
Cloud_Cover
22 47 6 86 99 100 100 6 81 71 46 34 95 100 100 50 1 4 0 1 3 0 3 36 10 5 11 50 76 74 94 97 100 100 100 100 100 100 100 100 100 100 100 100 100 100 100
100 96 100 100 100 89 10 75 61 5 5 85 99 100 94 97 25 5 38 46 2 5 95 97 72 5 5 98 84 100 100 100 100 100 100 100 100 100 100 100 100 100 100 100 100 100 100
100 100 100 100 100 7 13 23 75 79 74 43 100 96 98 100 100 96 100 5 31 43 62 9 95 99 31 100 68 100 92 100 100 100 100 100 100 100 100 100 100 100 100 100 100 100 100
7 100 100 89 100 100 71 60 98 99 78 62 95 89 100 100 100 100 100 39 33 66 96 100 32 93 86 97 100 17 99 87 100 100 100 100 100 100 100 100 100 100 100 100 100 100 100
61 55 100 100 100 100 95 84 34 84 100 100 74 96 95 100 100 100 100 100 90 100 72 91 97 93 5 10 66 60 100 73 100 100 100 100 100 100 100 100 100 100 100 100 100 100 100
63 100 67 93 100 100 86 43 64 100 100 100 13 7 14 84 100 100 100 100 89 16 8 8 100 95 10 8 39 100 100 91 100 100 100 100 100 100 100 98 100 100 100 100 100 100 100
28 93 66 100 100 100 100 100 88 100 100 100 99 5 39 12 100 100 100 16 16 25 38 18 98 59 8 5 78 100 100 100 100 100 100 100 100 83 100 100 100 100 100 100 100 100 100
100 71 85 81 100 100 94 86 95 74 85 99 85 100 100 100 100 100 100 17 96 18 56 45 67 100 100 52 100 100 100 100 100 100 100 100 100 100 100 100 100 100 100 100 100 100 100
99 4 1 37 100 85 88 99 41 66 74 35 63 60 84 32 91 100 60 10 30 49 70 81 68 100 100 97 100 100 100 100 100 100 100 100 100 100 100 100 100 100 100 100 100 100 100
100 6 16 12 98 100 100 100 99 79 52 6 21 36 51 5 30 87 9 5 5 20 85 60 100 100 92 72 100 82 100 100 100 100 100 100 100 100 100 100 100 100 100 100 100 100 100
29 2 1 13 48 13 32 100 96 9 53 3 85 78 5 5 100 92 16 4 33 71 75 96 92 100 100 100 100 100 100 100 100 100 100 100 100 100 100 100 100 100 100 100 100 100 100
6 8 1 43 18 59 94 97 100 72 3 0 6 46 11 12 22 72 4 83 56 5 96 100 100 100 100 100 69 64 100 100 100 100 100 100 100 100 100 100 100 100 100 100 100 100 100
5 6 40 3 5 6 89 100 100 100 4 30 4 5 14 57 82 60 80 14 5 50 100 100 100 100 100 93 100 82 100 100 100 100 100 100 100 100 100 99 100 100 100 100 100 100 100
5 38 43 0 5 5 54 100 34 100 88 0 2 5 27 5 7 15 27 22 29 92 95 100 100 100 100 98 99 100 100 100 100 100 100 100 100 100 100 100 98 100 100 100 100 98 100
5 44 57 0 5 3 5 17 5 100 100 1 0 5 5 5 5 7 30 59 98 100 100 98 100 97 90 65 98 82 100 95 100 100 100 100 98 90 100 98 100 100 98 100 100 100 100
5 68 9 5 5 3 4 5 11 100 100 35 0 5 5 5 5 26 64 100 100 90 33 5 56 19 85 100 88 100 92 93 100 100 92 100 100 99 100 100 100 100 96 61 87 100 98
5 79 43 3 3 4 5 4 100 100 100 0 0 1 5 5 5 41 100 100 97 62 5 5 23 77 100 100 96 100 100 100 100 100 100 100 100 100 87 78 100 100 100 86 86 72 53
5 62 99 24 5 5 5 4 51 94 77 8 0 5 4 4 23 100 100 100 7 5 1 5 5 5 29 6 62 72 100 100 100 99 100 100 100 100 82 100 100 100 100 100 100 100 100
4 24 85 73 6 5 5 5 39 93 100 70 4 5 3 0 88 62 38 36 16 5 5 6 36 70 99 94 96 80 89 57 91 20 98 100 100 100 100 100 100 100 100 100 100 99 87
43 5 90 92 21 5 2 5 6 42 70 7 1 16 4 5 12 42 97 29 5 5 5 5 5 6 54 43 61 99 100 84 92 89 100 100 100 100 100 100 100 100 100 100 100 100 100
20 5 8 94 98 5 5 5 23 77 53 78 39 51 75 67 23 74 99 53 5 5 5 6 13 7 11 10 54 49 42 68 97 72 100 100 100 100 100 100 100 100 100 100 100 97 100
16 5 10 57 100 5 5 5 5 5 100 99 78 95 91 14 88 59 55 5 5 5 5 5 5 9 5 25 10 100 5 52 62 90 100 100 100 100 100 100 100 100 100 80 100 100 95
14 6 5 7 84 90 5 5 5 29 78 100 100 100 96 96 33 5 5 5 5 5 30 36 42 69 15 6 90 92 73 100 100 100 100 100 100 100 100 100 100 100 97 71 100 100 100
8 54 62 5 34 100 5 5 5 5 73 99 100 100 97 74 90 100 22 5 5 5 22 93 87 71 55 46 22 96 58 75 100 100 100 100 100 100 100 100 100 100 100 100 100 100 63
8 99 100 68 5 73 12 5 5 93 75 100 99 100 100 100 82 51 100 65 5 5 5 5 58 100 91 94 94 98 97 97 100 97 100 100 100 100 98 81 32 15 14 44 47 57 67
100 99 100 34 5 19 62 7 5 57 100 98 100 100 100 100 100 21 91 100 100 61 22 5 5 80 100 86 92 84 92 80 100 100 100 100 100 70 72 56 31 59 76 86 90 100 100
100 100 100 22 5 6 5 11 45 42 96 80 100 100 100 100 100 95 100 100 100 100 91 5 5 5 83 98 86 94 95 83 87 96 94 100 100 100 100 81 54 94 100 100 100 100 100
100 100 88 5 5 5 18 11 5 45 85 90 100 100 100 100 100 100 100 100 100 95 6 7 5 5 15 100 96 100 92 97 93 97 87 81 100 100 95 81 99 85 78 96 100 100 100
100 100 89 6 5 5 5 60 63 88 94 100 98 99 90 99 100 100 100 100 100 96 75 37 5 5 5 31 100 86 63 100 87 100 100 80 45 69 15 16 61 65 94 100 96 95 100

GFSGBSN_prec_cloud_060.txt.gz
Cloud_Cover
98 81 93 84 17 19 0 97 100 29 100 7 10 45 90 100 99 47 60 100 95 100 89 28 2 1 4 88 14 61 6 100 100 41 61 100 100 96 100 100 100 100 96 100 100 100 100
24 98 100 53 78 14 91 89 100 100 96 52 97 40 63 100 98 100 100 100 100 100 27 4 0 4 20 88 2 95 100 100 99 92 55 100 100 100 100 100 100 100 100 100 100 100 100
100 94 100 74 99 100 62 58 5 14 86 31 80 17 7 26 99 100 100 100 100 100 3 34 88 93 75 4 3 76 99 99 77 98 48 100 100 100 100 100 100 100 100 100 100 100 100
99 100 100 74 45 82 100 100 15 16 69 83 60 24 6 5 10 88 60 44 100 100 20 88 100 98 36 75 100 50 100 97 83 91 94 100 100 100 100 100 100 100 100 100 100 100 100
75 100 64 8 8 29 100 32 100 43 30 92 51 100 46 5 5 16 100 100 95 98 6 54 100 98 65 10 36 99 100 100 87 38 100 100 100 100 100 100 100 100 100 100 100 100 100
74 100 16 14 86 100 72 46 99 40 98 22 98 99 100 100 95 77 86 100 96 5 23 49 60 95 83 4 84 100 100 100 75 98 100 100 100 100 100 100 100 100 100 100 100 100 100
99 65 0 2 100 100 100 56 38 76 74 100 100 63 73 95 100 100 98 100 45 38 73 24 98 100 20 9 100 100 47 99 96 97 100 100 100 100 100 100 100 100 100 100 100 100 100
92 30 0 1 75 96 48 59 75 33 100 38 97 23 7 5 88 84 100 51 5 11 49 83 93 99 83 99 100 100 100 97 98 99 100 100 100 100 100 100 100 100 100 100 100 100 67
12 5 5 91 4 24 96 76 94 99 95 25 69 54 13 6 96 82 24 9 5 5 72 38 100 99 100 84 100 100 100 100 100 90 100 100 100 100 94 100 100 100 100 100 100 100 100
87 4 27 54 6 14 48 93 100 100 98 13 14 5 12 5 9 8 9 5 33 87 100 100 100 82 98 100 100 100 100 100 100 100 100 100 100 100 100 100 99 100 100 100 100 100 100
11 5 3 62 5 2 88 80 100 100 100 22 7 100 41 0 13 95 48 69 45 100 100 100 100 100 66 79 99 100 100 100 100 100 100 100 100 100 99 98 100 100 100 100 100 100 100
15 5 20 2 4 4 0 92 100 100 100 100 2 2 5 16 3 55 6 5 8 74 99 100 100 100 100 100 100 100 100 100 100 100 100 100 100 100 100 100 98 100 100 100 100 100 100
0 1 55 0 5 5 1 3 36 99 100 88 19 5 2 5 5 5 5 61 30 67 94 100 100 100 93 100 100 100 100 100 100 100 100 100 100 100 100 100 100 100 100 100 100 100 100
88 1 40 2 2 5 1 0 0 91 100 100 5 5 5 5 5 5 5 29 58 100 100 100 100 99 100 64 100 100 100 100 100 100 100 100 100 100 100 100 100 100 94 95 100 100 100
18 0 5 1 3 5 1 1 0 70 100 100 0 5 4 5 5 5 49 90 98 100 100 97 40 96 92 84 98 100 100 100 100 100 100 100 100 100 100 100 92 100 100 84 79 100 100
71 25 2 1 5 5 4 0 0 54 100 77 0 0 3 4 3 5 52 96 98 100 68 54 19 48 58 20 51 100 100 100 100 100 100 100 100 100 100 98 71 100 100 98 100 100 99
12 0 0 7 5 5 5 0 0 64 100 3 0 0 0 0 0 0 100 97 68 8 5 5 5 5 53 42 62 93 100 100 100 59 100 100 91 100 100 100 74 53 16 11 56 72 22
1 8 0 13 5 5 5 0 0 31 100 20 0 0 0 0 12 52 100 98 8 5 5 2 5 36 73 11 8 5 50 100 100 100 96 5 10 99 95 96 100 100 99 99 99 100 100
46 18 0 3 0 3 5 5 0 3 85 96 0 0 0 0 31 18 7 14 5 5 0 5 5 5 5 5 17 6 5 64 83 95 99 100 100 86 95 53 10 69 100 72 100 100 100
100 46 0 2 5 0 0 5 3 4 3 9 4 18 1 0 8 5 4 5 5 5 3 5 1 4 5 5 5 5 5 12 8 5 5 96 100 100 100 32 55 75 79 100 100 100 90
78 35 6 0 5 0 0 0 5 5 5 5 5 47 85 5 5 5 0 3 1 2 5 5 5 5 5 5 5 7 6 5 96 16 17 77 86 97 100 100 78 100 100 100 100 100 100
94 55 30 0 0 5 0 0 0 5 5 12 79 96 90 9 5 5 5 5 5 5 5 5 5 5 5 5 6 5 5 5 14 88 64 96 99 100 100 100 100 100 100 100 100 100 100
55 69 83 30 2 6 5 0 0 0 5 48 95 96 100 100 6 5 5 5 5 5 5 5 40 13 21 6 5 64 48 52 59 100 100 100 100 100 100 100 100 100 100 100 100 100 100
91 67 72 100 59 8 5 4 0 0 5 14 77 100 92 85 100 14 24 5 5 5 5 5 6 94 51 39 12 44 12 46 54 96 100 96 100 100 100 100 100 100 100 100 100 100 80
22 89 99 100 58 5 63 5 4 5 5 5 69 98 100 100 99 91 17 5 27 5 5 7 5 34 70 66 65 91 96 92 100 100 84 100 100 100 100 65 100 100 100 100 100 100 88
99 100 100 100 96 5 5 5 5 5 5 5 33 80 100 100 94 88 86 100 73 36 63 11 52 5 5 51 70 97 86 99 86 100 100 100 100 89 99 100 100 97 100 100 99 99 100
100 100 100 100 82 5 5 7 5 5 5 5 5 75 99 100 100 100 100 100 100 99 29 56 12 14 12 23 81 95 94 84 82 99 97 90 100 100 100 80 59 46 69 88 99 79 59
100 86 100 96 100 40 5 7 6 5 7 15 6 8 97 100 100 100 100 100 100 100 34 92 97 60 68 44 64 97 57 59 85 89 95 100 100 98 100 98 79 85 85 76 86 73 100
100 100 84 100 100 84 20 5 14 97 5 46 90 7 40 100 97 88 100 100 100 100 97 100 100 100 100 63 5 5 97 90 41 83 63 51 48 95 94 99 100 100 100 100 100 100 100

GFSGBSN_prec_cloud_063.txt.gz
Cloud_Cover
95 55 0 81 99 45 100 100 67 80 26 38 84 84 28 5 62 100 100 100 96 63 24 12 9 0 5 82 89 92 92 44 84 60 21 28 9 100 99 100 100 100 100 100 100 100 100
8 60 1 19 49 67 100 100 92 89 36 26 86 45 25 5 14 87 100 79 95 100 100 91 70 51 5 15 9 21 100 57 84 65 46 3 5 93 100 100 100 100 100 97 100 100 100
1 4 36 90 0 17 83 100 87 61 17 80 5 25 100 11 0 2 7 5 14 85 100 100 59 80 19 3 51 5 93 100 100 88 49 5 30 100 100 100 100 100 100 100 100 100 100
1 4 0 29 44 64 57 89 24 73 75 72 28 99 97 97 17 5 5 5 7 16 100 44 73 100 96 22 2 85 99 100 98 64 100 9 65 100 100 100 100 100 100 100 100 100 100
17 19 0 1 2 80 100 48 58 50 36 72 89 44 38 54 100 88 97 55 48 67 7 3 100 53 28 24 0 16 100 100 100 100 100 97 52 51 100 100 100 100 99 100 100 100 100
0 7 0 2 96 51 100 46 88 6 94 81 100 23 0 1 78 100 100 99 100 7 22 66 69 88 13 32 4 59 99 100 100 63 93 94 29 27 100 100 100 100 100 100 100 100 100
0 0 48 79 26 54 100 60 5 25 38 7 100 13 0 0 1 56 62 90 58 59 14 90 68 18 54 74 40 62 91 100 100 100 16 48 88 100 100 100 100 100 100 100 100 100 100
15 3 6 19 0 0 100 77 3 61 41 56 77 10 5 100 5 44 55 57 23 60 88 9 48 99 100 100 100 81 100 100 100 83 100 65 100 100 100 100 100 95 100 100 100 100 100
0 0 2 47 1 2 19 97 14 76 87 81 28 2 4 5 0 12 16 21 18 88 98 96 98 100 100 100 100 100 100 100 100 100 100 91 100 100 100 100 100 84 100 100 100 100 100
5 0 2 48 0 0 0 21 17 100 98 100 12 0 4 0 9 60 92 75 96 100 100 82 89 100 100 100 100 100 100 100 100 37 100 100 100 100 100 100 100 93 100 100 100 100 100
1 1 4 1 0 0 4 0 12 96 100 100 19 0 5 0 0 8 50 65 40 30 96 100 100 98 95 100 100 100 100 100 100 100 81 100 100 100 100 99 100 100 100 100 100 100 100
0 6 3 3 0 0 0 0 0 21 100 100 90 0 1 7 26 1 9 16 74 94 96 100 83 88 100 100 100 100 100 100 100 100 100 100 100 100 100 100 100 97 100 98 100 100 100
3 3 10 4 0 37 0 0 1 2 100 100 100 2 15 10 28 7 81 100 92 72 80 100 100 100 100 100 100 100 100 100 100 100 100 100 100 100 100 100 100 100 100 100 100 100 100
0 0 8 3 0 56 4 0 0 0 92 96 6 0 0 6 71 89 100 91 88 100 100 99 100 85 94 63 100 100 100 100 100 100 100 100 100 100 100 100 100 100 99 99 90 35 100
0 0 12 7 5 41 49 0 0 0 100 76 0 0 23 4 31 62 87 87 100 100 98 99 77 100 81 100 88 100 100 100 100 100 100 100 100 100 100 100 100 100 100 61 100 100 100
0 2 2 9 83 100 59 3 0 0 76 65 0 0 0 0 0 25 30 78 57 47 35 37 79 75 67 100 81 100 100 100 100 100 100 100 100 100 99 99 100 100 100 98 61 97 87
0 15 0 15 10 32 26 55 0 1 0 2 0 12 0 0 5 6 100 63 45 9 4 51 34 60 90 100 100 100 100 100 68 100 61 100 100 100 70 98 93 100 100 100 100 49 100
0 1 0 0 40 25 100 7 5 3 1 6 0 8 0 0 21 24 99 44 10 5 4 6 31 71 84 83 100 100 100 99 70 86 5 13 78 100 100 72 90 94 75 56 100 100 91
9 59 0 4 68 99 21 7 82 3 20 100 3 0 0 0 30 10 2 4 0 3 0 4 5 18 5 59 65 84 100 100 100 9 34 40 24 100 100 100 100 100 100 100 100 99 100
11 93 7 0 21 32 4 49 74 21 4 45 2 25 5 0 0 14 10 4 5 0 3 0 2 4 5 6 5 32 68 89 100 100 100 55 35 7 100 100 100 100 100 100 94 86 100
2 100 3 5 98 100 100 41 100 99 4 14 5 36 90 21 23 3 2 5 5 5 5 5 4 5 5 44 5 5 10 11 74 41 64 100 100 100 80 6 24 60 45 24 46 67 23
17 71 25 35 99 5 76 100 59 4 4 9 95 94 91 43 8 3 8 8 5 5 1 6 5 5 5 24 7 23 5 24 52 11 36 22 64 46 55 97 100 83 14 5 99 100 100
15 21 69 100 100 97 6 100 100 5 0 3 30 96 96 47 82 57 65 11 5 0 2 1 18 61 5 5 5 5 5 18 11 5 12 51 30 32 40 26 100 100 100 52 78 26 93
5 5 62 81 100 10 77 47 10 2 3 34 100 92 100 88 53 100 29 6 18 17 7 4 5 15 79 44 29 5 5 5 5 20 49 78 77 100 100 100 94 100 93 84 100 100 100
86 26 16 31 100 65 6 100 100 5 5 5 94 100 83 32 90 74 97 32 42 15 11 8 5 6 5 96 97 100 99 69 68 7 81 96 92 97 99 100 100 100 100 100 100 100 99
66 32 98 75 100 62 6 86 12 4 0 4 5 11 100 32 29 94 100 100 92 100 46 9 16 5 5 93 95 100 100 97 99 100 100 100 100 100 100 100 100 100 100 100 100 100 100
100 39 41 45 100 46 20 25 7 8 5 5 17 5 39 41 93 68 99 100 100 93 98 66 56 58 30 85 100 100 100 81 80 94 95 100 100 100 100 100 100 100 100 100 100 100 100
84 98 100 100 99 47 6 29 23 5 41 5 56 24 25 6 100 25 92 100 100 100 100 99 89 79 76 96 100 100 75 98 72 83 80 66 83 100 100 100 100 100 100 100 100 100 100
77 100 82 100 8 5 20 96 8 96 94 89 88 50 44 94 91 83 96 100 100 100 100 100 74 58 19 100 65 99 81 74 80 100 79 99 70 99 32 64 74 91 94 100 82 98 58

GFSGBSN_prec_cloud_066.txt.gz
Cloud_Cover
0 1 95 100 99 17 100 76 26 33 10 84 96 16 18 5 8 2 82 100 99 77 25 60 42 51 62 11 100 100 100 100 98 27 89 64 1 15 100 100 100 100 100 100 100 100 100
0 60 44 100 37 91 98 61 22 10 36 21 59 30 100 80 80 1 0 6 12 2 66 50 92 94 18 100 100 95 100 100 100 64 61 9 22 21 82 100 100 100 100 100 100 100 100
0 26 85 100 48 18 91 46 25 2 8 100 100 83 3 33 73 5 5 5 4 5 5 98 100 78 36 8 100 65 100 100 100 97 100 100 42 67 43 100 100 100 100 100 94 100 100
0 38 100 16 32 10 0 93 0 13 66 96 27 10 3 3 65 92 99 82 100 6 23 7 97 68 92 3 40 96 100 100 100 100 100 100 82 93 56 83 100 100 100 99 100 100 100
0 18 98 10 53 3 30 54 8 86 89 74 2 91 4 45 1 88 100 100 100 100 8 2 77 40 72 8 1 36 100 100 100 100 100 100 81 5 56 97 100 94 97 68 100 100 100
0 18 97 41 33 0 15 90 93 100 100 99 63 3 62 86 0 3 81 100 80 5 23 59 88 70 12 44 76 0 29 100 100 100 100 100 13 13 11 13 50 98 60 30 100 100 100
3 1 64 9 0 0 0 83 100 100 100 100 70 1 0 3 8 32 5 59 5 22 56 77 58 32 88 17 86 3 4 100 100 100 100 100 95 31 5 2 5 62 100 77 100 100 100
2 3 63 9 0 0 0 2 100 100 92 100 57 0 0 0 35 100 47 26 52 67 56 22 52 100 96 83 42 100 100 100 100 100 100 98 100 75 17 6 69 99 100 99 95 100 100
1 12 72 3 0 0 1 3 4 82 100 82 89 6 0 0 6 79 67 83 74 94 100 86 100 100 100 100 100 100 82 99 98 100 100 99 100 15 5 5 7 100 96 100 66 100 100
0 3 16 0 0 0 2 35 25 31 100 23 100 81 0 0 2 4 5 5 6 52 100 100 100 100 100 100 100 100 100 100 95 80 100 68 100 100 52 25 18 75 99 100 100 100 100
0 6 8 3 0 0 1 5 58 67 32 100 100 59 0 0 8 0 4 6 5 78 44 100 100 100 100 100 97 100 100 100 100 78 39 100 100 100 88 81 100 100 100 95 83 100 100
0 8 11 2 25 0 0 3 88 19 23 100 100 54 0 3 100 3 12 100 23 75 100 100 100 100 100 100 97 100 100 100 86 100 97 99 100 100 100 100 91 91 100 90 100 97 100
0 1 5 5 71 0 1 2 49 84 28 83 88 1 0 38 89 42 100 34 76 40 66 77 100 100 100 100 100 100 100 100 88 88 100 100 100 100 100 100 100 100 99 97 95 88 100
0 0 1 6 100 0 0 42 13 69 83 23 2 0 0 0 48 100 51 80 16 78 100 87 95 100 100 100 100 100 100 100 100 100 100 100 100 100 100 100 99 98 100 99 33 5 23
0 0 4 4 81 5 0 9 4 5 28 90 85 36 0 0 0 18 87 19 87 80 69 52 93 100 100 100 100 100 100 100 100 100 100 100 100 100 100 100 100 100 84 99 100 70 57
2 1 8 0 11 52 0 0 2 2 14 2 59 100 1 0 0 33 21 39 17 21 8 36 92 91 100 100 100 98 98 100 100 100 100 100 100 100 100 100 100 100 100 100 98 90 94
5 0 0 0 3 23 0 0 1 5 3 100 97 100 75 1 0 0 97 27 12 29 1 61 25 100 84 100 100 94 100 100 100 100 100 100 100 100 100 100 100 100 100 53 100 100 95
5 0 0 0 0 4 0 2 2 5 3 92 41 100 100 1 60 2 13 1 2 4 5 5 6 12 98 36 100 60 100 100 100 100 69 100 100 100 100 97 100 100 100 100 100 98 7
0 0 0 5 0 14 7 5 0 4 18 41 100 100 100 75 34 5 1 2 0 4 0 2 4 5 3 84 40 5 5 54 99 98 70 37 100 100 100 98 100 100 100 100 100 100 100
4 2 0 8 0 1 1 5 0 4 16 6 17 100 87 67 3 4 31 16 5 1 0 0 1 2 5 8 91 66 100 95 7 5 100 76 83 100 100 100 99 100 70 43 59 100 100
5 8 4 3 12 4 5 5 5 5 4 5 90 81 97 9 77 74 5 30 5 6 3 0 4 1 5 53 5 5 32 98 96 94 75 27 5 7 77 100 100 90 100 100 100 100 99
30 5 5 2 5 1 4 30 72 27 0 91 100 80 65 12 68 83 99 79 26 38 3 4 2 8 5 52 78 87 28 42 34 98 45 100 96 68 5 17 100 100 100 100 100 100 100
5 4 5 5 14 89 5 73 18 41 7 4 9 98 95 91 4 90 85 100 62 5 19 0 5 36 7 30 4 1 4 5 35 28 40 26 86 38 18 5 5 76 99 100 100 97 82
5 5 3 4 7 47 5 90 86 100 44 54 99 96 22 90 3 26 100 93 98 91 61 89 4 5 28 5 5 5 5 5 5 5 5 35 76 24 7 11 82 92 46 62 12 5 49
94 31 5 5 36 49 10 58 98 100 32 71 63 76 18 6 3 4 5 100 100 93 40 48 25 5 5 5 39 100 97 88 58 41 5 63 95 54 30 44 92 46 97 89 75 42 65
100 91 55 5 19 88 100 5 9 12 47 4 5 96 13 70 10 5 5 62 100 100 100 98 97 15 6 77 89 100 100 100 97 64 81 20 72 64 100 95 46 100 100 100 99 99 100
100 36 99 71 9 5 95 5 5 5 5 6 76 44 10 28 0 5 6 64 93 100 100 100 100 90 28 86 85 92 100 84 64 92 68 69 86 88 99 100 100 99 100 90 99 100 100
95 45 100 98 4 48 12 59 56 5 5 5 30 10 6 13 2 5 5 7 100 100 100 100 100 100 86 65 94 100 100 97 74 9 78 73 83 67 68 100 99 100 100 100 100 100 100
100 100 96 99 11 39 18 68 88 8 5 80 100 66 65 54 4 5 5 100 86 100 98 100 100 100 98 92 82 100 65 56 41 100 8 72 84 93 8 34 97 99 100 100 100 100 100

GFSGBSN_prec_cloud_069.txt.gz
Cloud_Cover
41 74 100 92 38 40 100 97 4 17 79 97 84 100 59 66 98 96 6 0 70 15 10 92 98 11 94 96 100 100 100 100 100 100 5 17 1 35 19 100 100 100 100 100 100 100 100
5 92 100 78 53 0 48 100 71 55 100 100 100 8 42 4 18 70 6 4 4 31 28 93 94 62 2 96 98 100 100 100 100 100 65 41 24 0 0 100 100 100 100 100 100 100 100
0 96 98 20 79 45 49 100 100 100 100 100 100 99 20 95 52 7 9 77 76 92 5 2 100 100 100 58 9 100 100 100 100 100 100 79 84 18 0 87 100 100 100 100 100 100 100
0 17 94 24 0 0 1 100 100 100 90 100 98 1 71 100 7 4 38 5 100 50 84 13 100 100 92 30 5 68 100 100 100 100 100 100 100 36 82 28 100 100 100 100 100 100 100
1 42 29 26 0 0 1 43 100 100 100 88 76 0 55 20 0 5 29 7 16 2 0 0 50 100 21 10 6 5 99 100 100 100 100 100 100 100 74 16 100 100 100 91 100 100 100
1 14 34 0 0 0 0 0 100 100 100 100 95 0 0 1 3 5 2 0 0 1 2 34 32 20 18 5 90 26 5 100 100 100 100 100 100 82 86 6 100 100 100 100 100 100 100
4 4 0 2 0 0 0 0 2 100 100 100 97 0 0 0 0 0 0 32 62 56 9 30 7 5 5 5 51 5 5 100 100 100 100 100 100 100 96 28 41 100 100 100 100 100 100
4 3 6 0 0 1 0 0 2 23 100 100 100 14 0 0 0 0 0 66 100 100 100 100 48 43 5 5 12 8 63 92 100 100 100 100 100 100 100 100 80 63 100 100 98 96 88
1 2 1 0 0 8 1 0 0 3 100 100 100 88 1 0 0 0 20 82 100 68 96 100 100 100 100 63 80 8 56 100 100 100 100 100 100 100 99 49 9 64 36 100 57 45 100
4 5 4 4 0 13 1 0 0 3 38 100 100 100 0 0 0 0 1 5 8 14 95 100 99 100 100 100 100 86 81 100 100 100 100 100 100 100 100 96 95 65 8 100 100 87 97
1 5 5 13 1 0 57 0 4 5 5 100 100 100 6 0 0 2 2 5 5 39 66 100 100 100 100 99 74 100 100 100 100 100 100 100 100 100 100 100 100 64 84 88 18 90 73
0 6 9 0 9 0 0 0 0 18 98 92 100 100 89 4 62 86 89 36 53 24 73 100 100 100 100 100 94 100 100 100 100 100 100 100 100 100 100 87 16 78 46 82 94 100 100
2 5 2 0 20 0 0 0 0 2 78 95 100 100 100 0 2 74 92 21 12 33 62 89 100 100 100 100 100 100 100 70 72 100 100 100 100 90 98 39 50 83 100 94 100 97 25
5 5 4 0 1 0 0 0 0 0 45 64 100 59 100 10 5 30 60 40 16 81 48 62 72 100 100 100 100 100 100 99 99 100 100 100 100 100 93 46 95 100 96 32 14 46 17
5 5 9 0 0 0 0 0 0 2 4 97 82 75 100 96 85 0 40 33 7 89 54 54 7 91 100 26 65 94 100 100 100 5 36 91 96 100 100 95 100 100 98 70 89 12 99
5 5 1 0 0 0 1 0 0 10 1 100 81 91 100 100 52 4 0 28 34 3 7 65 64 84 88 46 88 80 94 76 69 60 99 89 94 100 100 100 100 100 98 100 100 96 98
5 5 4 0 1 0 0 0 0 3 1 93 25 57 38 100 90 100 20 15 65 22 3 5 40 81 67 33 94 100 95 80 100 98 97 98 73 100 100 100 100 100 100 100 100 98 92
5 0 0 0 0 0 1 0 0 1 0 28 14 100 3 100 40 100 63 2 0 2 4 5 5 7 28 12 33 89 96 100 100 54 95 78 11 100 85 100 76 99 92 86 97 100 100
5 2 0 0 0 0 2 0 0 10 22 62 45 68 2 16 100 21 5 4 1 0 0 2 5 3 5 27 5 10 100 92 100 100 100 100 100 100 100 100 100 99 78 100 100 100 100
5 0 0 0 0 0 0 0 0 3 2 11 10 21 4 5 99 54 5 21 70 5 0 0 1 0 5 7 6 4 6 49 94 92 92 94 100 100 94 55 100 52 96 99 100 100 86
5 5 5 0 0 4 0 0 0 2 5 23 91 24 8 26 100 86 5 5 19 90 16 1 0 1 5 69 8 81 13 5 12 6 64 97 38 100 99 48 98 50 76 82 100 100 100
15 5 5 0 2 0 0 5 0 0 4 5 4 8 5 5 89 100 59 8 100 82 98 30 6 5 5 54 86 52 5 11 70 100 100 6 25 100 71 100 100 100 43 100 100 88 100
86 16 5 0 0 0 4 1 0 1 2 5 5 5 5 7 4 76 49 84 100 100 94 100 29 5 44 5 34 97 33 4 5 5 5 79 90 52 32 28 34 46 73 97 10 29 87
78 24 4 0 4 0 2 3 0 4 0 0 4 20 13 5 5 7 10 6 18 100 100 100 100 24 35 84 26 12 5 5 5 5 3 8 7 26 38 46 44 16 5 70 100 52 5
100 58 5 1 5 5 0 5 7 0 5 3 5 13 93 65 5 3 0 0 0 5 99 100 100 100 79 86 41 94 92 76 26 6 5 6 92 12 5 9 13 44 47 64 55 79 93
100 100 100 57 5 0 2 5 5 5 5 3 4 18 63 55 4 5 0 0 3 5 5 95 100 100 100 92 93 100 100 98 98 100 24 82 100 62 79 5 7 100 36 97 70 85 86
100 100 90 97 95 4 2 12 5 5 5 5 5 16 16 26 37 3 5 5 5 55 53 100 96 100 100 100 100 93 91 82 44 93 98 95 100 94 82 88 72 70 15 33 100 100 100
100 92 82 64 16 23 4 5 5 5 5 21 5 5 37 78 13 47 3 0 3 5 12 73 100 100 100 100 100 98 84 100 66 23 9 15 98 100 99 100 96 66 41 100 98 77 59
100 100 100 100 48 96 88 10 13 12 14 35 93 93 99 100 53 5 9 5 5 5 56 89 85 100 100 100 100 100 100 99 39 41 81 46 69 100 87 77 89 100 81 99 100 94 100

GFSGBSN_prec_cloud_072.txt.gz
Cloud_Cover
44 100 100 19 100 10 66 100 31 100 76 41 3 95 100 87 6 2 52 0 3 42 4 71 46 100 99 100 100 100 99 100 100 100 100 100 16 40 5 20 100 100 100 100 100 100 100
5 100 81 9 26 0 0 100 40 90 82 9 82 8 100 82 8 0 7 42 3 5 5 15 27 100 87 54 44 100 100 100 100 100 100 100 51 55 19 87 83 88 100 100 100 100 100
1 100 47 36 49 0 0 27 100 8 99 49 13 10 100 1 1 0 0 0 4 97 9 5 76 59 2 6 60 100 100 100 100 100 100 100 99 0 1 8 94 93 100 100 100 100 100
0 100 19 3 2 3 0 3 93 13 45 80 96 31 100 24 2 0 0 0 0 0 0 0 54 100 55 1 60 100 100 100 100 84 100 100 100 11 0 4 32 100 100 100 100 100 100
0 26 25 1 72 79 0 1 1 79 100 100 94 1 25 0 0 1 0 0 0 0 0 0 3 5 5 5 2 100 100 100 100 100 100 100 100 69 1 44 11 100 100 100 100 100 100
0 0 4 1 42 93 14 0 0 23 100 100 100 71 0 0 0 0 0 0 0 4 2 1 3 2 3 4 5 100 100 100 100 100 100 100 100 99 5 54 39 36 99 100 100 100 100
0 0 0 10 1 0 0 0 0 26 100 100 100 100 2 0 0 0 2 5 2 5 20 98 3 5 5 5 5 58 94 100 100 100 100 100 100 100 42 21 6 5 40 100 100 100 100
0 4 18 3 27 4 4 0 0 0 24 100 87 98 96 0 0 0 2 100 20 9 70 100 26 18 5 5 5 5 100 100 100 100 100 100 100 100 88 72 50 5 100 100 100 100 100
9 0 4 0 0 30 4 0 0 0 3 100 94 38 97 6 0 0 0 61 61 5 64 100 100 92 100 16 76 5 98 100 100 100 100 100 100 100 98 13 64 8 84 100 100 100 100
1 3 0 0 5 1 3 0 0 0 0 8 100 40 95 91 2 0 0 2 5 5 75 100 100 94 91 87 88 5 97 100 100 100 100 100 100 100 100 17 83 66 5 100 100 100 100
0 3 3 0 5 0 4 0 0 0 0 7 100 90 5 34 12 5 6 22 5 15 58 100 100 96 100 100 36 27 24 100 100 100 100 100 100 100 100 100 98 66 71 45 100 100 100
0 0 10 0 5 4 5 0 0 3 0 2 100 94 2 5 84 35 100 5 5 5 59 99 100 100 100 100 99 100 100 100 100 100 100 100 100 100 85 100 100 72 100 100 73 100 100
0 0 11 3 5 5 4 0 0 0 0 0 4 57 4 5 62 40 95 5 7 38 12 36 100 94 100 100 99 94 100 100 100 100 100 100 100 100 100 86 100 100 33 94 99 100 75
0 0 5 1 5 5 4 0 0 0 0 0 2 3 5 4 6 82 84 9 16 12 74 20 58 98 100 100 100 100 100 100 100 100 100 100 100 100 100 91 100 96 49 15 98 59 5
0 5 0 4 5 5 4 0 0 0 0 0 0 2 5 10 5 46 38 8 5 5 15 8 16 72 80 100 100 100 79 95 98 100 100 100 100 100 100 51 20 97 100 80 87 5 5
0 5 0 5 5 5 1 0 0 0 0 0 3 1 37 5 55 15 14 55 58 0 5 5 5 18 6 70 96 96 91 41 90 57 100 99 97 85 100 54 35 96 80 100 90 31 5
0 2 2 2 5 5 0 0 0 0 0 0 0 5 4 5 34 8 19 64 12 5 4 5 5 5 14 25 40 72 95 100 82 78 5 26 29 100 100 100 100 100 100 98 51 6 5
0 2 5 2 5 5 1 0 0 0 0 8 0 5 5 5 18 37 34 7 58 3 3 5 5 5 5 16 7 5 7 94 96 81 68 91 66 100 100 92 99 100 100 100 55 35 5
5 3 5 5 2 5 2 0 0 0 0 6 38 5 0 6 4 76 39 45 5 5 2 2 5 5 5 5 5 5 26 7 56 82 86 100 100 81 100 100 100 100 100 77 14 46 7
5 2 5 5 2 2 5 0 0 0 0 0 0 3 3 4 5 37 38 92 71 5 5 0 0 0 2 5 30 5 5 52 88 100 75 26 54 71 100 99 85 32 69 85 100 100 100
5 5 5 5 4 2 2 0 0 0 0 0 7 27 7 5 99 47 54 32 6 26 47 5 3 4 5 5 5 5 2 5 73 25 94 100 90 100 71 53 100 60 75 100 100 100 94
28 5 5 5 5 5 0 0 0 0 0 2 0 0 0 0 80 70 5 5 12 5 87 5 35 5 14 38 79 8 5 5 5 5 5 15 97 99 100 54 49 94 70 100 64 99 100
34 5 5 5 4 2 0 4 1 0 0 0 0 0 1 2 100 100 11 5 21 95 43 72 93 100 11 56 84 92 65 5 5 6 26 5 14 6 73 14 12 25 8 51 71 27 100
27 5 36 5 5 0 0 5 5 0 0 0 0 13 5 2 42 34 93 5 5 4 68 80 95 100 99 27 71 84 81 84 5 5 5 5 29 52 62 8 56 87 100 100 100 100 69
6 11 98 5 5 0 2 5 7 4 4 0 0 0 9 1 11 14 14 10 3 0 0 1 30 100 100 99 75 100 79 60 7 5 5 5 5 9 5 23 31 6 5 6 61 16 11
99 59 97 96 5 5 5 5 5 5 5 5 0 0 2 5 4 58 5 5 22 88 89 10 8 88 100 100 100 76 52 14 61 100 67 21 99 66 92 27 14 6 34 6 5 7 5
99 100 100 78 99 32 37 5 5 5 5 5 5 5 5 14 5 5 4 5 3 8 5 10 100 100 100 100 100 100 44 22 53 90 99 100 100 92 96 98 11 6 10 6 38 86 5
100 100 100 95 100 32 79 6 5 5 5 18 5 5 24 48 5 4 5 5 5 5 5 3 28 99 100 100 100 100 100 47 8 5 12 45 100 100 100 100 89 95 100 99 44 23 31
100 100 100 100 87 74 93 8 17 6 93 43 99 20 100 100 97 61 34 5 5 5 83 12 5 100 100 100 100 100 100 100 92 6 5 71 24 75 100 100 100 100 100 100 100 100 100

GFSGBSN_prec_cloud_075.txt.gz
Cloud_Cover
20 19 12 100 9 41 0 64 25 0 65 94 100 97 64 1 0 0 0 0 0 0 4 1 0 5 13 96 84 99 57 100 100 100 100 100 100 99 78 100 70 64 24 100 100 100 100
5 29 0 34 81 87 0 0 56 19 54 100 69 100 98 0 0 0 1 0 6 0 0 1 1 3 56 99 70 98 100 100 97 100 100 100 100 100 100 18 60 100 76 97 93 100 100
6 0 0 26 51 100 1 0 6 100 84 100 64 85 100 18 0 0 0 0 0 15 0 11 2 5 5 6 61 100 100 100 77 100 100 100 100 100 100 46 5 99 47 100 100 100 100
5 5 0 0 100 100 26 0 5 80 100 100 41 21 86 29 0 1 0 0 0 0 0 0 3 5 5 64 65 100 100 100 94 100 100 100 100 92 100 13 6 83 100 94 100 100 100
5 5 5 2 60 100 94 0 11 58 100 100 15 45 0 10 0 0 5 1 4 4 0 0 0 0 2 10 89 100 100 100 100 100 100 100 100 56 96 65 12 7 8 59 100 100 100
5 6 5 5 23 67 100 3 5 19 30 99 100 99 0 0 0 0 4 5 6 24 4 0 0 1 3 3 59 80 100 100 100 100 100 100 99 100 53 80 47 84 54 83 100 100 100
91 6 6 5 0 1 80 8 0 5 19 100 64 100 68 0 0 0 2 5 60 40 22 47 11 5 6 5 5 66 100 100 100 100 100 100 89 100 100 100 6 4 2 5 100 100 100
100 36 68 4 0 0 4 1 0 0 0 94 99 42 99 2 0 1 0 4 81 82 61 84 10 5 5 5 54 99 100 100 100 100 100 100 100 100 100 100 58 5 0 5 99 100 100
100 32 85 5 2 4 0 4 0 4 0 11 100 94 94 0 5 5 1 0 6 100 88 100 94 65 53 20 98 93 100 100 100 100 100 100 95 87 100 98 98 5 4 5 100 100 100
100 98 83 11 5 4 0 12 17 5 4 4 97 100 41 4 11 4 3 0 2 5 80 100 100 37 61 22 72 5 94 100 100 100 100 100 100 61 100 100 95 10 3 5 16 100 100
100 100 77 50 5 1 1 5 2 5 5 0 79 100 30 0 4 5 16 18 3 5 29 100 100 97 72 25 4 48 72 100 100 100 100 100 83 100 100 100 98 57 12 5 7 100 100
99 100 97 5 5 5 4 0 5 5 5 1 46 66 0 0 5 24 100 5 5 5 34 100 98 87 98 94 24 100 100 100 100 100 100 100 96 73 28 100 100 100 32 71 87 98 100
92 99 100 76 5 5 5 0 4 6 45 4 4 2 0 0 5 58 100 62 5 32 6 81 100 99 73 79 68 70 100 100 100 100 100 100 100 99 100 97 100 100 93 100 100 99 100
64 95 100 94 5 5 5 3 3 36 20 4 0 0 0 0 0 64 100 69 17 6 24 40 100 100 100 92 92 99 100 100 100 100 100 100 100 100 96 91 100 67 95 73 33 55 85
72 100 100 87 15 5 5 5 6 22 21 4 0 0 0 0 0 36 60 9 5 5 5 5 8 83 95 91 70 100 100 100 100 91 100 100 100 100 100 100 37 55 95 69 88 16 12
5 44 100 98 16 34 5 5 6 24 5 4 0 0 0 0 3 17 5 48 47 5 5 5 5 6 58 55 77 92 68 81 100 100 90 100 100 100 100 92 77 77 64 94 84 75 84
93 37 92 100 8 53 5 17 32 18 5 5 0 0 0 0 9 5 25 5 5 5 5 5 5 5 16 72 94 44 66 22 16 100 100 100 16 96 87 100 100 100 100 86 68 5 20
100 98 34 70 49 47 5 14 61 29 42 4 0 0 0 0 3 24 6 5 5 5 5 5 5 5 5 82 84 79 31 100 100 91 80 100 100 100 100 99 85 98 82 100 85 64 61
100 100 100 59 15 9 5 5 22 50 5 3 0 4 0 2 0 0 4 26 58 5 4 3 3 5 5 60 14 5 5 14 93 58 82 43 87 99 100 100 100 100 100 99 99 90 62
84 100 100 100 7 5 5 5 36 61 5 0 1 5 2 0 0 0 1 80 5 4 5 4 1 2 5 5 5 5 4 5 33 100 90 100 100 100 100 97 88 100 100 93 100 100 33
100 100 100 100 57 5 4 5 30 20 4 0 3 5 0 4 0 0 3 40 22 5 5 5 5 1 19 5 6 5 5 5 5 71 100 99 100 100 81 89 60 100 100 82 100 100 90
100 100 100 100 98 5 4 5 8 5 4 6 7 4 0 1 0 0 2 5 7 5 5 5 5 5 6 98 32 62 98 6 5 5 5 70 99 5 100 57 5 13 72 68 100 100 100
100 100 100 100 90 5 5 66 5 5 5 5 23 5 4 0 4 1 1 2 4 7 3 67 12 67 8 70 99 100 92 100 96 10 5 18 52 13 24 68 100 62 58 69 100 86 100
100 100 100 100 72 5 20 54 5 5 5 5 6 11 3 1 3 0 0 0 0 0 5 0 83 100 39 31 100 99 92 91 100 100 19 16 7 8 81 6 76 100 99 28 87 46 71
100 100 100 100 19 56 75 6 83 16 5 62 5 5 5 0 1 0 0 0 0 4 3 2 1 9 63 77 100 100 84 87 20 18 9 19 78 90 79 74 3 10 46 5 27 99 18
100 100 100 74 8 64 99 5 100 6 5 7 5 24 5 5 4 0 0 0 8 7 5 5 98 92 75 18 100 99 100 71 5 28 6 58 96 89 60 74 14 5 5 1 5 6 69
100 100 52 22 7 94 25 9 95 35 5 42 18 68 16 5 5 4 5 5 5 5 5 6 85 46 99 100 100 99 100 100 32 58 100 100 100 88 99 100 25 5 4 5 5 5 5
100 100 33 71 91 100 5 5 100 81 58 5 5 73 7 33 37 59 5 83 89 62 94 25 12 58 95 100 100 100 100 100 84 44 95 19 97 100 97 100 54 3 5 5 5 5 5
97 99 99 100 100 78 60 12 100 100 12 15 13 5 91 100 55 7 23 9 49 6 95 100 100 34 100 100 100 100 100 100 100 35 5 5 20 9 11 41 39 5 5 5 10 8 72

GFSGBSN_prec_cloud_078.txt.gz
Cloud_Cover
100 79 100 99 84 72 1 1 100 100 100 91 75 100 99 98 5 0 0 0 0 0 0 0 0 0 5 6 93 100 93 99 91 100 82 88 100 100 82 100 90 100 41 49 50 23 5
100 82 96 100 100 74 69 0 14 100 100 98 100 76 100 78 2 0 0 0 0 0 0 0 0 0 4 22 36 97 100 100 100 100 100 74 99 100 82 99 100 28 100 92 100 100 97
97 98 80 100 70 51 100 0 3 100 85 100 100 48 100 100 37 0 0 3 0 2 0 0 0 0 4 5 100 87 40 100 100 100 100 100 100 100 12 80 100 86 16 5 41 28 100
98 75 71 100 100 49 100 9 0 100 99 100 100 96 18 0 0 0 4 5 3 5 2 0 0 0 5 28 99 83 86 100 100 100 100 100 100 67 100 79 100 100 99 64 9 61 100
100 100 100 100 100 96 90 10 2 7 100 100 100 100 38 6 0 0 2 5 5 0 2 0 0 0 5 85 96 100 100 100 100 100 100 100 100 100 99 100 99 98 83 93 54 85 100
100 100 97 100 100 100 32 5 5 0 9 100 100 100 61 8 0 0 0 5 5 4 5 0 0 0 5 14 95 67 100 100 100 100 91 100 94 100 80 81 89 93 100 100 45 65 100
100 100 100 100 100 100 95 41 10 2 57 95 100 100 100 13 8 0 0 4 5 5 5 5 6 5 5 16 5 69 100 100 100 80 27 100 99 95 89 100 100 100 94 6 5 81 81
100 100 99 100 100 100 100 100 52 7 0 10 100 100 100 18 2 0 0 0 5 5 23 73 5 5 5 6 4 76 99 99 62 45 100 100 100 98 100 100 100 100 100 2 5 38 96
100 100 100 98 100 100 100 98 71 4 0 0 100 100 100 80 1 0 4 0 5 21 49 100 22 5 17 24 1 99 93 89 85 97 100 100 99 100 90 100 100 100 99 6 25 94 100
100 100 100 100 81 89 100 27 98 16 3 5 100 100 100 6 0 0 0 5 2 5 58 100 73 16 5 6 2 96 54 72 100 100 100 100 100 100 81 100 100 100 100 4 56 100 99
100 100 100 33 95 74 100 39 23 44 5 5 97 100 98 0 0 1 12 98 0 5 42 100 100 83 18 4 7 99 35 75 100 100 100 100 100 100 100 100 100 100 99 9 5 83 42
100 100 100 31 90 100 100 100 19 16 14 5 27 100 27 24 0 30 100 9 4 5 58 99 62 89 32 6 17 100 15 40 100 100 100 100 100 82 100 97 99 100 99 11 5 5 73
100 100 73 47 59 85 100 100 59 12 21 5 13 85 12 0 5 94 100 30 5 18 9 79 100 54 58 5 17 100 73 100 100 96 100 100 95 95 80 99 62 99 100 76 60 99 79
100 100 64 29 56 25 100 100 53 20 19 6 6 28 6 1 3 100 98 37 19 9 49 100 100 85 77 13 45 64 100 100 100 58 100 98 100 100 100 100 100 100 100 70 13 44 5
100 100 100 50 98 12 99 92 79 13 81 5 5 41 5 0 15 100 48 5 3 5 5 8 13 100 61 99 78 100 100 100 100 100 98 100 81 100 100 100 72 68 82 100 100 99 72
100 100 100 90 100 48 32 92 96 5 100 8 15 24 9 10 39 58 2 50 14 5 4 4 5 6 84 56 67 100 82 100 100 88 100 100 93 100 92 100 47 59 31 42 76 92 55
100 100 100 100 22 96 100 71 80 14 90 6 72 28 5 20 51 3 0 5 0 0 2 5 5 5 5 69 33 56 7 22 100 100 100 100 100 100 100 99 100 100 100 73 58 90 38
100 100 100 100 47 100 82 19 26 100 84 5 35 59 5 6 0 27 3 5 2 0 3 6 5 5 5 60 98 43 48 5 5 95 100 100 100 100 100 100 95 100 95 65 92 82 72
100 100 100 100 68 100 11 9 26 100 62 5 98 50 5 5 0 2 0 0 5 5 5 7 58 5 6 5 69 27 5 19 100 99 99 100 100 100 88 59 96 100 100 100 100 100 100
100 100 100 100 100 100 93 5 6 86 8 42 100 5 5 2 0 2 4 0 1 1 0 5 5 5 5 5 5 5 5 5 6 99 100 100 77 96 100 100 90 75 47 36 98 100 64
100 100 100 100 100 100 99 70 5 54 6 26 100 25 2 4 4 4 0 5 5 5 5 5 5 5 5 5 5 5 5 7 5 16 90 96 100 100 100 100 96 62 96 99 98 86 99
100 100 100 100 100 100 100 69 8 100 6 5 92 8 0 4 5 1 2 3 5 5 40 13 67 60 100 99 70 100 68 53 5 5 30 100 100 96 100 100 100 100 100 54 100 100 83
100 100 100 100 100 100 100 100 76 100 14 15 18 6 0 0 1 1 2 0 0 2 2 4 66 100 56 96 100 100 100 100 95 25 89 90 99 100 100 100 100 90 100 100 100 100 82
100 100 100 100 100 100 100 75 100 100 12 60 6 2 0 0 3 5 4 5 0 5 4 0 1 63 98 98 100 100 100 100 100 100 77 81 83 100 95 86 60 100 100 48 80 90 100
100 100 100 100 100 100 100 100 94 100 21 66 5 0 3 5 5 0 3 1 1 4 5 0 0 28 5 65 98 100 74 100 100 91 73 100 89 100 97 82 4 72 100 95 59 98 9
100 100 100 100 100 100 100 100 87 66 10 11 5 0 4 13 29 0 1 1 5 5 5 2 0 64 100 86 64 100 100 100 100 100 35 100 99 99 96 100 50 5 3 0 5 4 5
100 100 100 100 100 100 100 100 64 95 21 5 11 2 63 94 96 6 29 17 5 5 38 5 5 49 9 100 98 94 98 100 100 100 100 100 100 97 100 100 34 14 4 5 5 5 5
100 100 100 100 100 100 99 40 58 62 5 27 15 72 87 100 100 25 36 5 30 10 80 41 4 84 85 93 100 91 78 100 100 100 100 100 60 90 100 100 89 21 5 4 2 5 5
100 100 100 100 100 72 100 100 100 100 57 5 5 5 13 88 100 9 5 5 5 9 98 100 43 6 6 89 100 100 100 100 98 100 100 100 100 98 31 18 75 48 80 28 5 5 5

GFSGBSN_prec_cloud_081.txt.gz
Cloud_Cover
84 100 100 99 100 100 100 15 74 49 100 100 100 83 100 100 14 0 0 0 0 0 0 0 0 0 0 10 100 100 100 100 86 64 100 100 100 66 100 100 100 98 40 96 98 2 0
39 100 100 100 100 100 100 58 30 17 98 100 100 82 100 100 20 2 1 5 4 3 1 0 0 0 0 3 99 100 100 100 95 100 100 100 100 65 99 100 100 90 100 100 37 6 0
99 100 100 100 100 97 100 71 7 24 100 100 100 100 57 38 10 32 0 5 58 5 0 0 0 0 0 3 32 100 100 100 100 100 100 100 100 100 100 99 100 100 94 65 58 14 8
100 100 100 100 98 100 60 82 32 36 31 100 100 100 100 30 0 0 0 5 100 5 0 0 0 0 5 5 64 100 100 96 64 99 100 100 100 100 100 100 75 100 100 42 6 5 2
100 100 100 100 99 100 100 90 5 14 15 100 100 100 100 36 0 0 0 5 100 6 0 0 0 0 64 56 74 94 93 98 82 100 100 100 100 100 100 100 100 100 100 93 64 5 10
100 100 100 100 100 100 23 67 35 6 29 49 100 100 100 78 3 2 0 1 80 25 0 0 0 0 5 90 100 91 92 100 100 98 98 100 79 90 100 100 100 74 95 28 96 67 24
100 100 100 100 100 98 64 100 100 68 66 33 100 100 100 100 11 1 0 0 6 5 5 5 5 5 5 67 100 100 80 100 100 75 64 100 78 93 100 71 94 39 100 55 100 100 8
100 100 100 100 100 97 7 38 100 100 100 66 94 100 100 100 12 2 0 0 5 63 22 7 5 5 5 5 79 20 82 100 100 94 99 100 100 74 100 100 77 100 100 100 100 78 52
100 100 100 100 100 100 67 67 100 82 100 32 60 100 100 100 8 0 1 5 4 20 12 100 5 5 5 2 27 64 90 100 88 60 100 100 100 80 99 100 95 88 100 100 100 98 100
100 100 100 100 100 100 87 46 97 95 100 81 78 100 100 6 0 1 3 5 5 5 59 100 61 2 4 4 60 100 93 40 98 100 86 99 100 30 23 100 100 100 100 99 88 43 62
100 100 100 100 100 100 100 7 11 89 94 85 100 100 93 5 4 5 20 92 3 5 58 91 25 0 5 2 8 76 5 6 67 100 100 100 100 50 100 100 84 97 100 92 51 5 5
100 100 100 100 100 100 100 18 76 100 53 70 100 97 7 13 7 59 100 7 3 5 49 98 82 21 8 5 7 100 26 7 84 99 92 100 100 100 100 87 100 96 82 46 18 5 22
100 100 100 100 100 100 100 40 38 100 71 100 64 5 34 5 30 100 100 27 5 19 13 42 94 92 10 5 35 100 24 7 72 98 100 100 100 100 100 98 100 86 100 74 66 79 40
100 100 100 100 100 100 100 76 18 100 100 100 6 19 14 5 62 100 65 27 18 20 49 84 70 67 38 5 8 29 44 38 6 5 100 100 100 100 100 57 100 100 100 100 49 49 11
100 100 100 100 100 100 100 100 96 100 100 100 18 82 10 5 47 100 38 5 3 5 5 30 20 86 80 78 70 19 63 49 5 20 82 72 83 100 94 100 100 100 100 60 100 100 100
100 100 100 100 100 100 100 100 9 96 100 100 14 100 55 7 87 66 3 44 12 5 5 5 5 12 79 57 97 100 25 52 46 56 5 26 67 100 100 100 100 80 99 69 86 92 99
100 100 100 100 100 100 100 100 26 14 100 100 100 65 20 32 89 5 0 5 0 0 0 4 5 5 12 79 88 81 6 4 100 100 100 100 55 98 100 99 100 100 100 100 100 96 6
100 100 100 100 100 100 100 100 5 5 100 100 100 97 31 49 5 27 2 0 2 0 0 3 3 5 5 47 100 92 45 95 88 100 100 100 96 100 94 87 100 100 89 98 100 59 25
100 100 100 100 100 100 100 100 94 7 98 91 100 96 55 12 5 5 1 2 0 4 5 5 5 3 5 5 84 68 50 100 100 96 100 100 100 100 100 69 93 87 69 99 92 96 58
100 100 100 100 100 100 100 100 97 34 58 100 100 100 41 5 5 5 3 5 5 5 0 5 5 5 5 5 86 56 6 31 100 100 100 86 85 100 100 100 99 94 56 60 100 93 79
100 100 100 100 100 100 100 100 99 21 13 99 100 83 78 5 5 5 4 3 11 11 2 5 20 82 68 98 74 22 94 98 89 95 100 100 100 99 100 100 100 86 36 15 78 89 78
100 100 100 100 100 100 100 100 100 100 75 100 100 100 25 5 5 4 3 3 98 5 4 1 73 5 62 97 47 100 91 91 100 85 100 100 100 100 100 99 92 98 72 92 65 17 7
100 100 100 100 100 100 100 100 100 100 47 95 100 100 94 5 5 2 0 1 4 5 0 0 5 14 5 3 89 100 100 100 100 100 100 99 100 100 100 100 98 96 100 99 12 98 68
100 100 100 100 100 100 100 100 100 100 81 66 100 100 37 5 5 2 0 0 0 5 3 0 5 1 2 2 1 86 99 100 98 80 100 100 100 100 99 99 94 99 100 81 85 100 8
100 100 100 100 100 100 100 100 100 100 93 58 100 61 5 5 5 3 2 0 5 5 5 5 3 5 5 94 33 69 96 100 100 98 100 100 100 100 98 100 84 100 100 100 97 100 96
100 100 100 100 100 100 100 100 100 100 100 90 96 41 6 5 1 3 0 14 53 5 5 3 1 2 4 5 90 82 95 100 100 100 100 100 100 100 100 71 62 100 100 82 5 32 98
100 100 100 100 100 100 100 100 100 100 100 99 37 28 48 11 5 2 5 11 62 15 5 5 5 5 2 45 79 86 26 82 100 100 100 100 100 89 98 100 22 98 96 5 4 2 5
100 100 100 100 100 100 100 100 100 100 100 97 67 6 81 6 5 0 5 17 52 54 68 32 4 19 26 99 93 98 100 79 77 50 100 100 100 83 95 100 95 100 11 5 2 5 5
100 100 100 100 100 100 100 100 100 100 100 100 88 33 57 17 3 5 10 33 62 16 94 99 40 36 8 9 84 62 98 94 100 98 100 100 100 82 6 84 100 97 49 5 5 5 5

GFSGBSN_prec_cloud_084.txt.gz
Cloud_Cover
96 100 96 100 100 100 99 100 100 100 100 84 100 99 79 100 76 0 0 5 5 62 20 0 0 0 0 33 90 100 100 100 97 75 100 100 98 30 100 21 73 99 100 97 100 100 99
92 95 81 96 100 100 100 100 100 32 100 100 76 100 45 100 20 24 0 5 5 81 32 0 0 0 0 9 59 100 100 100 66 66 68 100 93 75 100 100 12 83 71 100 100 100 58
100 100 100 90 100 100 100 100 100 5 100 100 100 100 100 23 24 0 0 5 59 87 2 0 0 0 1 6 41 79 100 100 99 81 98 100 100 98 100 100 38 100 94 67 100 100 93
100 100 100 88 100 100 100 98 100 30 87 100 100 100 100 100 10 0 0 2 42 97 0 0 0 0 26 5 13 93 100 58 90 100 100 100 99 100 100 100 65 94 100 70 96 100 100
100 100 100 94 100 100 100 78 100 100 80 7 100 100 100 100 53 2 0 0 5 20 0 0 0 0 17 5 90 100 100 33 85 95 100 100 100 100 95 100 100 100 35 100 45 100 99
100 100 100 100 100 100 100 98 100 100 100 96 100 100 100 100 20 12 0 0 5 5 0 0 0 13 50 36 82 100 79 80 65 85 100 100 100 99 100 100 21 56 100 100 100 100 100
100 100 100 100 100 100 100 100 48 100 100 100 42 91 100 100 35 13 0 0 5 5 0 4 5 4 5 41 50 61 100 7 82 100 96 100 100 83 100 100 70 99 100 99 99 100 22
100 100 100 100 100 100 100 100 26 100 100 100 45 100 100 100 10 1 0 0 5 5 10 5 5 5 5 5 35 49 7 15 91 100 100 100 100 89 100 100 100 99 96 100 100 100 100
100 100 100 100 100 99 100 100 20 98 100 100 100 100 100 100 0 0 2 3 4 5 37 44 4 3 0 59 100 47 36 70 31 100 100 100 100 13 33 100 100 100 100 100 100 99 95
100 100 100 100 100 100 100 100 89 100 97 100 100 100 97 6 0 0 0 3 3 5 80 25 32 11 1 23 46 76 84 11 100 99 56 77 80 35 5 96 77 100 100 100 100 40 66
100 100 100 100 100 100 100 100 100 92 100 100 100 100 34 5 5 4 2 2 1 5 52 49 18 5 2 3 15 58 38 19 11 31 72 97 68 39 100 100 83 62 96 98 80 74 68
100 100 100 100 100 100 100 100 100 95 56 69 100 96 9 5 5 41 0 0 5 55 45 60 18 32 24 5 7 5 37 10 70 30 75 100 99 92 22 27 92 12 25 17 5 66 83
100 100 100 100 100 100 100 100 100 100 43 76 100 97 52 22 6 91 42 22 68 6 6 34 73 70 86 15 73 21 49 17 59 47 100 100 93 42 12 7 9 14 75 99 92 93 25
100 100 100 100 100 100 100 100 100 39 67 22 100 100 24 5 66 92 7 8 38 8 6 5 57 54 70 7 52 64 21 11 98 94 100 100 100 83 6 40 74 100 93 100 98 93 56
100 100 100 100 100 100 100 100 100 50 28 20 42 100 68 5 63 84 6 91 4 5 5 5 6 96 89 84 88 54 6 31 41 100 100 100 96 100 100 100 100 87 86 20 100 86 44
100 100 100 100 100 100 100 100 100 77 69 52 68 100 84 14 100 40 23 17 3 5 5 4 5 6 60 96 98 100 76 29 12 73 82 100 95 100 100 100 75 88 100 100 86 49 50
100 100 100 100 100 100 100 100 100 100 100 43 100 100 42 29 84 53 90 0 0 1 2 3 5 5 5 63 94 55 39 27 55 99 100 100 100 100 100 100 100 100 100 93 100 96 100
100 100 100 100 100 100 100 100 100 100 84 100 100 100 55 79 33 92 5 5 5 1 0 4 2 5 5 5 100 100 38 5 19 100 100 100 100 100 100 100 98 100 100 100 100 100 100
100 100 100 100 100 100 100 100 100 100 91 60 100 100 91 49 53 80 5 5 5 2 5 5 2 3 5 5 33 54 87 87 83 100 100 100 100 100 100 84 96 100 100 100 100 100 100
100 100 100 100 100 100 100 100 100 100 100 73 100 64 91 36 8 29 5 5 5 0 3 5 3 5 5 7 12 74 68 55 89 100 100 100 100 100 100 100 100 77 100 100 97 83 100
100 100 100 100 100 100 100 100 100 100 100 84 100 98 100 100 81 9 12 5 2 0 1 5 4 4 5 5 9 5 77 48 98 97 100 100 100 100 100 100 100 100 100 92 80 62 83
100 100 100 100 100 100 100 100 100 100 100 85 48 74 100 100 72 15 23 14 5 4 0 5 4 4 0 62 43 100 100 92 74 89 100 100 100 100 100 100 100 100 88 22 5 86 22
100 100 100 100 100 100 100 100 100 100 100 100 46 99 100 100 41 46 79 5 0 0 0 0 0 4 0 4 5 15 86 100 100 100 100 100 100 100 100 100 100 99 100 100 82 41 26
100 100 100 100 100 100 100 100 100 100 100 100 72 20 28 34 32 100 39 5 0 0 0 0 3 5 4 5 4 4 6 4 90 100 100 100 100 100 100 100 89 91 100 59 66 100 34
100 100 100 100 100 100 100 100 100 100 100 100 98 82 50 5 60 88 21 5 0 4 2 4 5 5 5 5 57 83 95 100 47 36 100 100 96 100 100 100 26 100 100 93 90 100 5
100 100 100 100 100 100 100 100 100 100 100 100 100 90 33 10 56 86 5 5 0 4 2 3 5 5 3 5 87 95 93 55 100 100 100 100 100 100 100 100 84 100 100 100 5 100 6
100 100 100 100 100 100 100 100 100 100 100 100 100 97 65 67 88 47 5 1 4 5 14 91 5 4 10 95 97 100 85 57 72 100 98 100 100 100 100 100 69 100 100 76 23 95 100
100 100 100 100 100 100 100 100 100 100 100 100 100 100 86 90 73 6 5 2 5 20 43 68 9 30 20 97 79 81 90 91 93 93 100 100 100 100 100 100 98 100 100 5 4 5 5
100 100 100 100 100 100 100 100 100 100 100 100 100 94 67 21 5 5 3 3 5 80 94 38 13 5 6 11 22 5 10 64 74 86 68 98 76 96 58 41 93 100 96 5 5 5 36

GFSGBSN_prec_cloud_087.txt.gz
Cloud_Cover
100 100 100 100 100 100 100 100 100 100 100 100 100 93 73 5 99 0 0 0 6 5 0 0 0 0 0 96 95 100 100 100 100 100 94 55 87 100 7 100 100 100 100 100 100 82 100
100 100 100 100 100 100 100 100 100 100 98 100 100 87 96 31 10 12 0 0 5 5 0 0 0 0 21 88 98 100 100 100 99 100 76 45 100 98 59 89 100 100 100 100 100 93 100
100 100 100 100 100 100 100 100 100 100 83 76 100 100 93 97 7 3 0 4 5 0 0 0 0 0 76 27 91 100 98 100 40 73 54 99 96 70 99 89 94 100 94 100 100 100 100
100 100 100 100 100 100 100 100 100 100 100 100 44 100 94 95 93 1 0 0 4 0 0 0 0 2 29 5 30 100 100 90 87 29 62 45 100 94 96 82 14 64 80 100 100 100 72
100 100 100 100 100 100 100 100 100 100 100 100 100 98 93 96 100 4 0 0 1 0 0 0 2 8 75 24 90 82 79 73 99 86 95 100 99 73 77 87 100 91 99 100 100 100 54
100 100 100 100 100 100 100 100 100 100 100 100 100 11 100 100 72 0 0 0 0 0 0 0 5 74 43 18 92 99 32 28 75 100 86 100 99 100 99 90 38 42 43 100 100 84 10
100 100 100 100 100 100 100 100 100 100 100 100 92 95 100 100 15 7 0 0 6 28 4 4 31 39 5 6 59 9 5 15 37 100 100 100 75 73 84 100 100 100 98 100 98 100 26
100 100 100 100 100 100 100 100 100 100 100 96 100 100 100 100 8 5 0 0 0 4 19 3 4 5 0 8 91 26 41 55 7 98 66 100 100 100 98 97 96 100 96 98 78 100 66
100 100 100 100 100 100 100 100 100 100 100 100 100 100 100 90 5 5 0 0 0 4 46 4 1 5 5 11 15 83 54 13 100 63 52 100 84 73 97 70 71 100 100 100 94 98 93
100 100 100 100 100 100 100 100 100 100 100 100 100 100 100 100 22 5 0 0 4 2 75 19 14 6 5 5 64 5 37 30 71 21 66 33 6 53 13 79 99 100 100 99 84 100 100
100 100 100 100 100 100 100 100 100 100 100 100 100 98 68 39 7 40 4 2 5 6 36 10 36 2 0 67 7 18 5 26 45 40 42 85 100 27 69 81 62 100 100 99 100 100 99
100 100 100 100 100 100 100 100 100 100 100 100 100 89 100 21 52 12 5 3 5 79 29 50 40 38 14 5 6 11 82 19 98 32 68 72 51 35 97 71 76 100 100 100 100 100 95
100 100 100 100 100 100 100 100 100 100 100 100 100 100 100 97 58 5 5 13 86 27 6 30 77 67 8 20 26 5 42 70 79 82 69 98 94 86 100 91 49 100 95 100 100 99 40
100 100 100 100 100 100 100 100 100 100 100 100 100 100 100 100 84 5 66 14 67 6 12 10 17 20 100 9 53 5 100 94 56 25 98 78 100 63 100 74 95 100 100 97 89 94 95
100 100 100 100 100 100 100 100 100 100 100 100 100 100 100 100 99 39 40 87 5 5 4 25 72 98 100 16 39 78 62 74 73 23 46 99 100 36 51 92 100 100 98 92 80 9 22
100 100 100 100 100 100 100 100 100 100 100 100 100 100 100 100 70 81 25 5 5 5 5 5 70 17 68 99 47 92 89 6 83 16 79 100 100 100 93 100 93 100 98 72 15 20 64
100 100 100 100 100 100 100 100 100 100 100 100 100 100 100 100 49 8 87 5 5 5 5 5 5 5 5 53 94 100 70 25 5 100 100 100 96 99 100 92 100 100 100 100 100 94 87
100 100 100 100 100 100 100 100 100 100 100 100 100 100 100 100 79 5 5 5 5 3 5 2 3 5 5 6 26 98 30 84 30 97 100 100 100 100 100 100 100 100 100 100 100 100 100
100 100 100 100 100 100 100 100 100 100 100 100 100 100 88 99 77 45 38 5 5 5 5 5 5 5 4 5 41 43 100 87 86 100 93 59 100 100 100 100 100 100 100 100 100 100 100
100 100 100 100 100 100 100 100 100 100 100 100 100 100 81 57 100 99 20 5 9 5 5 5 4 5 5 7 5 51 60 67 14 72 100 100 72 100 100 100 100 100 100 100 100 100 100
100 100 100 100 100 100 100 100 100 100 100 100 100 100 100 66 100 70 6 32 5 5 5 1 0 15 15 5 6 5 46 66 92 28 100 100 100 100 100 100 100 100 100 100 85 100 100
100 100 100 100 100 100 100 100 100 100 100 100 100 97 100 93 100 22 58 38 5 5 5 0 1 32 5 1 2 5 6 45 100 99 100 100 100 100 100 100 100 100 100 100 100 100 100
100 100 100 100 100 100 100 100 100 100 100 100 100 100 99 76 60 70 25 76 5 5 5 0 0 100 5 2 0 1 5 22 100 100 100 100 100 100 100 100 100 100 100 90 92 83 99
100 100 100 100 100 100 100 100 100 100 100 100 100 99 83 86 66 97 49 86 5 5 0 0 1 95 61 2 0 3 8 54 50 90 83 100 100 100 100 100 100 36 93 100 40 38 80
100 100 100 100 100 100 100 100 100 100 100 100 100 100 87 82 80 19 46 5 5 5 0 3 5 5 98 3 11 72 85 98 62 6 98 100 100 100 100 100 90 12 100 96 97 97 59
100 100 100 100 100 100 100 100 100 100 100 100 100 100 65 63 49 19 17 5 5 5 0 5 6 13 29 10 99 100 93 68 97 100 100 100 100 100 100 100 99 97 100 100 95 96 6
100 100 100 100 100 100 100 100 100 100 100 100 100 100 100 23 100 34 37 5 5 2 1 11 71 8 7 96 91 98 74 26 93 84 98 100 100 100 100 100 41 98 100 85 100 51 76
100 100 100 100 100 100 100 100 100 100 100 100 100 100 100 87 29 12 5 5 5 5 3 85 100 37 70 100 97 96 98 80 68 50 81 93 100 100 100 100 94 99 100 66 72 100 100
100 100 100 100 100 100 100 100 100 100 100 100 100 100 96 75 49 60 9 6 5 5 6 99 32 6 58 61 77 28 48 35 62 79 94 98 83 90 100 99 100 94 100 100 56 100 100

GFSGBSN_prec_cloud_090.txt.gz
Cloud_Cover
100 100 100 100 100 97 100 100 100 100 100 100 99 100 72 100 5 14 0 10 0 0 0 0 0 0 5 99 69 100 63 87 57 96 89 100 100 100 65 100 100 100 100 100 100 100 100
100 100 100 100 100 100 100 100 100 100 100 100 100 100 100 100 5 4 3 0 0 0 0 0 0 0 67 10 86 97 94 100 99 95 100 100 100 100 57 100 100 100 100 100 100 96 100
100 100 100 100 100 100 100 100 100 100 100 100 100 100 100 96 100 12 50 1 0 0 0 0 0 3 5 6 91 80 97 100 85 98 97 100 100 100 29 81 100 100 100 100 100 100 99
100 100 100 100 100 100 100 100 100 100 100 100 100 100 100 96 99 5 3 0 0 0 0 0 0 5 5 6 14 92 82 99 72 77 100 96 78 34 98 9 100 100 100 100 100 100 100
100 100 100 100 100 100 100 100 100 100 100 100 100 100 100 100 100 8 3 0 0 0 0 0 3 60 15 30 21 5 99 85 80 91 27 5 5 12 9 79 100 100 100 95 100 100 100
100 100 100 100 100 100 100 100 100 100 100 100 100 100 100 100 100 17 3 0 0 0 0 3 57 27 4 4 5 10 5 99 65 5 5 5 5 6 42 83 95 100 100 100 100 100 100
100 100 100 100 100 100 100 100 100 100 100 100 100 100 100 100 67 36 5 0 3 2 0 1 3 7 4 7 11 5 5 100 5 5 24 5 63 9 5 11 99 100 100 100 100 100 100
100 100 100 100 100 100 100 100 100 100 100 100 100 100 100 100 12 74 5 0 0 0 11 5 5 2 5 18 81 4 5 77 68 57 56 98 61 35 100 98 99 59 100 93 100 100 100
100 100 100 100 100 100 100 100 100 100 100 100 100 100 100 100 35 67 4 1 0 0 5 2 0 2 5 6 6 5 0 24 80 87 100 69 83 17 11 72 91 5 61 100 66 100 96
100 100 100 100 100 100 100 100 100 100 100 100 100 100 100 100 75 94 5 5 0 0 55 4 3 22 4 5 4 5 0 10 25 69 97 28 72 8 48 86 97 84 100 28 56 10 7
100 100 100 100 100 100 100 100 100 100 100 100 100 100 100 100 100 100 9 5 0 4 36 3 53 0 3 27 11 13 0 2 5 10 18 61 7 76 92 68 56 100 99 100 93 67 73
100 100 100 100 100 100 100 100 100 100 100 100 100 100 100 100 100 80 19 5 4 74 5 44 36 9 51 4 8 5 7 6 8 34 7 59 8 5 42 99 70 83 93 100 90 100 35
100 100 100 100 100 100 100 100 100 100 100 100 100 100 100 100 100 82 30 5 80 36 3 4 45 73 5 12 18 5 40 75 76 65 72 22 5 5 16 25 79 32 100 100 69 67 12
100 100 100 100 100 100 100 100 100 100 100 100 100 100 100 100 100 94 7 35 25 3 4 3 6 44 98 40 84 5 47 100 8 28 55 5 82 5 5 14 65 80 73 100 100 55 64
100 100 100 100 100 100 100 100 100 100 100 100 100 100 100 100 100 54 36 84 5 4 8 6 79 70 7 17 6 99 95 6 88 5 77 38 35 5 93 100 83 100 78 100 100 100 100
100 100 100 100 100 100 100 100 100 100 100 100 100 100 100 100 100 44 39 74 5 5 5 1 8 23 36 81 48 80 82 14 10 87 74 89 94 24 92 33 97 100 100 100 98 100 43
100 100 100 100 100 100 100 100 100 100 100 100 100 100 100 100 100 97 51 94 5 5 5 3 4 4 5 6 22 83 28 15 98 88 91 97 100 90 100 53 100 100 100 100 100 100 70
100 100 100 100 100 100 100 100 100 100 100 100 100 100 100 100 100 100 98 71 5 5 5 1 3 5 4 3 26 58 74 2 26 100 70 97 100 100 100 100 100 100 100 100 100 100 81
100 100 100 100 100 100 100 100 100 100 100 100 100 100 100 100 100 99 100 75 6 18 5 4 4 2 5 7 16 0 94 83 59 45 100 85 100 100 100 100 100 92 100 100 100 100 30
100 100 100 100 100 100 100 100 100 100 100 100 100 100 100 100 100 100 50 97 95 12 5 0 0 2 4 5 6 28 56 100 50 5 59 100 100 100 100 100 100 100 100 100 100 100 100
100 100 100 100 100 100 100 100 100 100 100 100 100 100 100 100 100 96 100 100 46 26 5 4 0 2 5 5 95 5 16 12 43 7 49 100 100 99 100 100 100 100 100 100 100 100 94
100 100 100 100 100 100 100 100 100 100 100 100 100 100 100 100 100 79 99 100 5 5 5 5 2 0 0 0 32 15 0 0 5 18 100 100 100 100 100 100 100 100 100 100 100 100 100
100 100 100 100 100 100 100 100 100 100 100 100 100 100 100 81 99 92 100 72 5 5 4 5 0 0 3 2 5 2 1 0 5 34 100 99 85 100 100 100 100 100 100 100 100 100 100
100 100 100 100 100 100 100 100 100 100 100 100 100 100 100 99 99 100 91 5 16 5 5 5 4 0 24 1 5 5 0 3 29 5 26 48 87 100 100 100 100 100 100 100 100 100 100
100 100 100 100 100 100 100 100 100 100 100 100 100 100 100 72 97 53 6 25 33 5 5 3 0 0 5 0 20 5 57 28 52 94 90 85 91 100 100 100 100 100 100 100 100 100 100
100 100 100 100 100 100 100 100 100 100 100 100 100 100 100 72 49 25 59 24 5 33 10 1 0 0 3 5 5 5 51 9 67 100 88 100 100 100 100 100 100 100 100 100 89 100 20
100 100 100 100 100 100 100 100 100 100 100 100 100 100 100 88 99 31 29 5 33 51 10 1 0 4 5 17 49 62 48 8 83 75 90 100 100 100 100 100 100 71 100 100 72 35 100
100 100 100 100 100 100 100 100 100 100 100 100 100 100 100 100 99 37 14 54 13 5 5 3 3 3 15 49 83 91 89 47 7 64 88 79 80 74 87 100 100 100 99 83 75 93 100
100 100 100 100 100 100 100 100 100 100 100 100 100 100 100 100 100 75 80 100 5 5 5 4 5 3 5 32 37 5 5 23 19 9 49 46 86 88 90 99 100 100 100 97 72 91 100

GFSGBSN_prec_cloud_093.txt.gz
Cloud_Cover
100 100 100 100 100 100 97 100 100 100 100 100 100 100 100 100 100 100 53 5 45 0 0 0 0 5 5 4 9 20 86 5 26 88 100 100 89 68 14 100 100 100 100 100 100 100 100
100 100 100 100 100 100 100 100 100 100 100 100 100 100 100 100 100 100 62 94 26 0 0 0 0 5 3 2 93 99 100 99 100 100 100 100 100 84 14 28 100 100 100 100 100 100 100
100 100 100 100 100 100 100 100 100 100 100 100 100 100 100 100 100 100 88 5 0 0 0 0 0 0 4 5 78 100 96 75 100 100 100 100 100 79 11 19 100 100 100 100 100 100 100
100 100 100 100 100 100 100 100 100 100 100 100 100 100 100 100 100 100 100 5 0 0 0 0 0 5 5 5 56 100 90 20 100 100 100 100 100 100 87 19 96 100 100 100 100 100 100
100 100 100 100 100 100 100 100 100 100 100 100 100 100 100 100 100 100 100 5 0 0 0 0 4 5 5 5 9 16 50 9 6 43 99 25 96 70 74 82 87 100 100 100 100 100 100
100 100 100 100 100 100 100 100 100 100 100 100 100 100 100 100 100 100 100 45 0 0 0 0 4 7 0 5 5 47 79 3 5 5 57 24 47 69 28 16 36 100 100 100 100 100 100
100 100 100 100 100 100 100 100 100 100 100 100 100 100 100 100 100 100 100 68 2 0 0 0 3 4 5 4 5 5 5 5 2 2 0 4 5 5 5 100 79 100 100 100 100 100 100
87 100 100 100 100 100 100 100 100 100 100 100 100 100 100 100 98 100 100 67 1 0 0 0 0 4 5 48 5 4 33 4 2 15 0 1 1 4 5 5 28 100 100 100 100 100 100
100 98 100 100 100 100 100 100 100 100 100 100 100 100 100 100 97 100 100 82 1 0 0 1 0 0 4 3 2 4 2 5 5 5 63 5 17 5 5 5 5 100 100 100 100 100 100
54 100 100 100 100 100 100 100 100 100 100 100 100 100 100 100 100 100 100 50 3 0 4 3 4 1 0 4 0 0 0 3 5 5 17 5 11 44 5 5 17 92 100 99 100 93 100
0 18 100 100 100 100 100 100 100 100 100 100 100 100 100 100 100 100 100 30 3 5 2 2 2 0 0 3 4 1 2 5 4 5 5 12 5 5 5 7 96 80 68 100 86 100 91
0 16 100 100 100 100 100 100 100 100 100 100 100 100 100 100 100 100 100 15 5 5 1 2 4 3 38 5 13 2 0 1 5 5 5 6 7 5 8 66 50 36 92 60 100 100 78
0 0 84 100 100 100 100 100 100 100 100 100 100 100 100 100 100 100 100 42 14 6 5 3 3 5 5 4 7 51 3 5 5 35 69 5 5 5 5 11 55 99 100 99 99 100 74
1 3 54 100 100 100 100 100 100 100 100 100 100 100 100 100 100 100 100 17 22 5 6 0 3 2 0 5 5 100 14 98 95 73 98 15 5 5 5 3 80 93 100 100 96 44 78
0 5 96 100 100 100 100 100 100 100 100 100 100 100 100 100 100 100 100 78 6 35 7 0 4 5 4 5 5 86 84 4 44 98 100 47 12 21 46 99 39 100 90 98 79 100 86
0 0 100 100 100 100 100 100 100 100 100 100 100 100 100 100 100 100 100 100 48 9 5 2 1 0 2 4 12 74 17 3 7 51 80 10 55 80 100 100 53 84 100 100 98 100 100
1 7 100 100 100 100 100 100 100 100 100 100 100 100 100 100 100 100 100 100 66 56 5 5 0 0 1 0 5 5 37 3 1 44 89 71 76 93 95 30 22 100 100 100 100 100 100
10 90 100 100 100 100 100 100 100 100 100 100 98 100 100 100 100 100 97 92 45 84 5 5 0 0 0 0 0 0 4 8 52 5 97 99 100 100 100 100 100 100 100 100 100 100 90
26 100 100 100 100 100 100 100 100 100 100 100 100 100 100 100 100 100 88 100 24 100 8 5 2 5 2 5 5 0 6 94 90 19 51 87 100 99 100 100 100 100 100 100 100 97 6
100 100 100 100 100 100 100 100 100 100 100 100 100 100 100 100 100 100 100 100 49 100 12 5 2 5 0 2 1 11 51 64 5 5 84 98 100 100 100 100 100 100 100 100 100 100 94
100 100 100 100 100 100 100 100 100 100 100 100 100 100 100 100 100 89 100 73 88 100 25 5 1 0 3 5 0 0 5 0 6 6 21 42 99 100 100 100 100 100 100 100 100 100 91
100 100 100 100 100 100 100 100 100 100 100 100 100 100 100 100 98 94 100 40 100 100 62 5 5 2 0 0 0 0 5 0 0 3 100 100 99 100 100 99 93 100 100 100 100 100 100
100 100 100 100 100 100 100 100 100 100 100 100 100 100 100 100 74 96 100 28 25 64 67 6 5 0 0 0 0 0 0 0 2 5 5 30 76 84 100 100 100 100 100 100 100 100 100
82 100 100 100 100 100 100 100 100 100 100 100 100 100 100 100 80 71 79 32 60 33 96 20 5 4 0 0 0 0 0 5 6 97 31 5 73 88 100 100 100 100 100 100 100 100 100
85 100 100 100 100 100 100 100 100 100 100 100 100 100 100 95 98 27 60 86 93 60 96 22 5 5 0 0 2 4 5 5 55 95 61 8 33 76 100 100 100 100 100 100 100 98 100
100 100 100 100 100 100 100 100 100 100 100 100 100 100 100 100 67 41 80 76 94 88 20 5 5 5 0 4 5 5 11 36 52 100 39 78 96 99 91 97 100 100 100 100 100 100 100
100 100 100 100 100 100 100 100 100 100 100 100 100 100 100 100 88 92 60 80 79 33 29 8 14 5 0 5 5 18 31 5 66 100 100 97 93 92 94 82 100 97 80 73 96 98 51
100 100 100 100 100 100 100 100 100 100 100 100 100 97 100 100 100 100 8 23 11 7 46 12 7 5 5 5 5 6 5 5 5 50 38 100 100 96 99 100 100 100 100 83 20 100 100
100 100 100 100 100 100 100 100 100 100 100 100 100 100 100 100 100 100 93 5 5 45 48 5 5 4 5 5 9 26 5 14 5 9 79 68 26 82 100 99 52 64 100 100 94 100 100

GFSGBSN_prec_cloud_096.txt.gz
Cloud_Cover
100 100 100 100 100 100 100 100 100 75 100 100 100 100 100 100 100 96 100 73 6 100 9 0 0 0 0 4 65 100 100 32 99 100 100 100 81 73 100 100 100 100 100 100 100 100 100
39 100 100 100 100 100 100 100 96 63 100 100 100 100 100 100 100 97 100 10 66 100 37 0 0 0 3 11 100 100 100 39 61 80 100 100 98 100 100 100 100 100 100 100 100 100 100
10 86 88 100 100 100 100 100 100 99 76 100 100 100 100 100 100 98 100 24 100 100 7 0 0 0 4 18 100 100 100 74 98 100 100 75 92 39 78 96 100 100 100 100 100 100 100
100 93 85 83 100 100 100 100 100 100 100 100 100 100 100 100 100 100 100 61 100 91 3 0 0 0 0 66 100 97 64 48 96 100 100 100 100 71 18 100 100 100 100 100 100 100 100
100 100 100 93 100 100 100 100 100 100 100 100 100 100 100 100 100 100 100 91 100 12 2 0 0 0 1 6 94 16 5 20 77 63 88 100 53 33 21 93 100 100 100 100 100 100 100
100 100 100 100 100 100 100 100 100 100 100 100 100 100 100 100 100 100 100 100 99 5 1 0 0 0 0 3 77 36 5 5 48 5 36 7 7 83 55 9 100 100 100 100 100 100 100
100 100 100 100 100 100 100 100 100 100 100 100 100 100 100 100 100 100 100 100 91 7 0 0 0 0 3 2 6 17 0 5 5 5 5 4 5 5 5 5 79 100 100 100 100 100 100
2 55 87 100 100 52 100 100 100 100 100 100 100 100 100 100 100 100 100 100 91 6 0 0 0 0 0 0 3 4 3 0 0 0 2 2 2 5 3 4 2 16 100 100 100 100 100
0 0 0 35 100 77 76 100 100 100 100 100 100 100 100 100 100 100 100 100 82 6 2 0 0 0 0 0 2 4 1 1 5 5 0 0 3 5 4 3 5 6 100 99 97 100 100
3 0 1 1 100 81 38 100 100 100 100 100 100 100 100 100 100 100 100 97 36 5 5 0 0 0 0 0 0 0 5 2 5 5 5 4 4 5 5 23 69 46 95 100 100 100 76
4 0 2 0 74 86 10 100 100 100 100 100 100 100 100 100 100 100 100 100 45 4 5 2 2 0 0 0 0 0 4 5 3 5 5 6 5 5 5 5 5 5 67 100 100 100 85
0 0 1 2 9 92 24 100 100 100 100 100 100 100 100 100 100 100 100 100 27 4 5 5 3 0 0 0 0 0 0 0 3 5 5 5 5 5 5 26 9 20 7 83 100 100 100
3 0 0 2 0 10 2 100 100 100 100 100 100 100 100 100 100 100 100 100 47 5 5 14 2 2 5 2 0 0 1 0 0 5 5 12 23 5 5 23 92 64 100 85 100 100 74
5 25 0 3 0 5 1 100 100 100 100 100 100 100 100 100 100 100 100 100 67 5 5 29 0 1 4 1 2 5 4 1 5 75 34 56 29 5 5 5 20 7 100 97 57 100 100
17 5 1 0 0 2 1 100 100 100 100 100 100 100 100 100 100 100 100 95 76 6 5 25 2 3 0 3 4 8 5 4 5 7 45 32 12 5 10 7 5 7 24 64 100 100 100
33 5 5 0 0 2 2 100 100 100 100 100 100 100 100 100 100 100 100 74 73 30 9 19 0 0 0 0 3 10 5 0 0 5 6 63 96 22 100 100 74 31 92 100 100 100 81
100 55 5 4 2 5 22 100 100 100 100 100 100 100 100 100 100 100 100 52 61 61 22 66 0 0 2 1 0 5 61 16 91 28 89 60 91 35 86 55 81 100 100 100 100 100 42
99 5 5 14 5 5 80 100 100 100 100 100 100 100 100 100 100 100 100 77 56 94 38 12 2 0 0 0 0 4 10 5 8 68 72 32 92 99 20 87 100 100 100 100 100 100 93
78 100 5 82 73 12 100 100 100 100 100 100 100 100 100 100 100 100 100 65 69 92 25 13 5 4 0 2 0 0 0 3 89 55 37 76 100 100 94 100 96 100 100 77 40 100 100
5 12 6 94 12 96 100 100 100 100 100 100 100 100 100 100 100 100 100 100 97 62 35 8 5 5 4 1 3 2 5 5 5 5 5 22 90 96 100 100 100 100 100 100 100 95 100
4 58 24 100 100 100 100 100 100 100 100 100 100 100 100 100 100 100 100 92 85 98 93 15 5 5 5 0 0 0 0 0 1 0 27 71 84 91 60 100 100 100 100 100 100 91 67
100 100 100 100 100 100 100 100 100 100 100 100 100 100 100 100 100 100 100 100 100 38 25 10 5 5 5 2 0 0 0 0 0 2 10 78 62 53 99 94 96 100 100 100 100 100 99
100 100 100 100 100 100 100 100 100 100 100 100 100 100 100 100 100 100 100 100 96 80 95 82 10 5 5 0 0 0 0 0 5 44 5 20 96 76 7 100 99 100 100 100 100 100 99
85 100 100 100 100 100 100 100 100 100 100 100 100 100 100 100 100 100 100 100 100 100 98 12 40 5 2 0 0 0 0 2 7 100 52 5 30 80 41 95 95 17 89 86 82 100 47
62 99 100 100 100 100 100 100 100 100 100 100 100 100 100 100 100 100 100 100 100 100 100 97 32 5 5 0 2 2 5 5 89 100 5 5 18 66 100 92 90 99 92 98 100 98 100
21 5 71 100 100 100 100 100 100 100 100 100 100 100 100 100 100 100 100 70 94 80 100 36 82 8 2 4 5 5 5 5 42 96 30 45 100 100 100 89 76 100 70 63 99 92 100
34 82 100 100 100 100 100 100 100 100 100 100 100 100 100 100 98 86 93 100 74 100 89 96 41 5 2 5 5 23 5 5 34 40 75 100 82 78 6 73 79 96 55 91 82 100 99
10 100 100 100 100 100 100 100 100 100 100 100 100 100 100 100 99 93 100 55 100 100 78 82 43 9 5 7 5 5 5 5 5 23 66 60 78 70 92 82 59 100 100 100 95 95 100
97 100 100 100 100 100 100 100 100 100 100 100 100 100 100 99 100 100 90 96 67 30 94 100 50 6 5 5 40 29 10 20 6 5 5 91 38 95 80 38 20 34 100 100 100 98 94

GFSGBSN_prec_cloud_099.txt.gz
Cloud_Cover
100 42 17 29 17 90 100 100 100 100 100 100 100 100 100 100 100 100 100 100 100 100 78 5 5 0 0 3 44 100 57 83 100 100 100 100 73 73 100 100 100 100 100 100 100 100 100
98 95 97 39 83 93 100 100 100 100 100 100 100 100 100 100 100 100 100 100 100 100 98 11 3 0 0 1 75 100 94 20 100 92 100 100 85 100 100 100 100 100 100 100 100 100 100
100 100 100 100 90 100 100 100 100 100 100 100 100 100 100 100 100 100 100 100 100 100 100 5 4 0 0 3 100 100 100 98 6 100 97 100 100 100 100 100 100 100 100 100 100 100 100
100 100 100 100 100 100 100 100 100 100 100 100 100 100 100 100 100 100 100 100 100 100 100 5 3 0 0 8 14 100 100 97 7 24 66 98 99 100 100 100 100 100 100 100 100 100 100
100 100 100 100 100 100 100 100 100 100 100 100 100 100 100 100 100 100 100 100 100 100 100 5 4 0 0 4 5 16 30 64 8 4 49 71 100 100 100 100 90 100 100 100 100 100 100
12 22 6 60 100 87 91 99 100 100 100 100 100 100 100 100 100 100 100 100 100 100 77 5 2 0 0 0 0 4 5 15 5 5 29 97 89 100 91 100 87 100 100 100 100 100 100
100 100 100 28 0 63 100 74 100 100 100 100 100 100 100 100 100 100 100 100 100 100 43 5 2 0 0 0 0 0 0 4 1 5 5 5 94 97 83 94 100 100 100 100 100 100 100
100 100 100 46 5 68 100 87 77 100 100 100 100 100 100 100 100 100 100 100 100 100 16 5 0 0 0 0 0 0 0 0 0 0 5 4 5 94 12 6 100 58 57 100 100 100 100
100 98 32 5 3 0 70 100 99 100 100 100 100 100 100 100 100 100 100 100 100 100 33 5 0 5 0 0 0 4 0 0 0 0 0 1 1 5 18 88 47 98 100 91 100 100 100
70 73 15 9 5 2 2 81 41 67 100 100 100 100 100 100 100 100 100 100 100 100 43 1 2 5 0 0 0 0 0 0 0 3 2 0 0 1 5 5 38 100 95 96 100 100 100
11 98 54 49 96 85 0 2 1 39 95 100 100 100 100 100 100 100 100 100 100 100 100 2 5 2 0 0 0 0 0 0 0 5 4 2 5 0 0 5 87 100 100 98 96 100 99
5 64 84 66 20 19 1 0 0 8 100 100 100 100 100 100 100 100 100 100 100 100 66 3 5 5 0 0 0 0 0 0 4 5 5 5 5 5 5 4 15 100 85 100 94 74 98
51 5 5 68 100 98 5 0 1 2 100 100 100 100 100 100 100 100 100 100 100 100 40 5 5 5 3 0 0 0 0 0 0 5 5 5 3 5 5 5 5 76 74 90 100 100 84
74 5 5 92 92 97 12 0 5 16 100 100 100 100 100 100 100 100 100 100 100 100 51 5 5 4 4 0 0 0 0 3 1 5 26 57 4 3 5 5 15 65 30 46 78 100 100
12 5 12 50 100 100 17 0 2 90 100 100 100 100 100 100 100 100 100 100 100 100 82 5 6 5 4 0 4 5 5 5 0 4 14 67 9 3 7 100 75 31 46 50 100 54 48
7 85 16 76 100 97 52 4 100 100 100 100 100 100 100 100 100 100 100 100 100 100 84 5 34 2 5 2 3 5 5 0 0 2 8 20 44 5 46 71 95 99 73 89 100 100 92
100 94 88 100 100 15 1 2 79 100 100 100 100 100 100 100 100 100 100 100 100 100 17 11 8 0 5 0 3 5 5 3 18 42 93 72 76 7 98 32 66 100 100 87 88 97 19
100 100 100 100 74 5 1 0 89 100 100 100 100 100 100 100 100 100 100 100 100 100 6 5 5 5 5 0 0 3 30 5 22 6 56 7 70 99 6 100 100 100 100 100 100 94 41
100 100 100 100 93 4 0 2 36 100 100 100 100 100 100 100 100 100 100 100 100 100 12 5 5 5 5 0 0 0 5 1 3 5 14 20 98 99 79 88 80 100 100 100 100 100 88
76 99 45 16 5 5 5 6 100 100 100 100 100 100 100 100 100 100 100 100 100 92 76 74 5 5 5 5 2 3 5 4 5 5 5 25 70 72 62 96 100 100 100 100 100 100 36
5 5 66 16 87 7 40 96 100 100 100 100 100 100 100 100 100 100 100 100 100 87 100 100 5 5 5 5 3 1 2 5 1 0 0 56 93 84 95 83 100 100 100 100 100 62 95
5 81 100 100 100 100 100 100 100 100 100 100 100 100 100 100 100 100 100 100 100 100 100 68 38 5 5 5 2 0 0 0 0 0 5 42 8 92 64 16 100 100 100 100 100 100 100
5 85 100 100 100 100 100 100 100 100 100 100 100 100 100 100 100 100 100 100 100 100 100 98 34 8 5 5 5 0 0 0 0 5 5 37 100 100 88 100 32 51 100 99 81 100 100
5 68 26 100 100 100 100 100 100 100 100 100 100 100 100 100 100 100 100 100 100 100 100 48 35 17 37 5 4 0 0 1 5 44 5 6 43 83 88 92 82 94 55 84 78 100 94
5 28 17 100 100 100 100 100 100 100 100 100 100 100 100 100 100 100 100 100 100 100 91 68 46 27 64 5 2 5 5 7 92 87 5 5 12 59 99 98 75 99 36 49 81 100 100
6 95 100 99 100 100 100 100 100 100 100 100 100 100 100 100 100 100 100 100 100 90 14 29 5 5 34 5 2 5 5 5 91 99 18 5 32 82 100 100 55 95 27 38 82 37 79
18 15 95 100 100 100 100 100 100 100 100 100 100 100 100 100 98 100 100 100 100 100 51 26 23 39 5 5 5 37 6 3 33 36 79 100 96 80 82 73 5 17 71 100 100 100 100
11 5 11 82 100 100 100 100 100 100 100 100 100 100 100 100 100 100 98 100 82 100 25 72 85 43 6 18 5 7 5 5 5 5 13 34 83 99 76 93 49 5 93 100 100 100 95
9 5 1 100 100 100 100 100 100 100 100 100 100 100 100 100 100 100 100 100 94 100 85 73 35 5 28 5 42 48 11 46 6 5 5 5 5 12 18 5 16 39 5 47 100 100 100

GFSGBSN_prec_cloud_102.txt.gz
Cloud_Cover
73 100 100 100 90 100 100 100 100 96 100 100 99 98 94 100 100 100 100 100 100 100 100 100 99 98 7 0 4 9 4 5 98 71 92 55 93 43 66 96 100 100 100 100 100 100 100
96 55 37 47 95 100 100 69 100 100 100 100 100 100 99 100 100 100 100 100 100 100 100 100 100 83 6 0 32 100 71 6 33 68 99 90 90 87 100 100 100 100 100 100 100 100 100
100 97 100 95 100 100 99 73 100 100 100 99 100 100 100 100 100 100 100 100 100 100 100 97 100 43 2 2 6 100 100 42 8 66 5 5 21 100 100 100 100 100 100 100 100 100 100
100 32 6 0 51 97 100 100 100 100 100 100 100 100 100 100 93 100 100 100 100 100 100 100 100 9 5 0 23 98 96 64 65 82 5 92 97 100 100 100 100 100 100 100 100 100 100
100 100 100 85 0 19 84 100 58 100 100 100 100 99 100 100 98 100 100 100 100 100 100 100 100 5 5 0 3 5 61 97 49 100 95 100 93 65 86 100 100 100 100 100 100 100 100
100 100 94 100 100 85 13 17 100 4 91 100 100 98 100 100 100 100 100 100 100 100 100 100 97 5 5 0 0 4 5 13 100 49 100 100 84 92 78 97 100 100 100 100 100 100 100
100 100 100 100 79 14 99 47 53 90 98 72 100 100 100 100 100 100 100 100 100 100 100 100 53 5 5 0 0 0 0 4 4 96 100 98 89 98 100 92 100 100 100 100 100 100 100
100 100 100 100 100 60 82 99 100 40 17 100 100 100 100 100 100 100 100 100 100 100 100 100 78 5 5 0 0 0 0 0 0 0 26 58 97 77 81 10 52 97 100 100 100 100 96
100 42 95 100 100 100 100 80 1 0 0 41 100 100 100 100 100 100 100 100 100 100 100 100 73 8 3 0 0 0 0 0 0 0 0 5 5 85 85 67 69 92 100 100 100 100 100
92 95 100 100 100 100 100 100 0 0 0 20 100 100 100 100 100 100 100 100 100 100 100 100 53 23 1 2 4 0 0 0 0 2 0 0 0 1 5 6 14 82 89 100 100 100 90
65 73 49 16 21 84 100 100 32 0 0 0 100 100 100 100 100 100 100 100 100 100 100 100 41 6 0 2 5 0 0 0 0 0 2 2 5 0 0 4 74 5 89 76 100 100 97
18 75 19 5 33 22 93 100 57 0 0 0 71 100 100 100 100 100 100 100 100 100 100 100 73 6 0 2 5 0 0 0 0 2 3 4 5 5 4 3 4 89 14 9 67 100 100
12 48 24 66 63 10 14 82 5 0 0 0 100 100 100 100 100 100 100 100 100 100 100 100 95 5 4 2 4 0 0 0 2 3 5 4 0 3 5 5 5 6 62 80 100 98 100
100 100 100 71 42 74 72 83 5 0 1 32 100 100 100 100 100 100 100 100 100 100 100 100 93 5 5 3 4 0 1 4 0 3 42 60 2 0 4 5 57 43 14 46 14 48 86
5 10 41 5 50 100 100 84 5 2 18 100 100 100 100 100 100 100 100 100 100 100 100 100 38 5 5 5 4 4 5 5 0 0 4 68 9 0 0 21 79 94 49 68 58 41 52
22 57 35 99 100 100 100 91 5 0 100 100 100 100 100 100 100 100 100 100 100 100 100 100 48 5 5 5 3 4 5 0 1 5 5 53 37 1 6 8 13 95 43 95 100 100 100
72 68 100 99 100 100 98 83 7 0 100 100 100 100 100 100 100 100 100 100 100 100 100 100 93 5 5 5 3 5 3 4 5 5 65 64 76 9 5 23 34 98 100 98 100 100 98
46 93 100 100 100 100 98 52 4 13 100 100 100 100 100 100 100 100 100 100 100 100 100 100 100 5 5 5 4 4 5 2 5 5 6 24 89 79 21 61 91 100 100 100 100 90 85
100 84 5 24 100 100 100 73 0 74 100 100 100 100 100 100 100 100 100 100 100 100 100 100 97 11 5 5 4 0 0 2 6 20 5 5 88 69 5 66 61 100 100 100 100 94 54
100 100 7 38 84 5 11 29 4 100 100 100 100 100 100 100 100 100 100 100 100 100 100 100 99 23 5 5 4 0 0 1 2 3 4 21 55 53 56 27 99 100 100 100 100 100 67
100 100 48 77 100 100 5 5 17 100 100 100 100 100 100 100 100 100 100 100 100 100 100 100 99 68 17 5 5 1 4 5 4 2 1 2 5 5 31 56 69 86 76 97 100 100 100
100 100 13 28 100 100 100 89 100 100 100 100 100 100 100 100 100 100 100 100 100 100 100 100 100 63 14 5 5 0 0 0 0 0 5 39 5 35 5 5 5 44 93 100 88 100 100
100 66 9 5 61 100 100 100 100 100 100 100 100 100 100 100 100 100 100 100 100 100 100 100 98 38 41 5 5 0 0 0 2 4 5 39 88 38 95 92 88 76 29 96 100 100 95
96 49 41 5 96 100 100 100 100 100 100 100 100 100 100 100 100 100 100 100 100 100 100 100 99 9 5 5 2 0 0 1 5 5 5 7 44 100 92 95 46 88 50 52 100 100 100
86 50 17 100 62 100 100 100 100 100 100 100 100 100 100 100 100 100 100 100 100 100 100 100 86 6 5 5 5 5 5 6 78 93 5 5 5 43 96 94 29 94 52 86 100 100 100
35 18 5 100 100 100 100 100 100 100 100 100 100 100 100 100 95 98 100 100 100 100 100 100 95 8 5 5 5 5 16 5 82 92 19 6 18 36 7 95 65 81 97 60 30 89 100
60 68 5 25 100 100 100 100 100 100 100 100 100 100 100 100 99 94 100 99 100 100 100 100 79 5 5 5 5 19 5 4 79 64 87 72 95 58 87 89 3 3 7 91 93 64 86
52 96 5 96 66 61 100 100 100 100 100 100 100 100 100 100 99 95 100 100 100 100 100 100 79 5 12 17 5 14 5 5 5 5 5 24 43 97 93 92 54 5 4 34 79 100 100
54 90 69 87 92 100 100 100 100 100 100 100 100 100 100 100 80 100 100 100 100 100 80 88 78 5 14 5 40 45 17 65 5 5 5 42 5 10 8 7 3 90 5 5 28 86 100

GFSGBSN_prec_cloud_105.txt.gz
Cloud_Cover
100 99 52 65 84 63 26 12 38 52 80 97 100 100 100 100 65 69 96 100 100 100 100 100 100 100 100 77 4 0 3 10 100 100 100 67 93 97 70 51 0 97 100 100 100 100 100
100 100 90 8 4 11 10 6 1 11 96 91 100 100 100 100 72 89 100 100 100 100 100 100 100 100 100 21 3 3 41 100 100 100 100 61 83 79 65 47 88 98 99 100 100 100 100
100 100 100 100 34 40 5 33 92 96 86 100 73 100 100 100 100 100 75 100 100 100 100 100 100 100 100 6 5 4 24 24 83 45 72 70 77 100 6 68 100 100 89 100 100 100 100
100 100 100 100 100 100 88 3 61 4 14 95 98 100 100 100 100 100 100 100 100 100 100 100 100 100 100 18 5 1 15 100 44 52 58 100 77 100 83 100 100 100 100 100 100 100 100
100 100 100 100 100 79 86 98 0 0 7 30 100 100 100 100 100 100 100 100 100 100 100 100 100 100 98 8 3 5 49 14 7 11 100 100 100 82 86 98 100 100 100 100 100 100 100
100 100 100 100 100 100 72 1 4 5 3 7 99 100 100 100 88 100 100 100 100 100 100 100 100 100 75 19 2 5 5 56 79 83 93 92 88 100 100 89 91 99 100 100 100 100 100
100 100 100 100 100 100 100 100 84 0 2 5 33 100 100 100 79 100 100 100 100 100 100 100 100 100 100 5 4 0 0 6 71 87 100 87 44 100 100 78 80 100 100 100 100 100 100
100 99 99 48 88 100 100 100 100 2 0 0 0 2 99 100 70 100 100 100 100 100 100 100 100 100 74 5 2 0 0 1 4 32 72 36 57 47 92 8 85 100 97 99 100 100 100
87 100 93 84 100 100 73 9 98 4 0 0 0 88 98 100 68 100 98 100 100 100 100 100 100 100 82 5 2 1 0 0 0 0 4 5 5 27 19 48 45 77 62 100 100 100 100
100 93 26 53 81 99 94 91 60 2 0 0 1 90 100 100 100 99 91 100 100 100 100 100 100 100 92 5 5 0 0 0 2 1 0 0 0 4 5 17 7 17 100 88 100 100 83
100 100 100 100 16 90 19 100 100 6 0 0 0 14 100 100 100 100 100 100 100 100 100 100 100 100 88 19 5 2 0 0 0 4 4 2 0 0 0 0 0 94 95 93 93 99 90
100 93 100 100 5 15 76 96 98 85 4 0 0 0 96 100 100 100 93 100 100 100 100 100 100 100 100 5 5 5 0 0 0 4 5 5 5 3 0 2 4 5 92 100 98 84 100
100 44 82 76 15 7 34 32 93 93 7 0 0 0 100 100 100 100 100 100 100 100 100 100 100 100 100 21 5 5 0 0 2 2 5 0 2 5 5 5 7 54 7 98 100 100 100
95 30 91 57 43 61 14 70 100 100 21 0 4 35 100 100 100 100 100 100 100 100 100 100 100 100 100 54 5 5 0 5 0 2 7 58 0 2 5 95 61 63 12 8 100 100 100
89 89 100 27 91 91 100 100 100 100 96 1 100 100 100 100 94 100 100 100 100 100 100 100 100 100 100 44 8 16 4 4 0 0 2 55 4 4 5 5 58 50 74 83 100 92 100
100 100 98 92 100 78 100 100 100 100 100 31 100 100 100 100 100 100 100 100 100 100 100 100 100 100 83 13 32 6 5 0 0 1 5 5 60 2 4 5 11 60 77 100 98 100 47
100 100 86 10 3 5 12 94 100 100 100 46 97 100 100 100 100 100 100 100 100 100 100 100 100 100 67 5 58 5 2 3 5 5 5 24 63 7 0 40 98 99 93 100 100 100 54
100 100 81 90 100 63 53 100 100 100 100 33 100 100 100 100 100 100 100 100 100 100 100 100 100 100 26 5 38 5 5 4 5 5 5 5 39 66 3 5 14 100 100 100 100 83 96
95 99 90 100 100 41 63 98 93 99 60 100 100 100 100 100 100 100 100 100 100 100 100 100 100 100 36 9 16 5 0 3 5 5 5 4 41 25 1 42 98 85 99 85 100 100 27
38 92 81 100 100 85 100 100 5 5 5 49 100 100 100 100 100 100 100 100 100 100 100 100 100 100 45 37 9 5 0 0 0 0 1 12 25 11 5 3 36 86 95 83 99 100 100
64 100 19 81 56 70 100 100 5 4 13 99 100 100 100 100 100 100 100 100 100 100 100 100 100 100 65 21 7 5 4 3 2 5 2 4 5 22 5 5 5 33 81 76 32 82 100
21 100 78 10 0 26 100 99 66 99 100 99 100 100 100 100 100 100 100 100 100 100 100 100 100 100 53 18 19 5 0 0 0 0 5 6 5 55 70 90 5 5 5 5 5 5 100
100 81 83 61 4 85 85 100 100 90 31 98 100 100 100 100 100 100 100 100 100 100 100 100 100 99 59 42 8 5 2 2 2 1 5 30 51 49 22 92 44 15 98 51 21 13 89
95 29 62 53 8 100 100 100 100 100 94 100 100 100 100 100 98 100 100 100 100 100 100 100 100 100 87 55 5 5 0 4 5 5 3 5 51 97 80 5 15 95 77 84 96 100 76
50 67 93 71 5 100 82 87 100 100 100 100 100 100 100 100 100 98 100 100 100 100 100 100 100 100 100 40 36 5 5 12 60 81 5 5 5 23 72 96 6 8 41 24 64 90 100
26 99 100 31 5 42 98 100 100 100 100 100 100 100 98 99 100 100 100 100 100 100 100 100 100 100 97 50 17 5 25 5 55 83 18 20 19 5 5 86 16 6 20 5 5 38 99
13 53 51 16 14 23 95 100 100 100 100 100 100 99 90 96 100 100 100 92 98 100 100 100 100 100 91 63 15 5 4 5 33 48 90 73 90 40 82 83 3 0 5 5 48 12 100
6 8 10 5 5 5 97 100 100 100 94 100 98 100 100 100 100 88 98 100 99 70 80 46 100 100 64 72 5 26 5 5 5 5 5 5 40 35 52 84 21 3 5 21 5 7 46
8 27 8 5 5 5 56 100 100 100 100 99 100 100 100 100 99 82 100 100 100 94 61 59 90 40 71 20 35 45 17 77 9 5 5 38 3 4 5 2 0 5 5 5 8 6 4

GFSGBSN_prec_cloud_108.txt.gz
Cloud_Cover
100 100 98 100 66 100 90 61 14 13 100 98 92 100 100 100 100 100 60 54 73 58 100 100 100 100 100 100 56 5 5 5 40 57 9 48 79 96 20 72 91 100 100 100 100 100 100
92 98 100 100 100 100 100 100 39 45 72 100 100 100 100 100 100 99 24 38 90 100 100 100 100 100 100 100 71 5 14 78 97 25 85 41 71 92 56 79 42 50 97 100 100 100 100
100 100 100 100 100 100 100 79 100 92 100 28 39 100 100 100 100 100 52 100 100 100 100 100 100 100 100 100 33 5 5 41 82 100 98 100 100 100 90 100 87 99 100 100 100 100 100
100 100 100 100 100 100 80 72 100 81 90 0 0 98 100 100 100 100 5 100 100 100 100 100 100 100 100 100 7 5 5 5 100 93 100 90 72 66 70 51 82 100 99 100 100 100 100
100 100 100 100 100 100 100 100 100 49 2 0 0 88 100 100 100 100 40 100 100 100 100 100 100 100 100 100 62 4 5 5 96 30 68 100 100 96 81 100 64 100 100 100 100 100 100
100 100 100 100 100 100 99 96 100 8 0 0 0 25 22 99 100 100 33 100 100 100 100 100 100 100 100 100 62 3 5 73 88 47 65 39 94 100 100 100 52 97 100 100 100 100 100
100 100 100 100 100 100 100 100 99 43 5 0 0 0 0 0 94 100 100 100 100 100 100 100 100 100 100 100 70 0 5 5 42 92 69 79 94 93 100 61 9 97 100 90 92 89 99
100 100 100 100 100 26 97 100 93 100 23 0 0 0 6 5 100 100 93 100 100 100 100 100 100 100 100 100 43 0 0 2 5 18 45 48 94 82 99 28 25 88 37 17 79 42 100
100 100 100 100 100 100 100 100 100 100 5 4 0 0 100 100 100 100 100 100 100 100 100 100 100 100 100 100 9 0 0 0 0 1 5 42 17 5 42 12 29 22 15 60 60 60 76
100 100 100 100 100 100 100 100 100 58 5 5 10 3 5 100 77 100 100 100 100 100 100 100 100 100 100 100 25 0 0 0 0 4 0 2 3 5 5 9 7 12 5 7 81 47 88
100 100 100 100 100 100 100 100 48 46 5 98 89 0 0 98 100 100 100 100 100 100 100 100 100 100 100 99 7 2 0 0 1 2 2 3 1 4 5 5 5 60 95 6 12 48 52
100 100 100 100 83 90 100 99 96 100 36 99 97 0 0 69 100 100 100 100 100 100 100 100 100 100 100 75 5 0 0 0 0 2 0 4 3 4 5 1 5 5 32 96 58 97 100
100 100 100 76 100 38 100 100 100 100 100 94 100 6 43 74 100 100 100 100 100 100 100 100 100 100 100 30 5 0 0 0 1 0 4 3 0 2 5 5 4 4 10 88 99 100 100
100 100 86 16 76 3 5 10 34 100 100 100 98 94 49 43 100 100 100 100 100 100 100 100 100 100 100 40 5 5 5 0 0 2 5 4 4 2 4 8 20 37 44 87 95 87 100
100 100 63 52 5 0 0 0 9 100 100 100 100 100 100 100 100 100 100 100 100 100 100 100 100 100 76 31 5 5 5 3 0 4 4 5 5 0 0 4 8 98 55 80 54 6 100
100 97 50 99 5 5 15 25 6 96 100 100 100 100 100 100 100 100 100 100 100 100 100 100 100 100 54 45 5 5 1 1 3 1 5 5 43 1 4 1 8 45 58 100 98 79 82
90 56 85 100 5 24 4 64 64 100 82 94 100 100 100 100 100 100 100 100 100 100 100 100 100 100 60 53 5 5 2 3 5 5 5 5 12 39 0 5 34 39 91 100 100 77 88
88 64 10 100 59 10 4 6 100 61 5 74 99 100 100 100 100 100 99 98 100 100 100 100 100 100 98 18 16 5 5 4 4 5 5 5 6 48 5 5 5 81 100 99 100 100 100
89 22 84 75 95 7 59 86 52 60 54 77 100 100 100 100 100 100 100 100 97 100 100 100 100 89 100 6 49 5 4 2 5 5 4 2 36 30 4 51 67 100 61 67 56 100 100
100 14 36 73 99 5 58 100 69 51 9 5 100 100 100 100 100 100 100 100 100 100 100 100 100 79 65 5 54 4 0 0 0 1 0 1 6 7 20 33 17 76 21 41 67 95 100
100 100 18 90 5 5 21 100 30 3 4 6 88 100 100 100 100 100 100 100 100 100 100 100 100 72 8 5 42 5 0 0 0 0 0 0 2 5 5 5 5 5 56 5 98 6 65
74 97 30 93 5 69 93 100 50 1 37 38 100 100 100 100 100 100 95 100 100 100 100 100 97 36 6 30 14 5 0 0 0 0 0 5 8 28 5 43 68 5 5 5 5 5 37
79 39 34 76 5 99 77 100 94 58 84 98 100 100 100 100 100 100 100 99 100 100 100 100 88 20 8 41 32 4 0 0 0 0 4 2 5 8 5 5 32 47 13 97 100 100 100
89 34 99 25 31 5 21 58 100 100 60 100 100 98 100 90 96 97 77 73 94 100 100 100 77 37 61 48 6 2 0 1 4 5 5 5 5 36 5 5 40 35 5 68 76 99 100
43 36 100 36 92 10 5 3 55 56 100 100 100 100 99 74 88 88 61 63 100 100 100 100 71 78 74 71 5 5 5 11 34 6 5 5 5 5 4 1 4 6 5 5 9 93 100
100 25 100 80 9 5 5 5 10 100 100 100 100 100 100 12 100 51 89 100 100 100 100 100 72 78 100 88 5 5 4 3 22 81 14 34 5 5 13 2 0 6 5 5 5 58 95
100 40 100 11 20 5 5 5 100 100 99 100 100 72 100 100 100 100 86 98 100 100 100 100 84 100 97 62 7 5 5 5 4 5 50 56 56 4 5 1 0 1 5 5 79 32 29
18 80 95 36 5 5 1 18 100 100 100 100 24 100 100 38 100 90 39 80 100 100 100 90 57 99 59 21 6 5 5 5 3 4 5 1 2 4 6 5 0 0 5 8 2 1 6
100 10 45 11 17 5 2 17 100 100 100 93 6 35 100 99 60 74 66 88 58 86 64 34 96 88 37 34 5 5 5 17 2 0 4 4 0 0 0 0 0 0 0 0 0 5 7

GFSGBSN_prec_cloud_111.txt.gz
Cloud_Cover
100 100 100 100 100 100 100 100 100 100 73 99 100 84 100 100 100 100 100 67 32 95 15 22 100 100 100 100 100 47 5 0 5 20 61 31 32 100 99 91 24 15 100 100 100 99 100
100 100 100 100 100 100 100 100 100 100 100 100 22 10 100 100 100 100 100 94 89 13 5 100 100 100 100 100 100 11 2 5 5 7 28 37 65 99 91 100 78 92 100 100 100 100 100
100 100 100 100 100 100 100 100 100 100 79 90 13 33 53 97 100 100 100 100 31 34 94 100 100 100 100 100 98 5 5 5 5 90 87 94 39 87 96 100 100 100 92 100 100 100 100
100 100 100 100 100 100 100 100 100 98 45 5 25 15 2 36 100 100 100 100 96 98 100 100 100 100 100 100 80 8 3 5 6 6 43 91 76 83 99 97 100 100 100 100 100 100 100
100 100 100 100 100 100 100 100 100 77 83 86 89 3 4 0 36 100 100 100 100 100 100 100 100 100 100 100 90 4 1 4 70 42 62 83 99 68 72 98 100 100 100 100 100 100 100
100 100 100 100 100 100 100 100 100 100 82 27 21 5 0 46 0 39 100 100 100 100 100 100 100 100 100 100 70 0 3 5 5 44 98 64 78 71 92 100 100 100 100 100 100 100 99
100 100 100 100 100 100 100 100 100 91 64 53 76 4 0 30 11 18 64 100 100 97 100 100 100 100 100 100 28 5 0 5 5 9 86 81 92 100 100 91 100 100 100 96 92 100 100
100 100 100 100 100 100 97 100 100 97 95 100 95 3 0 98 100 100 100 99 100 100 100 100 100 100 100 100 10 1 0 1 5 63 83 44 96 100 100 79 100 100 94 94 84 100 100
100 100 100 100 100 100 70 100 100 99 100 100 50 69 0 1 100 100 84 100 100 100 100 100 100 100 88 100 5 1 0 0 2 6 76 90 100 7 29 97 100 100 100 95 100 100 95
100 100 100 100 100 100 77 100 100 97 75 99 5 92 38 0 51 92 100 100 100 100 100 100 100 99 96 88 4 0 0 0 4 5 5 8 56 5 10 93 88 100 35 92 64 90 100
100 100 100 100 100 94 100 100 6 10 13 73 99 100 100 65 16 100 100 90 100 100 100 100 100 49 92 86 2 0 0 0 5 28 5 14 5 6 5 79 14 80 5 37 100 86 87
100 100 100 100 100 93 100 100 0 3 2 100 100 100 100 100 40 87 100 100 100 96 100 100 100 99 95 33 2 1 3 0 0 5 3 3 5 5 29 4 5 5 10 29 70 100 62
100 100 100 100 100 75 100 65 46 6 52 100 100 100 100 85 59 100 97 100 96 100 100 100 100 100 100 29 5 3 4 5 11 4 16 3 2 3 2 6 5 5 59 94 98 77 76
100 100 100 100 63 97 100 31 65 14 100 100 100 100 100 75 99 100 100 100 100 100 100 100 100 100 98 35 5 4 5 5 2 5 5 5 41 2 4 45 49 84 90 98 99 99 87
100 100 100 73 88 100 40 78 30 100 100 100 100 100 100 74 97 100 100 100 100 100 100 100 100 100 84 24 5 3 0 3 5 5 5 5 27 2 0 5 23 66 46 79 94 100 70
100 100 100 17 5 65 5 14 88 73 100 100 100 100 100 100 100 100 100 100 100 100 100 100 100 100 79 7 4 0 0 2 4 1 4 49 77 7 4 8 18 36 100 96 95 96 100
100 100 94 72 46 58 10 5 16 8 100 100 100 100 100 100 100 100 100 100 100 100 100 100 100 86 65 5 3 0 0 2 1 2 5 8 66 66 36 75 94 88 82 69 100 97 100
100 100 87 5 18 61 75 36 8 32 100 100 100 100 100 100 100 100 100 100 100 100 100 100 100 51 46 5 2 0 3 5 0 5 57 13 32 46 46 6 21 99 99 31 100 100 100
100 100 30 5 59 13 100 42 5 5 98 95 100 100 100 100 100 100 100 100 100 100 100 100 97 84 6 36 4 0 4 0 2 5 37 17 44 44 70 59 37 91 100 94 67 92 75
100 100 20 5 50 13 100 5 5 2 5 64 90 100 100 100 100 100 99 100 100 100 100 100 94 60 34 51 28 1 3 0 0 2 0 1 11 5 5 39 18 29 46 5 68 90 68
100 98 29 24 5 7 11 8 5 0 3 38 70 100 100 100 100 98 100 100 99 100 100 88 58 72 42 74 44 2 0 0 0 0 0 2 2 4 5 13 5 5 5 0 3 22 31
100 99 5 16 9 9 61 99 5 2 0 5 87 100 100 100 100 99 97 100 100 100 68 80 42 45 38 74 13 2 0 0 0 0 0 0 10 5 5 5 26 1 0 0 2 6 8
100 100 38 56 33 5 79 18 38 6 7 6 44 58 96 100 100 76 83 68 59 100 58 48 26 63 66 53 7 5 0 0 0 1 4 2 5 30 3 4 12 44 60 30 83 100 92
100 100 90 5 100 5 5 29 100 65 52 99 99 52 100 96 100 97 95 39 85 100 78 50 45 61 75 45 21 4 0 0 4 4 2 3 5 7 4 13 44 52 5 36 78 36 70
100 100 93 5 98 19 5 5 88 87 96 100 100 99 99 88 88 93 100 89 67 100 98 100 53 58 48 42 18 5 5 5 5 5 5 5 5 5 4 0 0 5 4 45 65 17 83
100 100 100 100 100 100 5 5 5 89 100 85 92 26 53 58 55 100 100 100 93 100 100 100 67 60 52 46 14 6 5 2 4 5 5 5 5 22 5 1 0 5 5 2 5 48 53
100 100 100 100 100 100 18 5 5 16 85 79 77 74 77 95 97 100 100 100 97 81 100 100 50 54 27 83 55 33 5 3 1 0 4 5 5 4 0 1 0 1 0 0 56 36 36
100 100 100 100 100 100 31 4 4 100 100 100 100 100 85 20 94 100 100 100 85 100 100 100 43 56 42 99 56 53 5 3 2 0 0 0 1 1 0 1 0 0 0 4 1 0 4
100 100 100 100 100 100 84 2 23 100 100 100 100 100 89 10 52 100 100 100 84 86 100 99 51 26 65 60 47 58 14 5 5 5 0 2 0 0 0 0 0 0 4 0 0 4 18

GFSGBSN_prec_cloud_114.txt.gz
Cloud_Cover
100 100 100 100 100 100 100 100 100 100 100 100 100 100 100 100 99 100 100 100 100 100 66 14 5 0 1 100 100 100 52 5 0 0 3 20 82 36 54 85 94 100 68 18 19 87 100
100 100 100 100 100 100 100 100 100 100 100 100 98 100 100 100 100 100 100 100 94 100 100 6 5 0 100 100 100 100 59 4 5 2 37 47 96 92 9 85 71 89 54 24 99 100 100
100 100 100 100 100 100 100 100 100 100 100 100 100 100 100 100 82 98 100 100 100 100 100 14 5 98 100 100 100 100 5 5 1 5 49 52 22 5 16 66 100 100 100 100 100 98 100
100 100 100 100 100 100 100 100 100 100 100 100 100 100 100 91 90 23 100 100 100 100 100 13 100 100 100 100 100 52 5 5 3 5 5 24 71 8 46 54 76 100 100 100 100 100 100
100 100 100 100 100 100 100 100 100 100 100 100 100 100 100 100 83 46 60 52 100 100 100 100 100 100 100 100 100 71 5 5 5 5 5 14 7 23 85 90 90 100 98 100 100 100 99
100 100 100 100 100 100 100 100 100 100 100 100 100 100 100 100 8 52 3 100 53 100 65 100 100 100 100 100 100 15 13 3 5 5 8 37 27 23 100 100 100 100 100 100 99 100 100
100 100 100 100 100 100 100 100 100 100 100 100 100 100 95 100 88 92 38 1 57 29 100 100 100 100 100 100 91 28 10 2 5 5 5 63 39 86 100 100 99 100 100 100 100 100 95
100 100 100 100 100 100 100 100 100 100 100 99 65 22 93 16 8 100 96 39 7 72 100 100 100 100 100 98 22 53 2 0 47 57 100 91 27 82 31 49 100 100 100 98 100 100 100
100 100 100 100 100 100 100 100 100 84 53 5 6 76 100 80 5 36 100 91 87 100 100 100 100 100 100 100 15 41 0 3 0 4 25 97 28 99 16 33 100 100 100 100 100 32 100
99 100 100 100 100 100 100 100 72 5 13 14 15 100 100 100 15 46 100 26 100 100 100 100 100 100 100 55 74 2 0 0 2 3 1 5 12 28 5 14 86 12 96 80 100 100 100
100 100 100 100 100 100 100 90 60 100 100 4 100 100 100 100 11 78 100 86 100 100 100 94 99 100 100 72 17 0 0 0 0 5 4 2 20 5 5 71 8 5 5 19 5 93 100
100 100 100 100 100 100 100 4 43 11 44 100 100 100 100 100 84 83 100 100 100 96 95 100 93 100 93 74 4 0 2 0 0 0 1 0 0 0 4 1 0 2 1 2 62 100 77
100 100 100 100 100 100 67 5 83 98 57 100 100 100 100 100 73 99 86 100 100 100 100 100 100 100 99 14 2 0 1 1 1 3 4 4 0 0 5 5 23 97 43 41 55 22 33
100 100 100 100 100 94 8 4 8 95 100 100 100 99 100 100 37 100 100 100 100 100 100 100 100 100 21 5 2 1 0 5 4 1 5 5 7 4 0 28 14 57 96 100 98 96 93
100 100 100 100 59 79 7 3 5 19 100 100 100 100 100 87 4 96 100 100 100 100 94 100 100 99 8 14 0 4 0 2 3 3 3 58 19 5 4 0 4 42 66 100 100 100 99
100 100 100 74 54 89 12 0 4 58 100 77 100 95 100 100 98 100 100 96 100 100 100 100 100 10 31 5 2 0 0 3 4 2 4 85 59 5 2 17 66 81 75 92 94 100 94
100 100 100 18 42 96 5 2 5 44 96 99 95 99 100 100 100 100 100 100 100 100 100 100 93 5 24 3 0 0 0 3 0 2 21 51 61 2 47 7 11 8 21 72 70 93 100
100 100 100 15 6 71 5 0 0 5 37 100 50 100 100 100 99 100 100 100 100 100 100 100 59 5 5 2 0 0 3 0 0 2 5 4 3 5 5 5 66 5 60 5 75 99 100
100 100 95 3 5 17 12 1 0 3 4 70 100 100 100 99 100 98 96 90 100 100 100 99 7 15 5 0 0 0 0 0 0 0 0 0 4 5 68 72 77 12 10 8 45 91 42
100 100 39 10 3 4 41 85 0 0 0 1 36 100 35 84 81 82 86 100 100 100 89 31 6 12 5 0 0 0 0 0 0 0 0 1 29 5 5 38 4 3 0 4 4 21 17
100 100 22 39 57 4 24 68 2 0 0 1 49 100 100 55 60 62 43 100 100 86 64 43 5 9 5 3 0 0 0 0 0 0 0 0 5 2 1 5 5 4 0 0 5 3 12
90 92 81 5 100 0 2 66 84 0 0 2 8 2 9 88 10 94 100 100 100 90 29 16 5 5 5 5 2 0 0 0 0 0 0 0 5 5 5 0 0 0 0 0 2 6 5
100 100 100 88 89 5 1 79 100 29 15 10 8 26 16 47 13 96 100 100 100 100 26 82 5 34 5 5 4 0 0 0 0 0 0 2 5 8 4 0 5 5 5 5 5 91 57
99 100 44 100 87 21 5 51 50 98 43 74 71 12 69 70 12 100 100 100 100 100 57 92 88 92 29 5 5 2 0 0 0 0 0 0 5 5 4 5 14 5 0 5 5 5 5
100 100 100 100 100 100 98 98 100 100 96 8 42 6 10 21 14 100 100 100 100 73 87 100 100 100 60 5 5 5 5 5 5 4 0 0 3 5 5 4 0 0 0 3 5 1 5
100 100 100 100 100 100 100 100 100 100 100 64 100 23 90 22 45 100 100 100 100 100 100 100 100 100 94 25 9 5 5 5 3 5 1 0 0 5 5 4 0 0 0 0 0 14 3
100 100 100 100 100 100 100 98 100 98 100 68 49 97 100 24 6 100 100 100 92 100 100 100 100 100 70 62 56 63 28 5 5 0 3 5 5 4 4 3 0 0 0 0 4 1 0
100 100 100 100 100 100 100 100 100 100 91 100 49 100 100 92 5 27 100 100 100 75 99 86 100 76 63 63 53 73 81 6 5 4 0 1 3 5 0 2 2 0 0 2 0 0 1
100 100 100 100 100 100 100 100 100 100 100 100 100 100 100 100 5 5 90 97 100 100 100 97 98 100 93 59 72 57 89 42 5 5 2 1 0 0 0 0 0 0 0 0 0 0 2

GFSGBSN_prec_cloud_117.txt.gz
Cloud_Cover
100 100 100 100 100 100 100 100 100 100 100 100 100 100 100 100 100 100 100 100 100 100 100 100 9 5 1 16 12 5 92 99 15 6 5 34 49 80 46 8 12 42 21 11 3 7 5
100 100 100 100 100 100 100 100 100 100 100 100 100 100 100 100 100 100 100 69 100 100 100 99 10 5 24 41 10 100 100 43 5 14 5 98 23 100 100 12 6 5 5 31 81 60 29
100 100 100 100 100 100 100 100 100 100 100 100 100 100 100 100 100 100 100 100 100 100 97 73 5 5 5 60 100 100 86 98 88 5 5 50 34 32 62 5 12 5 98 100 81 98 95
99 100 100 100 100 100 100 100 100 100 100 100 100 100 100 100 100 100 100 100 98 100 100 6 42 48 75 100 100 100 100 80 8 5 28 5 5 17 73 20 91 100 92 100 100 25 70
93 100 100 100 100 100 100 100 100 100 100 100 100 100 100 100 100 100 100 95 44 33 100 5 20 74 100 100 100 100 100 62 8 6 5 5 5 9 93 94 55 24 46 77 98 100 100
100 100 100 100 100 100 100 100 100 100 100 52 100 100 100 99 100 100 96 27 63 14 62 38 64 100 100 100 100 100 48 14 50 12 5 18 21 5 89 99 94 98 100 99 100 100 100
99 100 100 100 100 100 100 100 100 100 64 34 24 79 77 100 90 62 100 100 5 36 32 56 100 100 100 100 93 90 56 70 5 5 5 5 82 55 83 96 100 75 69 100 100 100 99
97 82 100 100 100 100 100 100 100 13 100 100 100 100 100 100 99 36 76 100 20 49 52 100 100 100 100 100 100 95 65 2 39 2 21 82 11 5 40 84 69 94 95 76 100 100 100
100 100 100 100 100 100 100 100 15 100 78 67 100 100 100 100 100 37 70 82 100 45 100 100 100 100 97 100 100 100 2 2 2 0 5 40 15 94 5 6 5 78 87 84 100 93 100
100 100 100 100 100 100 100 61 100 97 92 100 100 100 100 100 94 83 99 98 100 100 100 95 100 100 75 100 100 10 0 0 3 4 5 1 61 45 5 5 26 5 12 18 6 34 100
100 100 100 100 100 100 52 94 49 69 100 100 100 100 100 100 19 100 100 70 100 100 100 100 100 87 100 100 28 1 0 0 0 0 0 0 0 0 0 1 65 13 0 1 5 5 100
100 100 100 100 100 100 94 6 14 50 99 100 100 100 100 100 75 94 100 98 99 100 100 100 84 100 100 86 4 0 0 0 0 0 1 2 5 3 4 0 16 4 5 0 0 18 30
100 100 100 100 100 100 26 0 31 41 97 82 70 99 61 12 48 80 96 100 100 100 94 95 100 100 100 10 0 0 1 5 1 0 2 0 5 72 4 0 51 100 29 65 16 22 86
100 100 100 100 100 83 67 0 3 66 6 76 51 81 87 91 27 97 100 100 100 99 100 100 100 100 75 5 0 0 4 1 0 0 2 7 5 3 5 11 9 86 83 100 100 89 87
95 100 100 100 63 100 98 0 40 81 9 35 61 99 75 51 100 100 91 100 97 99 100 100 100 97 14 1 0 0 0 2 4 0 2 38 3 32 69 80 81 6 100 94 100 100 74
85 100 100 72 70 100 84 14 6 1 5 5 6 98 100 93 100 67 85 94 88 100 100 100 98 52 0 0 0 0 0 4 0 0 5 16 24 4 5 4 0 6 11 68 100 100 100
94 100 100 23 5 3 100 82 1 0 5 4 27 100 78 6 50 100 92 76 100 100 100 100 17 7 0 0 0 0 0 2 0 0 4 1 4 3 1 44 5 4 5 10 36 88 100
100 100 89 19 5 32 99 100 65 0 5 6 5 99 2 5 12 6 5 89 100 100 99 74 11 0 0 0 0 0 0 0 0 0 0 0 4 41 75 23 5 5 4 5 5 65 73
100 100 40 9 5 4 6 59 86 82 0 100 96 61 2 0 5 26 5 100 100 100 69 25 5 0 0 0 0 0 0 0 0 0 0 0 5 54 77 3 0 0 0 5 40 38 97
100 100 61 4 5 4 5 100 100 100 44 36 64 12 5 1 17 22 27 100 100 69 8 16 5 0 0 0 0 0 0 0 0 0 0 0 15 4 5 4 3 2 0 0 3 28 86
96 87 7 4 5 4 4 54 100 100 100 68 88 93 45 8 5 6 33 100 60 63 54 59 5 0 0 0 0 0 0 0 0 0 0 0 5 5 0 1 0 0 0 0 2 2 18
88 98 12 2 45 80 5 5 100 100 81 100 90 62 11 10 5 5 56 100 100 100 97 100 31 5 1 0 0 0 0 0 0 0 0 0 28 7 50 0 2 0 0 0 5 5 5
82 92 15 3 4 33 5 16 44 100 100 100 100 87 90 5 5 5 5 100 100 100 100 100 100 82 7 3 0 0 0 0 0 0 0 2 11 10 4 0 5 3 0 0 5 5 5
100 100 98 5 4 89 52 66 98 51 100 100 100 100 65 5 5 17 5 100 100 100 100 100 100 92 87 30 5 3 0 0 0 0 0 0 5 23 61 5 1 0 0 1 0 0 0
98 100 100 40 5 5 64 5 74 88 100 100 100 100 100 53 5 2 5 60 100 96 100 100 100 100 97 99 64 5 4 4 0 0 0 0 5 5 5 30 0 0 0 0 0 0 0
100 100 100 98 5 40 100 51 88 100 100 100 100 100 100 72 1 5 3 5 20 100 13 48 97 100 89 83 92 42 22 5 2 5 1 0 0 5 5 5 1 0 0 0 0 4 0
100 100 100 96 7 80 100 44 100 100 100 100 100 100 100 100 3 0 0 2 5 8 17 57 94 78 81 10 28 33 44 7 5 5 0 22 16 5 38 4 0 0 0 0 0 0 0
100 100 100 100 96 82 97 96 95 100 100 100 100 100 100 100 83 2 0 0 5 5 8 60 73 73 59 6 34 68 61 54 8 5 5 1 14 5 3 4 4 0 0 0 0 0 0
100 100 100 100 100 96 100 100 86 98 100 96 100 100 100 100 97 0 0 0 5 5 36 42 44 56 38 44 19 51 96 100 85 56 18 5 5 5 5 0 0 5 5 5 1 0 0

GFSGBSN_prec_cloud_120.txt.gz
Cloud_Cover
100 57 100 99 100 100 100 100 100 100 100 100 100 100 100 100 100 100 100 100 100 100 100 100 100 100 10 32 22 0 0 5 3 32 100 91 16 27 38 62 100 95 5 5 5 3 0
100 92 79 100 100 100 100 100 100 100 100 100 100 100 100 100 100 100 100 100 100 100 100 76 96 98 6 5 0 0 0 3 99 100 69 5 6 66 98 99 70 69 33 5 5 5 4
100 100 84 93 100 100 100 100 100 100 100 100 100 100 100 100 100 100 100 100 100 100 100 93 37 38 5 2 0 0 20 100 89 10 34 82 100 99 42 6 75 98 36 5 45 88 76
100 99 100 100 100 100 100 100 100 100 100 100 100 100 100 100 100 100 100 100 100 100 97 99 52 6 31 0 8 100 100 100 99 19 50 32 76 69 92 68 37 15 29 53 74 67 50
91 97 100 100 100 100 100 100 100 100 97 100 100 100 100 100 100 100 100 100 100 98 100 100 21 5 41 88 100 100 100 77 11 17 95 80 91 46 20 98 53 40 87 97 100 99 81
100 100 100 100 100 100 100 100 61 73 84 100 98 98 99 100 100 100 100 100 100 100 20 89 22 28 99 100 100 100 100 72 99 5 57 60 94 55 84 100 100 88 96 89 100 100 100
100 100 100 100 97 100 78 10 29 100 100 78 100 100 100 100 100 100 98 100 100 38 13 3 52 100 100 100 100 100 54 99 8 5 5 99 90 96 81 100 99 61 99 82 97 100 100
100 100 100 100 100 76 11 28 14 100 100 100 100 100 90 100 100 99 100 68 100 5 4 88 100 100 100 100 99 97 93 3 20 5 66 86 58 28 97 99 100 100 77 17 42 100 100
100 100 100 100 100 57 14 6 58 98 100 100 100 100 100 86 100 55 100 100 93 7 87 100 100 100 100 97 100 82 2 2 5 5 3 34 8 56 98 14 8 28 86 79 28 89 100
100 100 100 100 74 5 12 31 100 92 86 100 100 100 100 96 67 100 100 98 18 98 95 100 100 100 100 100 92 1 1 0 5 5 3 3 66 32 21 3 4 5 33 98 6 22 35
100 100 100 100 5 2 22 31 84 70 16 88 100 98 99 34 96 100 86 47 82 93 99 100 95 98 100 96 1 0 0 0 0 0 0 2 2 0 1 0 16 8 0 0 3 3 45
100 96 100 99 95 24 38 82 88 88 23 22 25 5 4 3 39 89 93 53 87 94 100 88 95 100 92 0 0 0 0 0 0 0 0 4 5 5 5 0 41 76 5 1 0 2 100
100 93 89 100 10 4 16 100 100 7 14 29 4 0 0 0 30 100 11 92 88 70 44 82 100 98 3 0 0 0 3 0 0 2 2 5 5 5 21 68 26 83 5 100 5 94 100
100 66 90 91 13 1 14 80 18 5 24 24 3 20 84 77 38 35 46 72 23 98 95 100 97 6 0 0 0 0 1 0 0 0 5 5 4 60 5 73 34 53 99 100 54 100 100
93 45 100 11 53 55 6 74 4 5 5 0 0 4 8 5 5 5 6 21 100 100 100 99 9 1 0 1 0 0 3 4 5 5 3 5 3 6 2 0 21 98 100 100 100 87 11
9 97 78 70 5 2 25 73 100 16 1 0 0 0 0 0 1 5 22 100 100 100 69 5 5 0 0 0 0 0 0 2 0 2 5 2 5 3 0 3 1 10 71 93 96 47 74
5 98 38 5 5 6 5 93 63 100 29 0 0 0 0 0 5 8 100 100 99 58 25 12 2 0 0 0 0 0 2 1 0 0 0 0 1 0 3 5 4 0 5 30 58 70 44
5 39 5 21 24 3 4 5 65 100 100 16 52 9 0 3 5 97 100 100 100 96 19 0 0 0 0 0 0 0 0 0 0 0 0 0 2 23 40 5 1 0 4 5 5 7 100
39 90 55 5 15 62 16 21 87 100 100 98 15 28 0 4 10 89 93 100 100 73 6 0 0 0 0 0 0 0 0 0 0 0 0 0 5 22 0 0 0 0 0 4 6 5 70
83 5 71 7 100 5 42 83 43 84 76 100 100 100 33 4 14 87 100 100 71 71 19 5 0 0 0 0 0 0 0 0 0 0 0 0 5 4 2 0 1 3 0 0 4 8 11
90 15 100 5 10 26 5 78 22 100 100 93 100 100 100 80 17 4 99 100 100 54 40 17 0 0 0 0 0 0 0 0 0 0 0 0 3 5 0 0 0 1 0 0 2 4 5
97 91 100 50 97 68 13 7 79 96 5 94 100 100 100 100 96 37 8 5 100 79 74 47 12 5 0 0 0 0 0 0 0 0 0 3 6 5 5 0 5 0 0 0 3 3 2
94 100 99 30 97 100 8 52 58 40 62 100 100 64 97 77 100 100 4 78 7 59 60 37 13 19 7 3 0 0 0 0 0 0 0 2 5 7 4 5 3 0 0 0 0 1 0
99 100 100 100 44 30 5 5 42 26 41 100 100 100 100 100 100 100 91 2 50 26 22 5 5 5 5 5 5 5 0 0 0 0 0 1 15 23 17 4 0 0 0 0 0 0 0
100 100 100 100 100 10 5 4 5 8 67 99 100 100 100 100 100 100 100 94 4 32 1 64 60 30 5 5 5 5 5 5 1 0 0 2 5 13 4 34 0 0 0 0 1 0 0
100 99 100 100 67 85 48 5 5 5 5 42 87 82 100 100 100 100 100 100 18 5 5 4 7 98 100 30 6 5 9 49 15 5 1 0 5 5 36 2 0 0 0 0 0 0 0
63 100 100 100 100 100 100 22 8 100 97 61 90 95 100 100 100 100 100 100 100 22 5 8 46 5 37 64 94 59 68 43 74 77 27 17 20 5 52 28 1 3 0 1 0 0 0
100 91 90 100 100 50 97 94 5 88 100 100 95 100 100 100 100 100 100 100 92 100 0 3 5 5 24 16 9 16 44 88 76 69 54 34 16 15 5 5 4 3 5 5 5 0 0
100 100 100 100 100 94 100 100 100 95 74 100 20 99 99 73 88 100 100 100 98 64 13 0 5 5 8 77 48 26 37 55 44 58 68 48 74 42 5 5 5 5 5 5 5 5 5